<?xml version="1.0" encoding="UTF-8" standalone="no" ?>
<gpx xmlns="http://www.topografix.com/GPX/1/1" xmlns:xsi="http://www.w3.org/2001/XMLSchema-instance" xsi:schemaLocation="http://www.topografix.com/GPX/1/1 http://www.topografix.com/GPX/1/1/gpx.xsd" version="1.1" creator="VisuGPX - https://www.visugpx.com">
  <metadata>
    <name>Gilly-les-Cîteaux (Variante)</name>
    <desc><![CDATA[Marche sans réelle difficulté, dans la campagne, avec des vues sur le vignoble.]]></desc>
  </metadata>
  <trk>
    <name><![CDATA[2018-09-18-02]]></name>
    <trkseg>
      <trkpt lat="47.17248" lon="4.98172">
        <ele>224</ele>
        <time>2018-09-18T12:21:08Z</time>
      </trkpt>
      <trkpt lat="47.17245" lon="4.98175">
        <ele>224</ele>
        <time>2018-09-18T12:21:09Z</time>
      </trkpt>
      <trkpt lat="47.17244" lon="4.98182">
        <ele>224</ele>
        <time>2018-09-18T12:21:14Z</time>
      </trkpt>
      <trkpt lat="47.17241" lon="4.98188">
        <ele>224</ele>
        <time>2018-09-18T12:21:18Z</time>
      </trkpt>
      <trkpt lat="47.17238" lon="4.98195">
        <ele>224</ele>
        <time>2018-09-18T12:21:22Z</time>
      </trkpt>
      <trkpt lat="47.17237" lon="4.98201">
        <ele>223.9</ele>
        <time>2018-09-18T12:21:26Z</time>
      </trkpt>
      <trkpt lat="47.17234" lon="4.98207">
        <ele>223.9</ele>
        <time>2018-09-18T12:21:30Z</time>
      </trkpt>
      <trkpt lat="47.17231" lon="4.98214">
        <ele>223.9</ele>
        <time>2018-09-18T12:21:35Z</time>
      </trkpt>
      <trkpt lat="47.17228" lon="4.98219">
        <ele>223.8</ele>
        <time>2018-09-18T12:21:39Z</time>
      </trkpt>
      <trkpt lat="47.17226" lon="4.98225">
        <ele>223.8</ele>
        <time>2018-09-18T12:21:43Z</time>
      </trkpt>
      <trkpt lat="47.17224" lon="4.98234">
        <ele>223.7</ele>
        <time>2018-09-18T12:21:47Z</time>
      </trkpt>
      <trkpt lat="47.17222" lon="4.9824">
        <ele>223.7</ele>
        <time>2018-09-18T12:21:50Z</time>
      </trkpt>
      <trkpt lat="47.1722" lon="4.98247">
        <ele>223.7</ele>
        <time>2018-09-18T12:21:54Z</time>
      </trkpt>
      <trkpt lat="47.17217" lon="4.98254">
        <ele>223.5</ele>
        <time>2018-09-18T12:21:58Z</time>
      </trkpt>
      <trkpt lat="47.17215" lon="4.98261">
        <ele>223.3</ele>
        <time>2018-09-18T12:22:02Z</time>
      </trkpt>
      <trkpt lat="47.17212" lon="4.98268">
        <ele>223.1</ele>
        <time>2018-09-18T12:22:07Z</time>
      </trkpt>
      <trkpt lat="47.17211" lon="4.98275">
        <ele>222.9</ele>
        <time>2018-09-18T12:22:11Z</time>
      </trkpt>
      <trkpt lat="47.17209" lon="4.98282">
        <ele>222.8</ele>
        <time>2018-09-18T12:22:15Z</time>
      </trkpt>
      <trkpt lat="47.17207" lon="4.9829">
        <ele>222.6</ele>
        <time>2018-09-18T12:22:19Z</time>
      </trkpt>
      <trkpt lat="47.17208" lon="4.98297">
        <ele>222.4</ele>
        <time>2018-09-18T12:22:24Z</time>
      </trkpt>
      <trkpt lat="47.17206" lon="4.98305">
        <ele>222.2</ele>
        <time>2018-09-18T12:22:29Z</time>
      </trkpt>
      <trkpt lat="47.17205" lon="4.98312">
        <ele>222</ele>
        <time>2018-09-18T12:22:34Z</time>
      </trkpt>
      <trkpt lat="47.17203" lon="4.98319">
        <ele>221.8</ele>
        <time>2018-09-18T12:22:39Z</time>
      </trkpt>
      <trkpt lat="47.17203" lon="4.98326">
        <ele>221.6</ele>
        <time>2018-09-18T12:22:44Z</time>
      </trkpt>
      <trkpt lat="47.17201" lon="4.98333">
        <ele>221.4</ele>
        <time>2018-09-18T12:22:48Z</time>
      </trkpt>
      <trkpt lat="47.172" lon="4.9834">
        <ele>221.3</ele>
        <time>2018-09-18T12:22:52Z</time>
      </trkpt>
      <trkpt lat="47.17199" lon="4.98348">
        <ele>221.2</ele>
        <time>2018-09-18T12:22:57Z</time>
      </trkpt>
      <trkpt lat="47.17197" lon="4.98354">
        <ele>221.1</ele>
        <time>2018-09-18T12:23:01Z</time>
      </trkpt>
      <trkpt lat="47.17196" lon="4.98361">
        <ele>221</ele>
        <time>2018-09-18T12:23:05Z</time>
      </trkpt>
      <trkpt lat="47.17191" lon="4.98361">
        <ele>221</ele>
        <time>2018-09-18T12:23:09Z</time>
      </trkpt>
      <trkpt lat="47.17186" lon="4.98359">
        <ele>220.9</ele>
        <time>2018-09-18T12:23:12Z</time>
      </trkpt>
      <trkpt lat="47.17181" lon="4.98356">
        <ele>220.9</ele>
        <time>2018-09-18T12:23:16Z</time>
      </trkpt>
      <trkpt lat="47.17176" lon="4.98353">
        <ele>220.9</ele>
        <time>2018-09-18T12:23:21Z</time>
      </trkpt>
      <trkpt lat="47.17171" lon="4.98351">
        <ele>220.9</ele>
        <time>2018-09-18T12:23:25Z</time>
      </trkpt>
      <trkpt lat="47.17167" lon="4.98348">
        <ele>220.8</ele>
        <time>2018-09-18T12:23:29Z</time>
      </trkpt>
      <trkpt lat="47.17163" lon="4.98346">
        <ele>220.9</ele>
        <time>2018-09-18T12:23:33Z</time>
      </trkpt>
      <trkpt lat="47.17158" lon="4.98344">
        <ele>220.9</ele>
        <time>2018-09-18T12:23:37Z</time>
      </trkpt>
      <trkpt lat="47.17153" lon="4.98343">
        <ele>220.9</ele>
        <time>2018-09-18T12:23:41Z</time>
      </trkpt>
      <trkpt lat="47.17148" lon="4.98342">
        <ele>220.9</ele>
        <time>2018-09-18T12:23:45Z</time>
      </trkpt>
      <trkpt lat="47.17143" lon="4.98341">
        <ele>220.9</ele>
        <time>2018-09-18T12:23:50Z</time>
      </trkpt>
      <trkpt lat="47.17138" lon="4.9834">
        <ele>220.9</ele>
        <time>2018-09-18T12:23:53Z</time>
      </trkpt>
      <trkpt lat="47.17132" lon="4.98339">
        <ele>220.9</ele>
        <time>2018-09-18T12:23:56Z</time>
      </trkpt>
      <trkpt lat="47.17128" lon="4.98339">
        <ele>220.9</ele>
        <time>2018-09-18T12:23:59Z</time>
      </trkpt>
      <trkpt lat="47.17123" lon="4.98343">
        <ele>220.8</ele>
        <time>2018-09-18T12:24:05Z</time>
      </trkpt>
      <trkpt lat="47.17118" lon="4.98346">
        <ele>220.8</ele>
        <time>2018-09-18T12:24:10Z</time>
      </trkpt>
      <trkpt lat="47.17114" lon="4.98351">
        <ele>220.7</ele>
        <time>2018-09-18T12:24:15Z</time>
      </trkpt>
      <trkpt lat="47.1711" lon="4.98354">
        <ele>220.6</ele>
        <time>2018-09-18T12:24:19Z</time>
      </trkpt>
      <trkpt lat="47.17107" lon="4.9836">
        <ele>220.5</ele>
        <time>2018-09-18T12:24:22Z</time>
      </trkpt>
      <trkpt lat="47.17104" lon="4.98365">
        <ele>220.3</ele>
        <time>2018-09-18T12:24:25Z</time>
      </trkpt>
      <trkpt lat="47.17102" lon="4.98372">
        <ele>220.2</ele>
        <time>2018-09-18T12:24:29Z</time>
      </trkpt>
      <trkpt lat="47.17101" lon="4.98379">
        <ele>220</ele>
        <time>2018-09-18T12:24:33Z</time>
      </trkpt>
      <trkpt lat="47.17098" lon="4.98385">
        <ele>219.9</ele>
        <time>2018-09-18T12:24:37Z</time>
      </trkpt>
      <trkpt lat="47.17096" lon="4.98393">
        <ele>219.7</ele>
        <time>2018-09-18T12:24:41Z</time>
      </trkpt>
      <trkpt lat="47.17095" lon="4.984">
        <ele>219.5</ele>
        <time>2018-09-18T12:24:45Z</time>
      </trkpt>
      <trkpt lat="47.17097" lon="4.98407">
        <ele>219.4</ele>
        <time>2018-09-18T12:24:49Z</time>
      </trkpt>
      <trkpt lat="47.171" lon="4.98411">
        <ele>219.3</ele>
        <time>2018-09-18T12:24:53Z</time>
      </trkpt>
      <trkpt lat="47.17104" lon="4.98416">
        <ele>219.3</ele>
        <time>2018-09-18T12:24:57Z</time>
      </trkpt>
      <trkpt lat="47.17108" lon="4.98422">
        <ele>219.3</ele>
        <time>2018-09-18T12:25:02Z</time>
      </trkpt>
      <trkpt lat="47.17111" lon="4.98428">
        <ele>219.3</ele>
        <time>2018-09-18T12:25:06Z</time>
      </trkpt>
      <trkpt lat="47.17113" lon="4.98435">
        <ele>219.4</ele>
        <time>2018-09-18T12:25:10Z</time>
      </trkpt>
      <trkpt lat="47.17117" lon="4.98442">
        <ele>219.4</ele>
        <time>2018-09-18T12:25:14Z</time>
      </trkpt>
      <trkpt lat="47.17121" lon="4.98446">
        <ele>219.5</ele>
        <time>2018-09-18T12:25:18Z</time>
      </trkpt>
      <trkpt lat="47.17124" lon="4.9845">
        <ele>219.5</ele>
        <time>2018-09-18T12:25:22Z</time>
      </trkpt>
      <trkpt lat="47.17127" lon="4.98457">
        <ele>219.5</ele>
        <time>2018-09-18T12:25:26Z</time>
      </trkpt>
      <trkpt lat="47.17129" lon="4.98464">
        <ele>219.6</ele>
        <time>2018-09-18T12:25:30Z</time>
      </trkpt>
      <trkpt lat="47.17131" lon="4.9847">
        <ele>219.6</ele>
        <time>2018-09-18T12:25:33Z</time>
      </trkpt>
      <trkpt lat="47.17133" lon="4.98477">
        <ele>219.6</ele>
        <time>2018-09-18T12:25:37Z</time>
      </trkpt>
      <trkpt lat="47.17136" lon="4.98485">
        <ele>219.6</ele>
        <time>2018-09-18T12:25:41Z</time>
      </trkpt>
      <trkpt lat="47.17137" lon="4.98491">
        <ele>219.6</ele>
        <time>2018-09-18T12:25:44Z</time>
      </trkpt>
      <trkpt lat="47.1714" lon="4.98498">
        <ele>219.7</ele>
        <time>2018-09-18T12:25:48Z</time>
      </trkpt>
      <trkpt lat="47.17142" lon="4.98505">
        <ele>219.8</ele>
        <time>2018-09-18T12:25:52Z</time>
      </trkpt>
      <trkpt lat="47.17145" lon="4.98511">
        <ele>219.9</ele>
        <time>2018-09-18T12:25:56Z</time>
      </trkpt>
      <trkpt lat="47.17148" lon="4.98516">
        <ele>220</ele>
        <time>2018-09-18T12:26:00Z</time>
      </trkpt>
      <trkpt lat="47.17151" lon="4.98521">
        <ele>220.1</ele>
        <time>2018-09-18T12:26:04Z</time>
      </trkpt>
      <trkpt lat="47.17155" lon="4.98526">
        <ele>220.2</ele>
        <time>2018-09-18T12:26:09Z</time>
      </trkpt>
      <trkpt lat="47.17158" lon="4.98533">
        <ele>220.3</ele>
        <time>2018-09-18T12:26:14Z</time>
      </trkpt>
      <trkpt lat="47.1716" lon="4.9854">
        <ele>220.4</ele>
        <time>2018-09-18T12:26:19Z</time>
      </trkpt>
      <trkpt lat="47.17163" lon="4.98546">
        <ele>220.5</ele>
        <time>2018-09-18T12:26:24Z</time>
      </trkpt>
      <trkpt lat="47.17165" lon="4.98553">
        <ele>220.6</ele>
        <time>2018-09-18T12:26:29Z</time>
      </trkpt>
      <trkpt lat="47.17166" lon="4.9856">
        <ele>220.7</ele>
        <time>2018-09-18T12:26:33Z</time>
      </trkpt>
      <trkpt lat="47.17166" lon="4.98567">
        <ele>220.8</ele>
        <time>2018-09-18T12:26:37Z</time>
      </trkpt>
      <trkpt lat="47.17166" lon="4.98575">
        <ele>220.9</ele>
        <time>2018-09-18T12:26:41Z</time>
      </trkpt>
      <trkpt lat="47.17166" lon="4.98583">
        <ele>221</ele>
        <time>2018-09-18T12:26:45Z</time>
      </trkpt>
      <trkpt lat="47.17167" lon="4.9859">
        <ele>221</ele>
        <time>2018-09-18T12:26:49Z</time>
      </trkpt>
      <trkpt lat="47.17167" lon="4.98598">
        <ele>221</ele>
        <time>2018-09-18T12:26:54Z</time>
      </trkpt>
      <trkpt lat="47.17168" lon="4.98605">
        <ele>221</ele>
        <time>2018-09-18T12:27:00Z</time>
      </trkpt>
      <trkpt lat="47.17167" lon="4.98612">
        <ele>221</ele>
        <time>2018-09-18T12:27:05Z</time>
      </trkpt>
      <trkpt lat="47.17169" lon="4.98619">
        <ele>221</ele>
        <time>2018-09-18T12:27:11Z</time>
      </trkpt>
      <trkpt lat="47.17169" lon="4.98625">
        <ele>221</ele>
        <time>2018-09-18T12:27:15Z</time>
      </trkpt>
      <trkpt lat="47.17168" lon="4.98633">
        <ele>221</ele>
        <time>2018-09-18T12:27:19Z</time>
      </trkpt>
      <trkpt lat="47.17168" lon="4.9864">
        <ele>221</ele>
        <time>2018-09-18T12:27:23Z</time>
      </trkpt>
      <trkpt lat="47.17167" lon="4.98648">
        <ele>221</ele>
        <time>2018-09-18T12:27:27Z</time>
      </trkpt>
      <trkpt lat="47.17165" lon="4.98656">
        <ele>221</ele>
        <time>2018-09-18T12:27:30Z</time>
      </trkpt>
      <trkpt lat="47.17165" lon="4.98664">
        <ele>221</ele>
        <time>2018-09-18T12:27:34Z</time>
      </trkpt>
      <trkpt lat="47.17164" lon="4.98672">
        <ele>220.8</ele>
        <time>2018-09-18T12:27:38Z</time>
      </trkpt>
      <trkpt lat="47.17164" lon="4.9868">
        <ele>220.6</ele>
        <time>2018-09-18T12:27:42Z</time>
      </trkpt>
      <trkpt lat="47.17164" lon="4.98687">
        <ele>220.5</ele>
        <time>2018-09-18T12:27:46Z</time>
      </trkpt>
      <trkpt lat="47.17164" lon="4.98694">
        <ele>220.3</ele>
        <time>2018-09-18T12:27:50Z</time>
      </trkpt>
      <trkpt lat="47.17164" lon="4.98701">
        <ele>220.1</ele>
        <time>2018-09-18T12:27:54Z</time>
      </trkpt>
      <trkpt lat="47.17162" lon="4.98708">
        <ele>220</ele>
        <time>2018-09-18T12:27:58Z</time>
      </trkpt>
      <trkpt lat="47.17162" lon="4.98716">
        <ele>219.8</ele>
        <time>2018-09-18T12:28:02Z</time>
      </trkpt>
      <trkpt lat="47.17162" lon="4.98723">
        <ele>219.6</ele>
        <time>2018-09-18T12:28:06Z</time>
      </trkpt>
      <trkpt lat="47.17162" lon="4.9873">
        <ele>219.4</ele>
        <time>2018-09-18T12:28:10Z</time>
      </trkpt>
      <trkpt lat="47.17162" lon="4.98737">
        <ele>219.2</ele>
        <time>2018-09-18T12:28:14Z</time>
      </trkpt>
      <trkpt lat="47.17162" lon="4.98744">
        <ele>219.1</ele>
        <time>2018-09-18T12:28:19Z</time>
      </trkpt>
      <trkpt lat="47.17163" lon="4.98752">
        <ele>218.9</ele>
        <time>2018-09-18T12:28:24Z</time>
      </trkpt>
      <trkpt lat="47.17163" lon="4.98759">
        <ele>218.7</ele>
        <time>2018-09-18T12:28:29Z</time>
      </trkpt>
      <trkpt lat="47.17163" lon="4.98766">
        <ele>218.4</ele>
        <time>2018-09-18T12:28:35Z</time>
      </trkpt>
      <trkpt lat="47.17162" lon="4.98773">
        <ele>218.2</ele>
        <time>2018-09-18T12:28:39Z</time>
      </trkpt>
      <trkpt lat="47.1716" lon="4.9878">
        <ele>217.9</ele>
        <time>2018-09-18T12:28:43Z</time>
      </trkpt>
      <trkpt lat="47.1716" lon="4.98788">
        <ele>217.7</ele>
        <time>2018-09-18T12:28:47Z</time>
      </trkpt>
      <trkpt lat="47.1716" lon="4.98796">
        <ele>217.4</ele>
        <time>2018-09-18T12:28:52Z</time>
      </trkpt>
      <trkpt lat="47.17161" lon="4.98803">
        <ele>217.2</ele>
        <time>2018-09-18T12:28:56Z</time>
      </trkpt>
      <trkpt lat="47.1716" lon="4.9881">
        <ele>216.9</ele>
        <time>2018-09-18T12:29:00Z</time>
      </trkpt>
      <trkpt lat="47.1716" lon="4.98818">
        <ele>216.7</ele>
        <time>2018-09-18T12:29:05Z</time>
      </trkpt>
      <trkpt lat="47.17159" lon="4.98825">
        <ele>216.4</ele>
        <time>2018-09-18T12:29:10Z</time>
      </trkpt>
      <trkpt lat="47.17158" lon="4.98833">
        <ele>216.3</ele>
        <time>2018-09-18T12:29:14Z</time>
      </trkpt>
      <trkpt lat="47.17157" lon="4.9884">
        <ele>216.2</ele>
        <time>2018-09-18T12:29:18Z</time>
      </trkpt>
      <trkpt lat="47.17157" lon="4.98847">
        <ele>216.1</ele>
        <time>2018-09-18T12:29:22Z</time>
      </trkpt>
      <trkpt lat="47.17156" lon="4.98855">
        <ele>216</ele>
        <time>2018-09-18T12:29:26Z</time>
      </trkpt>
      <trkpt lat="47.17156" lon="4.98862">
        <ele>215.9</ele>
        <time>2018-09-18T12:29:30Z</time>
      </trkpt>
      <trkpt lat="47.17155" lon="4.98869">
        <ele>215.9</ele>
        <time>2018-09-18T12:29:33Z</time>
      </trkpt>
      <trkpt lat="47.17157" lon="4.98876">
        <ele>215.7</ele>
        <time>2018-09-18T12:29:38Z</time>
      </trkpt>
      <trkpt lat="47.17157" lon="4.98884">
        <ele>215.6</ele>
        <time>2018-09-18T12:29:43Z</time>
      </trkpt>
      <trkpt lat="47.17158" lon="4.98893">
        <ele>215.5</ele>
        <time>2018-09-18T12:29:47Z</time>
      </trkpt>
      <trkpt lat="47.17159" lon="4.989">
        <ele>215.4</ele>
        <time>2018-09-18T12:29:51Z</time>
      </trkpt>
      <trkpt lat="47.17161" lon="4.98906">
        <ele>215.3</ele>
        <time>2018-09-18T12:29:55Z</time>
      </trkpt>
      <trkpt lat="47.17164" lon="4.98912">
        <ele>215.1</ele>
        <time>2018-09-18T12:30:00Z</time>
      </trkpt>
      <trkpt lat="47.17168" lon="4.98917">
        <ele>215</ele>
        <time>2018-09-18T12:30:05Z</time>
      </trkpt>
      <trkpt lat="47.17172" lon="4.98922">
        <ele>215.2</ele>
        <time>2018-09-18T12:30:10Z</time>
      </trkpt>
      <trkpt lat="47.17176" lon="4.98926">
        <ele>215.4</ele>
        <time>2018-09-18T12:30:14Z</time>
      </trkpt>
      <trkpt lat="47.17181" lon="4.9893">
        <ele>215.6</ele>
        <time>2018-09-18T12:30:19Z</time>
      </trkpt>
      <trkpt lat="47.17184" lon="4.98935">
        <ele>215.8</ele>
        <time>2018-09-18T12:30:23Z</time>
      </trkpt>
      <trkpt lat="47.17187" lon="4.98939">
        <ele>215.9</ele>
        <time>2018-09-18T12:30:27Z</time>
      </trkpt>
      <trkpt lat="47.1719" lon="4.98944">
        <ele>216</ele>
        <time>2018-09-18T12:30:31Z</time>
      </trkpt>
      <trkpt lat="47.17195" lon="4.98949">
        <ele>216.1</ele>
        <time>2018-09-18T12:30:35Z</time>
      </trkpt>
      <trkpt lat="47.17198" lon="4.98954">
        <ele>216.2</ele>
        <time>2018-09-18T12:30:39Z</time>
      </trkpt>
      <trkpt lat="47.17202" lon="4.98959">
        <ele>216.3</ele>
        <time>2018-09-18T12:30:43Z</time>
      </trkpt>
      <trkpt lat="47.17205" lon="4.98965">
        <ele>216.4</ele>
        <time>2018-09-18T12:30:47Z</time>
      </trkpt>
      <trkpt lat="47.17207" lon="4.98971">
        <ele>216.5</ele>
        <time>2018-09-18T12:30:51Z</time>
      </trkpt>
      <trkpt lat="47.1721" lon="4.98977">
        <ele>216.5</ele>
        <time>2018-09-18T12:30:55Z</time>
      </trkpt>
      <trkpt lat="47.17214" lon="4.98981">
        <ele>216.6</ele>
        <time>2018-09-18T12:30:59Z</time>
      </trkpt>
      <trkpt lat="47.17218" lon="4.98984">
        <ele>216.7</ele>
        <time>2018-09-18T12:31:03Z</time>
      </trkpt>
      <trkpt lat="47.17221" lon="4.9899">
        <ele>216.7</ele>
        <time>2018-09-18T12:31:08Z</time>
      </trkpt>
      <trkpt lat="47.17224" lon="4.98996">
        <ele>216.7</ele>
        <time>2018-09-18T12:31:13Z</time>
      </trkpt>
      <trkpt lat="47.17229" lon="4.99">
        <ele>216.8</ele>
        <time>2018-09-18T12:31:18Z</time>
      </trkpt>
      <trkpt lat="47.17233" lon="4.99003">
        <ele>216.8</ele>
        <time>2018-09-18T12:31:23Z</time>
      </trkpt>
      <trkpt lat="47.17237" lon="4.99007">
        <ele>216.9</ele>
        <time>2018-09-18T12:31:28Z</time>
      </trkpt>
      <trkpt lat="47.17237" lon="4.99014">
        <ele>217</ele>
        <time>2018-09-18T12:31:34Z</time>
      </trkpt>
      <trkpt lat="47.17238" lon="4.99021">
        <ele>217</ele>
        <time>2018-09-18T12:31:40Z</time>
      </trkpt>
      <trkpt lat="47.17241" lon="4.99027">
        <ele>217.1</ele>
        <time>2018-09-18T12:31:45Z</time>
      </trkpt>
      <trkpt lat="47.17243" lon="4.99033">
        <ele>217.2</ele>
        <time>2018-09-18T12:31:49Z</time>
      </trkpt>
      <trkpt lat="47.17244" lon="4.99041">
        <ele>217.3</ele>
        <time>2018-09-18T12:31:54Z</time>
      </trkpt>
      <trkpt lat="47.17247" lon="4.99047">
        <ele>217.5</ele>
        <time>2018-09-18T12:31:58Z</time>
      </trkpt>
      <trkpt lat="47.1725" lon="4.99054">
        <ele>217.6</ele>
        <time>2018-09-18T12:32:03Z</time>
      </trkpt>
      <trkpt lat="47.17253" lon="4.9906">
        <ele>217.8</ele>
        <time>2018-09-18T12:32:08Z</time>
      </trkpt>
      <trkpt lat="47.17254" lon="4.99067">
        <ele>217.9</ele>
        <time>2018-09-18T12:32:12Z</time>
      </trkpt>
      <trkpt lat="47.17257" lon="4.99074">
        <ele>218.1</ele>
        <time>2018-09-18T12:32:17Z</time>
      </trkpt>
      <trkpt lat="47.17259" lon="4.99079">
        <ele>218.3</ele>
        <time>2018-09-18T12:32:21Z</time>
      </trkpt>
      <trkpt lat="47.17264" lon="4.99084">
        <ele>218.5</ele>
        <time>2018-09-18T12:32:26Z</time>
      </trkpt>
      <trkpt lat="47.17267" lon="4.9909">
        <ele>218.7</ele>
        <time>2018-09-18T12:32:31Z</time>
      </trkpt>
      <trkpt lat="47.1727" lon="4.99097">
        <ele>218.8</ele>
        <time>2018-09-18T12:32:36Z</time>
      </trkpt>
      <trkpt lat="47.17272" lon="4.99102">
        <ele>219</ele>
        <time>2018-09-18T12:32:40Z</time>
      </trkpt>
      <trkpt lat="47.17276" lon="4.99108">
        <ele>219.1</ele>
        <time>2018-09-18T12:32:45Z</time>
      </trkpt>
      <trkpt lat="47.17279" lon="4.99114">
        <ele>219.3</ele>
        <time>2018-09-18T12:32:49Z</time>
      </trkpt>
      <trkpt lat="47.17284" lon="4.99116">
        <ele>219.4</ele>
        <time>2018-09-18T12:32:53Z</time>
      </trkpt>
      <trkpt lat="47.17288" lon="4.99119">
        <ele>219.6</ele>
        <time>2018-09-18T12:32:58Z</time>
      </trkpt>
      <trkpt lat="47.17293" lon="4.9912">
        <ele>219.8</ele>
        <time>2018-09-18T12:33:03Z</time>
      </trkpt>
      <trkpt lat="47.17298" lon="4.9912">
        <ele>219.9</ele>
        <time>2018-09-18T12:33:08Z</time>
      </trkpt>
      <trkpt lat="47.17301" lon="4.99127">
        <ele>220</ele>
        <time>2018-09-18T12:33:15Z</time>
      </trkpt>
      <trkpt lat="47.17298" lon="4.99132">
        <ele>220</ele>
        <time>2018-09-18T12:33:21Z</time>
      </trkpt>
      <trkpt lat="47.17294" lon="4.99137">
        <ele>219.9</ele>
        <time>2018-09-18T12:33:26Z</time>
      </trkpt>
      <trkpt lat="47.17291" lon="4.99143">
        <ele>219.9</ele>
        <time>2018-09-18T12:33:32Z</time>
      </trkpt>
      <trkpt lat="47.17289" lon="4.9915">
        <ele>219.8</ele>
        <time>2018-09-18T12:33:38Z</time>
      </trkpt>
      <trkpt lat="47.17286" lon="4.99157">
        <ele>219.8</ele>
        <time>2018-09-18T12:33:43Z</time>
      </trkpt>
      <trkpt lat="47.17284" lon="4.99162">
        <ele>219.8</ele>
        <time>2018-09-18T12:33:47Z</time>
      </trkpt>
      <trkpt lat="47.17281" lon="4.99168">
        <ele>219.8</ele>
        <time>2018-09-18T12:33:51Z</time>
      </trkpt>
      <trkpt lat="47.17278" lon="4.99175">
        <ele>219.8</ele>
        <time>2018-09-18T12:33:56Z</time>
      </trkpt>
      <trkpt lat="47.17276" lon="4.99183">
        <ele>219.9</ele>
        <time>2018-09-18T12:34:01Z</time>
      </trkpt>
      <trkpt lat="47.17275" lon="4.9919">
        <ele>220.1</ele>
        <time>2018-09-18T12:34:05Z</time>
      </trkpt>
      <trkpt lat="47.17272" lon="4.99195">
        <ele>220.1</ele>
        <time>2018-09-18T12:34:09Z</time>
      </trkpt>
      <trkpt lat="47.17269" lon="4.99202">
        <ele>220.2</ele>
        <time>2018-09-18T12:34:14Z</time>
      </trkpt>
      <trkpt lat="47.17267" lon="4.99209">
        <ele>220.3</ele>
        <time>2018-09-18T12:34:19Z</time>
      </trkpt>
      <trkpt lat="47.17264" lon="4.99214">
        <ele>220.4</ele>
        <time>2018-09-18T12:34:24Z</time>
      </trkpt>
      <trkpt lat="47.17262" lon="4.9922">
        <ele>220.5</ele>
        <time>2018-09-18T12:34:30Z</time>
      </trkpt>
      <trkpt lat="47.17259" lon="4.99225">
        <ele>220.5</ele>
        <time>2018-09-18T12:34:35Z</time>
      </trkpt>
      <trkpt lat="47.17256" lon="4.9923">
        <ele>220.6</ele>
        <time>2018-09-18T12:34:40Z</time>
      </trkpt>
      <trkpt lat="47.17252" lon="4.99236">
        <ele>220.7</ele>
        <time>2018-09-18T12:34:45Z</time>
      </trkpt>
      <trkpt lat="47.17249" lon="4.99243">
        <ele>220.8</ele>
        <time>2018-09-18T12:34:50Z</time>
      </trkpt>
      <trkpt lat="47.17245" lon="4.99248">
        <ele>220.7</ele>
        <time>2018-09-18T12:34:55Z</time>
      </trkpt>
      <trkpt lat="47.17241" lon="4.99252">
        <ele>220.6</ele>
        <time>2018-09-18T12:34:59Z</time>
      </trkpt>
      <trkpt lat="47.17238" lon="4.99258">
        <ele>220.4</ele>
        <time>2018-09-18T12:35:04Z</time>
      </trkpt>
      <trkpt lat="47.17236" lon="4.99264">
        <ele>220.2</ele>
        <time>2018-09-18T12:35:09Z</time>
      </trkpt>
      <trkpt lat="47.17234" lon="4.99271">
        <ele>220.1</ele>
        <time>2018-09-18T12:35:14Z</time>
      </trkpt>
      <trkpt lat="47.17231" lon="4.99275">
        <ele>219.9</ele>
        <time>2018-09-18T12:35:18Z</time>
      </trkpt>
      <trkpt lat="47.17226" lon="4.99279">
        <ele>219.7</ele>
        <time>2018-09-18T12:35:22Z</time>
      </trkpt>
      <trkpt lat="47.17223" lon="4.99284">
        <ele>219.5</ele>
        <time>2018-09-18T12:35:26Z</time>
      </trkpt>
      <trkpt lat="47.17218" lon="4.99289">
        <ele>219.4</ele>
        <time>2018-09-18T12:35:30Z</time>
      </trkpt>
      <trkpt lat="47.17214" lon="4.99295">
        <ele>219.2</ele>
        <time>2018-09-18T12:35:35Z</time>
      </trkpt>
      <trkpt lat="47.17212" lon="4.993">
        <ele>219.1</ele>
        <time>2018-09-18T12:35:39Z</time>
      </trkpt>
      <trkpt lat="47.17209" lon="4.99307">
        <ele>219</ele>
        <time>2018-09-18T12:35:44Z</time>
      </trkpt>
      <trkpt lat="47.17206" lon="4.99313">
        <ele>218.9</ele>
        <time>2018-09-18T12:35:48Z</time>
      </trkpt>
      <trkpt lat="47.17204" lon="4.9932">
        <ele>218.9</ele>
        <time>2018-09-18T12:35:53Z</time>
      </trkpt>
      <trkpt lat="47.17201" lon="4.99327">
        <ele>218.8</ele>
        <time>2018-09-18T12:35:58Z</time>
      </trkpt>
      <trkpt lat="47.17198" lon="4.99332">
        <ele>218.7</ele>
        <time>2018-09-18T12:36:03Z</time>
      </trkpt>
      <trkpt lat="47.17195" lon="4.99337">
        <ele>218.7</ele>
        <time>2018-09-18T12:36:08Z</time>
      </trkpt>
      <trkpt lat="47.17193" lon="4.99344">
        <ele>218.6</ele>
        <time>2018-09-18T12:36:13Z</time>
      </trkpt>
      <trkpt lat="47.17191" lon="4.99352">
        <ele>218.6</ele>
        <time>2018-09-18T12:36:19Z</time>
      </trkpt>
      <trkpt lat="47.1719" lon="4.9936">
        <ele>218.6</ele>
        <time>2018-09-18T12:36:23Z</time>
      </trkpt>
      <trkpt lat="47.17189" lon="4.99367">
        <ele>218.5</ele>
        <time>2018-09-18T12:36:26Z</time>
      </trkpt>
      <trkpt lat="47.17188" lon="4.99374">
        <ele>218.5</ele>
        <time>2018-09-18T12:36:29Z</time>
      </trkpt>
      <trkpt lat="47.17185" lon="4.99379">
        <ele>218.4</ele>
        <time>2018-09-18T12:36:33Z</time>
      </trkpt>
      <trkpt lat="47.17182" lon="4.99386">
        <ele>218.4</ele>
        <time>2018-09-18T12:36:38Z</time>
      </trkpt>
      <trkpt lat="47.17181" lon="4.99394">
        <ele>218.4</ele>
        <time>2018-09-18T12:36:42Z</time>
      </trkpt>
      <trkpt lat="47.17181" lon="4.99401">
        <ele>218.4</ele>
        <time>2018-09-18T12:36:47Z</time>
      </trkpt>
      <trkpt lat="47.17179" lon="4.99408">
        <ele>218.3</ele>
        <time>2018-09-18T12:36:52Z</time>
      </trkpt>
      <trkpt lat="47.17175" lon="4.99414">
        <ele>218.2</ele>
        <time>2018-09-18T12:36:56Z</time>
      </trkpt>
      <trkpt lat="47.17172" lon="4.9942">
        <ele>218.1</ele>
        <time>2018-09-18T12:37:00Z</time>
      </trkpt>
      <trkpt lat="47.17168" lon="4.99425">
        <ele>218</ele>
        <time>2018-09-18T12:37:05Z</time>
      </trkpt>
      <trkpt lat="47.17166" lon="4.99433">
        <ele>218</ele>
        <time>2018-09-18T12:37:10Z</time>
      </trkpt>
      <trkpt lat="47.17164" lon="4.9944">
        <ele>217.9</ele>
        <time>2018-09-18T12:37:15Z</time>
      </trkpt>
      <trkpt lat="47.17163" lon="4.99448">
        <ele>217.9</ele>
        <time>2018-09-18T12:37:20Z</time>
      </trkpt>
      <trkpt lat="47.17161" lon="4.99456">
        <ele>217.8</ele>
        <time>2018-09-18T12:37:25Z</time>
      </trkpt>
      <trkpt lat="47.1716" lon="4.99463">
        <ele>217.8</ele>
        <time>2018-09-18T12:37:29Z</time>
      </trkpt>
      <trkpt lat="47.17158" lon="4.9947">
        <ele>217.7</ele>
        <time>2018-09-18T12:37:34Z</time>
      </trkpt>
      <trkpt lat="47.17155" lon="4.99476">
        <ele>217.6</ele>
        <time>2018-09-18T12:37:39Z</time>
      </trkpt>
      <trkpt lat="47.17154" lon="4.99483">
        <ele>217.6</ele>
        <time>2018-09-18T12:37:44Z</time>
      </trkpt>
      <trkpt lat="47.17154" lon="4.9949">
        <ele>217.6</ele>
        <time>2018-09-18T12:37:48Z</time>
      </trkpt>
      <trkpt lat="47.17154" lon="4.99498">
        <ele>217.5</ele>
        <time>2018-09-18T12:37:52Z</time>
      </trkpt>
      <trkpt lat="47.17154" lon="4.99506">
        <ele>217.5</ele>
        <time>2018-09-18T12:37:56Z</time>
      </trkpt>
      <trkpt lat="47.17154" lon="4.99514">
        <ele>217.4</ele>
        <time>2018-09-18T12:38:01Z</time>
      </trkpt>
      <trkpt lat="47.17154" lon="4.99522">
        <ele>217.3</ele>
        <time>2018-09-18T12:38:06Z</time>
      </trkpt>
      <trkpt lat="47.17153" lon="4.99528">
        <ele>217.2</ele>
        <time>2018-09-18T12:38:10Z</time>
      </trkpt>
      <trkpt lat="47.17154" lon="4.99536">
        <ele>217.2</ele>
        <time>2018-09-18T12:38:14Z</time>
      </trkpt>
      <trkpt lat="47.17155" lon="4.99543">
        <ele>217.1</ele>
        <time>2018-09-18T12:38:19Z</time>
      </trkpt>
      <trkpt lat="47.17155" lon="4.9955">
        <ele>217.1</ele>
        <time>2018-09-18T12:38:34Z</time>
      </trkpt>
      <trkpt lat="47.17158" lon="4.99557">
        <ele>217.1</ele>
        <time>2018-09-18T12:38:48Z</time>
      </trkpt>
      <trkpt lat="47.1716" lon="4.99565">
        <ele>217.1</ele>
        <time>2018-09-18T12:38:52Z</time>
      </trkpt>
      <trkpt lat="47.1716" lon="4.99573">
        <ele>217</ele>
        <time>2018-09-18T12:38:57Z</time>
      </trkpt>
      <trkpt lat="47.1716" lon="4.9958">
        <ele>216.9</ele>
        <time>2018-09-18T12:39:02Z</time>
      </trkpt>
      <trkpt lat="47.1716" lon="4.99589">
        <ele>216.8</ele>
        <time>2018-09-18T12:39:07Z</time>
      </trkpt>
      <trkpt lat="47.1716" lon="4.99597">
        <ele>216.8</ele>
        <time>2018-09-18T12:39:13Z</time>
      </trkpt>
      <trkpt lat="47.1716" lon="4.99604">
        <ele>216.8</ele>
        <time>2018-09-18T12:39:18Z</time>
      </trkpt>
      <trkpt lat="47.1716" lon="4.99611">
        <ele>216.8</ele>
        <time>2018-09-18T12:39:25Z</time>
      </trkpt>
      <trkpt lat="47.17161" lon="4.99618">
        <ele>216.8</ele>
        <time>2018-09-18T12:39:29Z</time>
      </trkpt>
      <trkpt lat="47.17161" lon="4.99625">
        <ele>216.8</ele>
        <time>2018-09-18T12:39:33Z</time>
      </trkpt>
      <trkpt lat="47.17162" lon="4.99632">
        <ele>216.8</ele>
        <time>2018-09-18T12:39:37Z</time>
      </trkpt>
      <trkpt lat="47.17162" lon="4.99639">
        <ele>216.8</ele>
        <time>2018-09-18T12:39:41Z</time>
      </trkpt>
      <trkpt lat="47.17162" lon="4.99646">
        <ele>216.8</ele>
        <time>2018-09-18T12:39:45Z</time>
      </trkpt>
      <trkpt lat="47.17162" lon="4.99654">
        <ele>216.8</ele>
        <time>2018-09-18T12:39:51Z</time>
      </trkpt>
      <trkpt lat="47.17161" lon="4.99661">
        <ele>216.8</ele>
        <time>2018-09-18T12:39:57Z</time>
      </trkpt>
      <trkpt lat="47.17161" lon="4.99668">
        <ele>216.8</ele>
        <time>2018-09-18T12:40:02Z</time>
      </trkpt>
      <trkpt lat="47.1716" lon="4.99676">
        <ele>216.6</ele>
        <time>2018-09-18T12:40:08Z</time>
      </trkpt>
      <trkpt lat="47.1716" lon="4.99683">
        <ele>216.6</ele>
        <time>2018-09-18T12:40:12Z</time>
      </trkpt>
      <trkpt lat="47.17159" lon="4.9969">
        <ele>216.5</ele>
        <time>2018-09-18T12:40:15Z</time>
      </trkpt>
      <trkpt lat="47.17159" lon="4.99698">
        <ele>216.4</ele>
        <time>2018-09-18T12:40:25Z</time>
      </trkpt>
      <trkpt lat="47.1716" lon="4.99706">
        <ele>216.3</ele>
        <time>2018-09-18T12:40:30Z</time>
      </trkpt>
      <trkpt lat="47.1716" lon="4.99712">
        <ele>216.2</ele>
        <time>2018-09-18T12:40:34Z</time>
      </trkpt>
      <trkpt lat="47.1716" lon="4.9972">
        <ele>216.1</ele>
        <time>2018-09-18T12:40:38Z</time>
      </trkpt>
      <trkpt lat="47.1716" lon="4.99727">
        <ele>216</ele>
        <time>2018-09-18T12:40:44Z</time>
      </trkpt>
      <trkpt lat="47.1716" lon="4.99735">
        <ele>216</ele>
        <time>2018-09-18T12:40:49Z</time>
      </trkpt>
      <trkpt lat="47.17161" lon="4.99742">
        <ele>215.9</ele>
        <time>2018-09-18T12:40:53Z</time>
      </trkpt>
      <trkpt lat="47.1716" lon="4.99749">
        <ele>215.8</ele>
        <time>2018-09-18T12:40:59Z</time>
      </trkpt>
      <trkpt lat="47.17158" lon="4.99759">
        <ele>215.6</ele>
        <time>2018-09-18T12:41:07Z</time>
      </trkpt>
      <trkpt lat="47.17157" lon="4.99766">
        <ele>215.5</ele>
        <time>2018-09-18T12:41:11Z</time>
      </trkpt>
      <trkpt lat="47.17158" lon="4.99773">
        <ele>215.4</ele>
        <time>2018-09-18T12:41:15Z</time>
      </trkpt>
      <trkpt lat="47.17157" lon="4.9978">
        <ele>215.3</ele>
        <time>2018-09-18T12:41:19Z</time>
      </trkpt>
      <trkpt lat="47.17156" lon="4.99787">
        <ele>215.3</ele>
        <time>2018-09-18T12:41:23Z</time>
      </trkpt>
      <trkpt lat="47.17154" lon="4.99795">
        <ele>215.1</ele>
        <time>2018-09-18T12:41:28Z</time>
      </trkpt>
      <trkpt lat="47.17153" lon="4.99801">
        <ele>215</ele>
        <time>2018-09-18T12:41:35Z</time>
      </trkpt>
      <trkpt lat="47.17153" lon="4.99808">
        <ele>214.9</ele>
        <time>2018-09-18T12:41:56Z</time>
      </trkpt>
      <trkpt lat="47.17152" lon="4.99815">
        <ele>214.8</ele>
        <time>2018-09-18T12:42:59Z</time>
      </trkpt>
      <trkpt lat="47.17153" lon="4.99823">
        <ele>214.8</ele>
        <time>2018-09-18T12:43:04Z</time>
      </trkpt>
      <trkpt lat="47.17155" lon="4.99831">
        <ele>214.7</ele>
        <time>2018-09-18T12:43:09Z</time>
      </trkpt>
      <trkpt lat="47.17155" lon="4.99838">
        <ele>214.7</ele>
        <time>2018-09-18T12:43:14Z</time>
      </trkpt>
      <trkpt lat="47.17156" lon="4.99846">
        <ele>214.8</ele>
        <time>2018-09-18T12:43:19Z</time>
      </trkpt>
      <trkpt lat="47.17155" lon="4.99853">
        <ele>214.8</ele>
        <time>2018-09-18T12:43:23Z</time>
      </trkpt>
      <trkpt lat="47.17156" lon="4.9986">
        <ele>214.8</ele>
        <time>2018-09-18T12:43:28Z</time>
      </trkpt>
      <trkpt lat="47.17156" lon="4.99867">
        <ele>214.8</ele>
        <time>2018-09-18T12:43:33Z</time>
      </trkpt>
      <trkpt lat="47.17157" lon="4.99874">
        <ele>214.8</ele>
        <time>2018-09-18T12:43:39Z</time>
      </trkpt>
      <trkpt lat="47.17158" lon="4.99882">
        <ele>214.9</ele>
        <time>2018-09-18T12:43:44Z</time>
      </trkpt>
      <trkpt lat="47.1716" lon="4.99889">
        <ele>214.9</ele>
        <time>2018-09-18T12:43:48Z</time>
      </trkpt>
      <trkpt lat="47.1716" lon="4.99896">
        <ele>214.9</ele>
        <time>2018-09-18T12:43:52Z</time>
      </trkpt>
      <trkpt lat="47.17161" lon="4.99903">
        <ele>214.9</ele>
        <time>2018-09-18T12:43:56Z</time>
      </trkpt>
      <trkpt lat="47.17164" lon="4.99909">
        <ele>215</ele>
        <time>2018-09-18T12:44:00Z</time>
      </trkpt>
      <trkpt lat="47.17165" lon="4.99916">
        <ele>215</ele>
        <time>2018-09-18T12:44:04Z</time>
      </trkpt>
      <trkpt lat="47.17165" lon="4.99923">
        <ele>215.2</ele>
        <time>2018-09-18T12:44:08Z</time>
      </trkpt>
      <trkpt lat="47.17167" lon="4.99931">
        <ele>215.5</ele>
        <time>2018-09-18T12:44:13Z</time>
      </trkpt>
      <trkpt lat="47.17168" lon="4.99938">
        <ele>215.7</ele>
        <time>2018-09-18T12:44:17Z</time>
      </trkpt>
      <trkpt lat="47.17168" lon="4.99945">
        <ele>216</ele>
        <time>2018-09-18T12:44:21Z</time>
      </trkpt>
      <trkpt lat="47.1717" lon="4.99952">
        <ele>216.2</ele>
        <time>2018-09-18T12:44:25Z</time>
      </trkpt>
      <trkpt lat="47.17171" lon="4.99959">
        <ele>216.4</ele>
        <time>2018-09-18T12:44:30Z</time>
      </trkpt>
      <trkpt lat="47.17172" lon="4.99966">
        <ele>216.7</ele>
        <time>2018-09-18T12:44:34Z</time>
      </trkpt>
      <trkpt lat="47.17174" lon="4.99973">
        <ele>216.9</ele>
        <time>2018-09-18T12:44:39Z</time>
      </trkpt>
      <trkpt lat="47.17174" lon="4.9998">
        <ele>217.1</ele>
        <time>2018-09-18T12:44:44Z</time>
      </trkpt>
      <trkpt lat="47.17175" lon="4.99987">
        <ele>217.3</ele>
        <time>2018-09-18T12:44:49Z</time>
      </trkpt>
      <trkpt lat="47.17177" lon="4.99993">
        <ele>217.5</ele>
        <time>2018-09-18T12:44:54Z</time>
      </trkpt>
      <trkpt lat="47.17178" lon="5.00001">
        <ele>217.7</ele>
        <time>2018-09-18T12:45:00Z</time>
      </trkpt>
      <trkpt lat="47.17179" lon="5.00008">
        <ele>217.6</ele>
        <time>2018-09-18T12:45:05Z</time>
      </trkpt>
      <trkpt lat="47.17179" lon="5.00016">
        <ele>217.6</ele>
        <time>2018-09-18T12:45:10Z</time>
      </trkpt>
      <trkpt lat="47.1718" lon="5.00023">
        <ele>217.5</ele>
        <time>2018-09-18T12:45:14Z</time>
      </trkpt>
      <trkpt lat="47.1718" lon="5.0003">
        <ele>217.5</ele>
        <time>2018-09-18T12:45:18Z</time>
      </trkpt>
      <trkpt lat="47.1718" lon="5.00037">
        <ele>217.4</ele>
        <time>2018-09-18T12:45:22Z</time>
      </trkpt>
      <trkpt lat="47.17181" lon="5.00044">
        <ele>217.4</ele>
        <time>2018-09-18T12:45:26Z</time>
      </trkpt>
      <trkpt lat="47.1718" lon="5.00051">
        <ele>217.4</ele>
        <time>2018-09-18T12:45:31Z</time>
      </trkpt>
      <trkpt lat="47.1718" lon="5.00059">
        <ele>217.3</ele>
        <time>2018-09-18T12:45:36Z</time>
      </trkpt>
      <trkpt lat="47.1718" lon="5.00066">
        <ele>217.3</ele>
        <time>2018-09-18T12:45:41Z</time>
      </trkpt>
      <trkpt lat="47.17181" lon="5.00074">
        <ele>217.2</ele>
        <time>2018-09-18T12:45:48Z</time>
      </trkpt>
      <trkpt lat="47.1718" lon="5.00081">
        <ele>217.2</ele>
        <time>2018-09-18T12:45:55Z</time>
      </trkpt>
      <trkpt lat="47.17181" lon="5.00088">
        <ele>217</ele>
        <time>2018-09-18T12:46:00Z</time>
      </trkpt>
      <trkpt lat="47.17181" lon="5.00096">
        <ele>216.8</ele>
        <time>2018-09-18T12:46:05Z</time>
      </trkpt>
      <trkpt lat="47.17181" lon="5.00104">
        <ele>216.5</ele>
        <time>2018-09-18T12:46:09Z</time>
      </trkpt>
      <trkpt lat="47.1718" lon="5.00111">
        <ele>216.2</ele>
        <time>2018-09-18T12:46:13Z</time>
      </trkpt>
      <trkpt lat="47.1718" lon="5.00119">
        <ele>215.9</ele>
        <time>2018-09-18T12:46:18Z</time>
      </trkpt>
      <trkpt lat="47.1718" lon="5.00126">
        <ele>215.6</ele>
        <time>2018-09-18T12:46:22Z</time>
      </trkpt>
      <trkpt lat="47.1718" lon="5.00135">
        <ele>215.3</ele>
        <time>2018-09-18T12:46:26Z</time>
      </trkpt>
      <trkpt lat="47.17179" lon="5.00143">
        <ele>215</ele>
        <time>2018-09-18T12:46:29Z</time>
      </trkpt>
      <trkpt lat="47.17178" lon="5.00149">
        <ele>214.8</ele>
        <time>2018-09-18T12:46:32Z</time>
      </trkpt>
      <trkpt lat="47.17178" lon="5.00157">
        <ele>214.5</ele>
        <time>2018-09-18T12:46:36Z</time>
      </trkpt>
      <trkpt lat="47.17177" lon="5.00164">
        <ele>214.2</ele>
        <time>2018-09-18T12:46:40Z</time>
      </trkpt>
      <trkpt lat="47.17177" lon="5.00172">
        <ele>214.2</ele>
        <time>2018-09-18T12:46:44Z</time>
      </trkpt>
      <trkpt lat="47.17177" lon="5.0018">
        <ele>214.3</ele>
        <time>2018-09-18T12:46:48Z</time>
      </trkpt>
      <trkpt lat="47.17177" lon="5.00188">
        <ele>214.3</ele>
        <time>2018-09-18T12:46:52Z</time>
      </trkpt>
      <trkpt lat="47.17178" lon="5.00195">
        <ele>214.4</ele>
        <time>2018-09-18T12:46:56Z</time>
      </trkpt>
      <trkpt lat="47.17178" lon="5.00202">
        <ele>214.5</ele>
        <time>2018-09-18T12:47:00Z</time>
      </trkpt>
      <trkpt lat="47.17179" lon="5.00209">
        <ele>214.6</ele>
        <time>2018-09-18T12:47:04Z</time>
      </trkpt>
      <trkpt lat="47.17179" lon="5.00217">
        <ele>214.7</ele>
        <time>2018-09-18T12:47:09Z</time>
      </trkpt>
      <trkpt lat="47.1718" lon="5.00225">
        <ele>214.8</ele>
        <time>2018-09-18T12:47:14Z</time>
      </trkpt>
      <trkpt lat="47.17181" lon="5.00233">
        <ele>214.8</ele>
        <time>2018-09-18T12:47:19Z</time>
      </trkpt>
      <trkpt lat="47.17181" lon="5.00241">
        <ele>214.9</ele>
        <time>2018-09-18T12:47:23Z</time>
      </trkpt>
      <trkpt lat="47.17181" lon="5.00249">
        <ele>215</ele>
        <time>2018-09-18T12:47:27Z</time>
      </trkpt>
      <trkpt lat="47.17181" lon="5.00256">
        <ele>214.9</ele>
        <time>2018-09-18T12:47:31Z</time>
      </trkpt>
      <trkpt lat="47.17182" lon="5.00264">
        <ele>214.9</ele>
        <time>2018-09-18T12:47:36Z</time>
      </trkpt>
      <trkpt lat="47.17183" lon="5.00271">
        <ele>214.8</ele>
        <time>2018-09-18T12:47:40Z</time>
      </trkpt>
      <trkpt lat="47.17183" lon="5.00278">
        <ele>214.7</ele>
        <time>2018-09-18T12:47:44Z</time>
      </trkpt>
      <trkpt lat="47.17184" lon="5.00286">
        <ele>214.7</ele>
        <time>2018-09-18T12:47:48Z</time>
      </trkpt>
      <trkpt lat="47.17186" lon="5.00294">
        <ele>214.6</ele>
        <time>2018-09-18T12:47:53Z</time>
      </trkpt>
      <trkpt lat="47.17187" lon="5.00301">
        <ele>214.5</ele>
        <time>2018-09-18T12:47:57Z</time>
      </trkpt>
      <trkpt lat="47.17188" lon="5.00308">
        <ele>214.5</ele>
        <time>2018-09-18T12:48:01Z</time>
      </trkpt>
      <trkpt lat="47.17189" lon="5.00315">
        <ele>214.4</ele>
        <time>2018-09-18T12:48:05Z</time>
      </trkpt>
      <trkpt lat="47.1719" lon="5.00323">
        <ele>214.4</ele>
        <time>2018-09-18T12:48:10Z</time>
      </trkpt>
      <trkpt lat="47.1719" lon="5.00332">
        <ele>214.3</ele>
        <time>2018-09-18T12:48:14Z</time>
      </trkpt>
      <trkpt lat="47.17191" lon="5.0034">
        <ele>214.3</ele>
        <time>2018-09-18T12:48:18Z</time>
      </trkpt>
      <trkpt lat="47.17193" lon="5.00346">
        <ele>214.3</ele>
        <time>2018-09-18T12:48:22Z</time>
      </trkpt>
      <trkpt lat="47.17194" lon="5.00354">
        <ele>214.3</ele>
        <time>2018-09-18T12:48:26Z</time>
      </trkpt>
      <trkpt lat="47.17195" lon="5.00361">
        <ele>214.3</ele>
        <time>2018-09-18T12:48:30Z</time>
      </trkpt>
      <trkpt lat="47.17196" lon="5.00367">
        <ele>214.4</ele>
        <time>2018-09-18T12:48:34Z</time>
      </trkpt>
      <trkpt lat="47.17197" lon="5.00374">
        <ele>214.4</ele>
        <time>2018-09-18T12:48:40Z</time>
      </trkpt>
      <trkpt lat="47.17201" lon="5.0038">
        <ele>214.4</ele>
        <time>2018-09-18T12:48:45Z</time>
      </trkpt>
      <trkpt lat="47.17202" lon="5.00386">
        <ele>214.4</ele>
        <time>2018-09-18T12:48:49Z</time>
      </trkpt>
      <trkpt lat="47.17201" lon="5.00393">
        <ele>214.4</ele>
        <time>2018-09-18T12:48:53Z</time>
      </trkpt>
      <trkpt lat="47.17203" lon="5.00399">
        <ele>214.4</ele>
        <time>2018-09-18T12:48:57Z</time>
      </trkpt>
      <trkpt lat="47.17206" lon="5.00406">
        <ele>214.5</ele>
        <time>2018-09-18T12:49:02Z</time>
      </trkpt>
      <trkpt lat="47.17207" lon="5.00413">
        <ele>214.5</ele>
        <time>2018-09-18T12:49:07Z</time>
      </trkpt>
      <trkpt lat="47.17209" lon="5.00419">
        <ele>214.5</ele>
        <time>2018-09-18T12:49:11Z</time>
      </trkpt>
      <trkpt lat="47.17211" lon="5.00425">
        <ele>214.4</ele>
        <time>2018-09-18T12:49:15Z</time>
      </trkpt>
      <trkpt lat="47.17212" lon="5.00432">
        <ele>214.4</ele>
        <time>2018-09-18T12:49:19Z</time>
      </trkpt>
      <trkpt lat="47.17213" lon="5.00439">
        <ele>214.3</ele>
        <time>2018-09-18T12:49:23Z</time>
      </trkpt>
      <trkpt lat="47.17215" lon="5.00446">
        <ele>214.2</ele>
        <time>2018-09-18T12:49:27Z</time>
      </trkpt>
      <trkpt lat="47.17216" lon="5.00453">
        <ele>214.2</ele>
        <time>2018-09-18T12:49:31Z</time>
      </trkpt>
      <trkpt lat="47.17217" lon="5.0046">
        <ele>214.1</ele>
        <time>2018-09-18T12:49:35Z</time>
      </trkpt>
      <trkpt lat="47.17218" lon="5.00466">
        <ele>214</ele>
        <time>2018-09-18T12:49:39Z</time>
      </trkpt>
      <trkpt lat="47.17218" lon="5.00474">
        <ele>213.9</ele>
        <time>2018-09-18T12:49:43Z</time>
      </trkpt>
      <trkpt lat="47.17219" lon="5.00482">
        <ele>213.8</ele>
        <time>2018-09-18T12:49:47Z</time>
      </trkpt>
      <trkpt lat="47.1722" lon="5.00489">
        <ele>213.8</ele>
        <time>2018-09-18T12:49:51Z</time>
      </trkpt>
      <trkpt lat="47.17221" lon="5.00496">
        <ele>213.7</ele>
        <time>2018-09-18T12:49:55Z</time>
      </trkpt>
      <trkpt lat="47.17223" lon="5.00503">
        <ele>213.7</ele>
        <time>2018-09-18T12:49:59Z</time>
      </trkpt>
      <trkpt lat="47.17224" lon="5.00509">
        <ele>213.7</ele>
        <time>2018-09-18T12:50:03Z</time>
      </trkpt>
      <trkpt lat="47.17225" lon="5.00516">
        <ele>213.7</ele>
        <time>2018-09-18T12:50:07Z</time>
      </trkpt>
      <trkpt lat="47.17228" lon="5.00523">
        <ele>213.7</ele>
        <time>2018-09-18T12:50:12Z</time>
      </trkpt>
      <trkpt lat="47.17228" lon="5.0053">
        <ele>213.7</ele>
        <time>2018-09-18T12:50:16Z</time>
      </trkpt>
      <trkpt lat="47.17229" lon="5.00537">
        <ele>213.8</ele>
        <time>2018-09-18T12:50:20Z</time>
      </trkpt>
      <trkpt lat="47.17231" lon="5.00544">
        <ele>213.8</ele>
        <time>2018-09-18T12:50:24Z</time>
      </trkpt>
      <trkpt lat="47.17233" lon="5.00551">
        <ele>213.8</ele>
        <time>2018-09-18T12:50:28Z</time>
      </trkpt>
      <trkpt lat="47.17234" lon="5.00559">
        <ele>213.8</ele>
        <time>2018-09-18T12:50:32Z</time>
      </trkpt>
      <trkpt lat="47.17235" lon="5.00565">
        <ele>213.8</ele>
        <time>2018-09-18T12:50:36Z</time>
      </trkpt>
      <trkpt lat="47.17234" lon="5.00573">
        <ele>213.8</ele>
        <time>2018-09-18T12:50:40Z</time>
      </trkpt>
      <trkpt lat="47.17235" lon="5.00581">
        <ele>213.8</ele>
        <time>2018-09-18T12:50:44Z</time>
      </trkpt>
      <trkpt lat="47.17237" lon="5.00587">
        <ele>213.8</ele>
        <time>2018-09-18T12:50:49Z</time>
      </trkpt>
      <trkpt lat="47.17239" lon="5.00595">
        <ele>213.8</ele>
        <time>2018-09-18T12:50:54Z</time>
      </trkpt>
      <trkpt lat="47.17239" lon="5.00603">
        <ele>213.8</ele>
        <time>2018-09-18T12:50:58Z</time>
      </trkpt>
      <trkpt lat="47.1724" lon="5.0061">
        <ele>213.8</ele>
        <time>2018-09-18T12:51:02Z</time>
      </trkpt>
      <trkpt lat="47.17242" lon="5.00618">
        <ele>213.9</ele>
        <time>2018-09-18T12:51:07Z</time>
      </trkpt>
      <trkpt lat="47.17242" lon="5.00625">
        <ele>213.9</ele>
        <time>2018-09-18T12:51:12Z</time>
      </trkpt>
      <trkpt lat="47.17243" lon="5.00632">
        <ele>213.9</ele>
        <time>2018-09-18T12:51:16Z</time>
      </trkpt>
      <trkpt lat="47.17244" lon="5.00639">
        <ele>213.9</ele>
        <time>2018-09-18T12:51:20Z</time>
      </trkpt>
      <trkpt lat="47.17244" lon="5.00647">
        <ele>213.9</ele>
        <time>2018-09-18T12:51:24Z</time>
      </trkpt>
      <trkpt lat="47.17244" lon="5.00655">
        <ele>213.9</ele>
        <time>2018-09-18T12:51:28Z</time>
      </trkpt>
      <trkpt lat="47.17245" lon="5.00663">
        <ele>213.9</ele>
        <time>2018-09-18T12:51:32Z</time>
      </trkpt>
      <trkpt lat="47.17245" lon="5.0067">
        <ele>213.9</ele>
        <time>2018-09-18T12:51:36Z</time>
      </trkpt>
      <trkpt lat="47.17247" lon="5.00677">
        <ele>213.9</ele>
        <time>2018-09-18T12:51:40Z</time>
      </trkpt>
      <trkpt lat="47.17249" lon="5.00685">
        <ele>214</ele>
        <time>2018-09-18T12:51:44Z</time>
      </trkpt>
      <trkpt lat="47.1725" lon="5.00692">
        <ele>214</ele>
        <time>2018-09-18T12:51:48Z</time>
      </trkpt>
      <trkpt lat="47.17251" lon="5.007">
        <ele>214</ele>
        <time>2018-09-18T12:51:52Z</time>
      </trkpt>
      <trkpt lat="47.17252" lon="5.00708">
        <ele>214.1</ele>
        <time>2018-09-18T12:51:56Z</time>
      </trkpt>
      <trkpt lat="47.17254" lon="5.00715">
        <ele>214.1</ele>
        <time>2018-09-18T12:52:00Z</time>
      </trkpt>
      <trkpt lat="47.17257" lon="5.00722">
        <ele>214.2</ele>
        <time>2018-09-18T12:52:05Z</time>
      </trkpt>
      <trkpt lat="47.17258" lon="5.00729">
        <ele>214.2</ele>
        <time>2018-09-18T12:52:10Z</time>
      </trkpt>
      <trkpt lat="47.1726" lon="5.00735">
        <ele>214.3</ele>
        <time>2018-09-18T12:52:15Z</time>
      </trkpt>
      <trkpt lat="47.17262" lon="5.00742">
        <ele>214.3</ele>
        <time>2018-09-18T12:52:21Z</time>
      </trkpt>
      <trkpt lat="47.17263" lon="5.00749">
        <ele>214.3</ele>
        <time>2018-09-18T12:52:25Z</time>
      </trkpt>
      <trkpt lat="47.17263" lon="5.00756">
        <ele>214.6</ele>
        <time>2018-09-18T12:52:30Z</time>
      </trkpt>
      <trkpt lat="47.17266" lon="5.00763">
        <ele>215</ele>
        <time>2018-09-18T12:52:36Z</time>
      </trkpt>
      <trkpt lat="47.17268" lon="5.00769">
        <ele>215.3</ele>
        <time>2018-09-18T12:52:41Z</time>
      </trkpt>
      <trkpt lat="47.17268" lon="5.00778">
        <ele>215.8</ele>
        <time>2018-09-18T12:52:45Z</time>
      </trkpt>
      <trkpt lat="47.1727" lon="5.00785">
        <ele>216.2</ele>
        <time>2018-09-18T12:52:49Z</time>
      </trkpt>
      <trkpt lat="47.1727" lon="5.00793">
        <ele>216.5</ele>
        <time>2018-09-18T12:52:53Z</time>
      </trkpt>
      <trkpt lat="47.17271" lon="5.00801">
        <ele>216.9</ele>
        <time>2018-09-18T12:52:57Z</time>
      </trkpt>
      <trkpt lat="47.17271" lon="5.00809">
        <ele>217.3</ele>
        <time>2018-09-18T12:53:01Z</time>
      </trkpt>
      <trkpt lat="47.17272" lon="5.00817">
        <ele>217.7</ele>
        <time>2018-09-18T12:53:05Z</time>
      </trkpt>
      <trkpt lat="47.17271" lon="5.00825">
        <ele>218.1</ele>
        <time>2018-09-18T12:53:08Z</time>
      </trkpt>
      <trkpt lat="47.17272" lon="5.00832">
        <ele>218.4</ele>
        <time>2018-09-18T12:53:12Z</time>
      </trkpt>
      <trkpt lat="47.17273" lon="5.00838">
        <ele>218.7</ele>
        <time>2018-09-18T12:53:16Z</time>
      </trkpt>
      <trkpt lat="47.17274" lon="5.00846">
        <ele>218.9</ele>
        <time>2018-09-18T12:53:22Z</time>
      </trkpt>
      <trkpt lat="47.17276" lon="5.00854">
        <ele>219.2</ele>
        <time>2018-09-18T12:53:27Z</time>
      </trkpt>
      <trkpt lat="47.17276" lon="5.00862">
        <ele>219.4</ele>
        <time>2018-09-18T12:53:31Z</time>
      </trkpt>
      <trkpt lat="47.17277" lon="5.00869">
        <ele>219.6</ele>
        <time>2018-09-18T12:53:36Z</time>
      </trkpt>
      <trkpt lat="47.17277" lon="5.00876">
        <ele>219.9</ele>
        <time>2018-09-18T12:53:42Z</time>
      </trkpt>
      <trkpt lat="47.17279" lon="5.00883">
        <ele>220.1</ele>
        <time>2018-09-18T12:53:47Z</time>
      </trkpt>
      <trkpt lat="47.17281" lon="5.0089">
        <ele>220.3</ele>
        <time>2018-09-18T12:53:52Z</time>
      </trkpt>
      <trkpt lat="47.17282" lon="5.00898">
        <ele>220.6</ele>
        <time>2018-09-18T12:53:57Z</time>
      </trkpt>
      <trkpt lat="47.17282" lon="5.00906">
        <ele>220.8</ele>
        <time>2018-09-18T12:54:01Z</time>
      </trkpt>
      <trkpt lat="47.17283" lon="5.00913">
        <ele>221.1</ele>
        <time>2018-09-18T12:54:07Z</time>
      </trkpt>
      <trkpt lat="47.17283" lon="5.00921">
        <ele>221.2</ele>
        <time>2018-09-18T12:54:12Z</time>
      </trkpt>
      <trkpt lat="47.1728" lon="5.00927">
        <ele>221.1</ele>
        <time>2018-09-18T12:54:17Z</time>
      </trkpt>
      <trkpt lat="47.17275" lon="5.00928">
        <ele>220.9</ele>
        <time>2018-09-18T12:54:22Z</time>
      </trkpt>
      <trkpt lat="47.1727" lon="5.00931">
        <ele>220.7</ele>
        <time>2018-09-18T12:54:28Z</time>
      </trkpt>
      <trkpt lat="47.17266" lon="5.00934">
        <ele>220.6</ele>
        <time>2018-09-18T12:54:34Z</time>
      </trkpt>
      <trkpt lat="47.17261" lon="5.00937">
        <ele>220.4</ele>
        <time>2018-09-18T12:54:38Z</time>
      </trkpt>
      <trkpt lat="47.17258" lon="5.00943">
        <ele>220.3</ele>
        <time>2018-09-18T12:54:43Z</time>
      </trkpt>
      <trkpt lat="47.17253" lon="5.00944">
        <ele>220.1</ele>
        <time>2018-09-18T12:54:49Z</time>
      </trkpt>
      <trkpt lat="47.17249" lon="5.00946">
        <ele>219.9</ele>
        <time>2018-09-18T12:54:57Z</time>
      </trkpt>
      <trkpt lat="47.17244" lon="5.0095">
        <ele>219.8</ele>
        <time>2018-09-18T12:55:02Z</time>
      </trkpt>
      <trkpt lat="47.1724" lon="5.00954">
        <ele>219.7</ele>
        <time>2018-09-18T12:55:06Z</time>
      </trkpt>
      <trkpt lat="47.17235" lon="5.00955">
        <ele>219.5</ele>
        <time>2018-09-18T12:55:10Z</time>
      </trkpt>
      <trkpt lat="47.1723" lon="5.00954">
        <ele>219.3</ele>
        <time>2018-09-18T12:55:16Z</time>
      </trkpt>
      <trkpt lat="47.17225" lon="5.00954">
        <ele>219.2</ele>
        <time>2018-09-18T12:55:21Z</time>
      </trkpt>
      <trkpt lat="47.1722" lon="5.00954">
        <ele>219</ele>
        <time>2018-09-18T12:55:29Z</time>
      </trkpt>
      <trkpt lat="47.17215" lon="5.00953">
        <ele>218.8</ele>
        <time>2018-09-18T12:55:35Z</time>
      </trkpt>
      <trkpt lat="47.1721" lon="5.00952">
        <ele>218.6</ele>
        <time>2018-09-18T12:55:38Z</time>
      </trkpt>
      <trkpt lat="47.17205" lon="5.00952">
        <ele>218.4</ele>
        <time>2018-09-18T12:55:41Z</time>
      </trkpt>
      <trkpt lat="47.17201" lon="5.00951">
        <ele>218.2</ele>
        <time>2018-09-18T12:55:46Z</time>
      </trkpt>
      <trkpt lat="47.17195" lon="5.00952">
        <ele>218.1</ele>
        <time>2018-09-18T12:55:55Z</time>
      </trkpt>
      <trkpt lat="47.1719" lon="5.00952">
        <ele>217.9</ele>
        <time>2018-09-18T12:55:59Z</time>
      </trkpt>
      <trkpt lat="47.17185" lon="5.00952">
        <ele>217.7</ele>
        <time>2018-09-18T12:56:06Z</time>
      </trkpt>
      <trkpt lat="47.17181" lon="5.00955">
        <ele>217.7</ele>
        <time>2018-09-18T12:56:10Z</time>
      </trkpt>
      <trkpt lat="47.17176" lon="5.00957">
        <ele>217.6</ele>
        <time>2018-09-18T12:56:14Z</time>
      </trkpt>
      <trkpt lat="47.17171" lon="5.00959">
        <ele>217.6</ele>
        <time>2018-09-18T12:56:18Z</time>
      </trkpt>
      <trkpt lat="47.17165" lon="5.0096">
        <ele>217.6</ele>
        <time>2018-09-18T12:56:22Z</time>
      </trkpt>
      <trkpt lat="47.1716" lon="5.00957">
        <ele>217.4</ele>
        <time>2018-09-18T12:56:26Z</time>
      </trkpt>
      <trkpt lat="47.17155" lon="5.00957">
        <ele>217.4</ele>
        <time>2018-09-18T12:56:30Z</time>
      </trkpt>
      <trkpt lat="47.17149" lon="5.00956">
        <ele>217.3</ele>
        <time>2018-09-18T12:56:34Z</time>
      </trkpt>
      <trkpt lat="47.17145" lon="5.00953">
        <ele>217.2</ele>
        <time>2018-09-18T12:56:41Z</time>
      </trkpt>
      <trkpt lat="47.17141" lon="5.00952">
        <ele>217.1</ele>
        <time>2018-09-18T12:57:01Z</time>
      </trkpt>
      <trkpt lat="47.17136" lon="5.00949">
        <ele>216.9</ele>
        <time>2018-09-18T12:57:05Z</time>
      </trkpt>
      <trkpt lat="47.17132" lon="5.00945">
        <ele>216.7</ele>
        <time>2018-09-18T12:57:11Z</time>
      </trkpt>
      <trkpt lat="47.17128" lon="5.00942">
        <ele>216.5</ele>
        <time>2018-09-18T12:57:18Z</time>
      </trkpt>
      <trkpt lat="47.17126" lon="5.00936">
        <ele>216.1</ele>
        <time>2018-09-18T12:57:36Z</time>
      </trkpt>
      <trkpt lat="47.17122" lon="5.00931">
        <ele>215.8</ele>
        <time>2018-09-18T12:57:48Z</time>
      </trkpt>
      <trkpt lat="47.1712" lon="5.00924">
        <ele>215.4</ele>
        <time>2018-09-18T12:58:19Z</time>
      </trkpt>
      <trkpt lat="47.1712" lon="5.00917">
        <ele>215</ele>
        <time>2018-09-18T12:58:31Z</time>
      </trkpt>
      <trkpt lat="47.17116" lon="5.00912">
        <ele>214.8</ele>
        <time>2018-09-18T12:58:38Z</time>
      </trkpt>
      <trkpt lat="47.17112" lon="5.0091">
        <ele>214.7</ele>
        <time>2018-09-18T12:58:43Z</time>
      </trkpt>
      <trkpt lat="47.17107" lon="5.00911">
        <ele>214.8</ele>
        <time>2018-09-18T12:58:58Z</time>
      </trkpt>
      <trkpt lat="47.17103" lon="5.00917">
        <ele>215</ele>
        <time>2018-09-18T12:59:21Z</time>
      </trkpt>
      <trkpt lat="47.171" lon="5.00922">
        <ele>215.2</ele>
        <time>2018-09-18T12:59:28Z</time>
      </trkpt>
      <trkpt lat="47.17095" lon="5.00923">
        <ele>215.4</ele>
        <time>2018-09-18T12:59:37Z</time>
      </trkpt>
      <trkpt lat="47.1709" lon="5.00925">
        <ele>215.5</ele>
        <time>2018-09-18T12:59:49Z</time>
      </trkpt>
      <trkpt lat="47.17086" lon="5.00928">
        <ele>215.6</ele>
        <time>2018-09-18T12:59:53Z</time>
      </trkpt>
      <trkpt lat="47.1708" lon="5.0093">
        <ele>215.7</ele>
        <time>2018-09-18T12:59:57Z</time>
      </trkpt>
      <trkpt lat="47.17075" lon="5.0093">
        <ele>215.7</ele>
        <time>2018-09-18T13:00:01Z</time>
      </trkpt>
      <trkpt lat="47.1707" lon="5.00929">
        <ele>215.5</ele>
        <time>2018-09-18T13:00:06Z</time>
      </trkpt>
      <trkpt lat="47.17065" lon="5.00929">
        <ele>215.5</ele>
        <time>2018-09-18T13:00:13Z</time>
      </trkpt>
      <trkpt lat="47.1706" lon="5.0093">
        <ele>215.5</ele>
        <time>2018-09-18T13:00:20Z</time>
      </trkpt>
      <trkpt lat="47.17054" lon="5.00933">
        <ele>215.6</ele>
        <time>2018-09-18T13:00:24Z</time>
      </trkpt>
      <trkpt lat="47.1705" lon="5.00934">
        <ele>215.6</ele>
        <time>2018-09-18T13:00:27Z</time>
      </trkpt>
      <trkpt lat="47.17045" lon="5.00935">
        <ele>215.6</ele>
        <time>2018-09-18T13:00:30Z</time>
      </trkpt>
      <trkpt lat="47.1704" lon="5.00937">
        <ele>215.7</ele>
        <time>2018-09-18T13:00:33Z</time>
      </trkpt>
      <trkpt lat="47.17036" lon="5.00938">
        <ele>215.7</ele>
        <time>2018-09-18T13:00:36Z</time>
      </trkpt>
      <trkpt lat="47.17031" lon="5.00941">
        <ele>215.8</ele>
        <time>2018-09-18T13:00:40Z</time>
      </trkpt>
      <trkpt lat="47.17026" lon="5.00943">
        <ele>215.9</ele>
        <time>2018-09-18T13:00:46Z</time>
      </trkpt>
      <trkpt lat="47.17022" lon="5.00945">
        <ele>216</ele>
        <time>2018-09-18T13:00:51Z</time>
      </trkpt>
      <trkpt lat="47.17016" lon="5.00948">
        <ele>216.1</ele>
        <time>2018-09-18T13:00:55Z</time>
      </trkpt>
      <trkpt lat="47.17011" lon="5.00948">
        <ele>216</ele>
        <time>2018-09-18T13:02:17Z</time>
      </trkpt>
      <trkpt lat="47.1701" lon="5.00955">
        <ele>216.4</ele>
        <time>2018-09-18T13:02:56Z</time>
      </trkpt>
      <trkpt lat="47.17009" lon="5.00962">
        <ele>216.8</ele>
        <time>2018-09-18T13:03:02Z</time>
      </trkpt>
      <trkpt lat="47.17009" lon="5.0097">
        <ele>217.2</ele>
        <time>2018-09-18T13:07:26Z</time>
      </trkpt>
      <trkpt lat="47.17009" lon="5.00977">
        <ele>217.7</ele>
        <time>2018-09-18T13:07:34Z</time>
      </trkpt>
      <trkpt lat="47.17006" lon="5.00983">
        <ele>218.1</ele>
        <time>2018-09-18T13:07:41Z</time>
      </trkpt>
      <trkpt lat="47.17004" lon="5.0099">
        <ele>218.4</ele>
        <time>2018-09-18T13:07:46Z</time>
      </trkpt>
      <trkpt lat="47.17001" lon="5.00997">
        <ele>218.8</ele>
        <time>2018-09-18T13:07:51Z</time>
      </trkpt>
      <trkpt lat="47.16999" lon="5.01003">
        <ele>219.1</ele>
        <time>2018-09-18T13:07:56Z</time>
      </trkpt>
      <trkpt lat="47.16997" lon="5.01009">
        <ele>219.2</ele>
        <time>2018-09-18T13:08:14Z</time>
      </trkpt>
      <trkpt lat="47.16995" lon="5.01015">
        <ele>219.4</ele>
        <time>2018-09-18T13:08:17Z</time>
      </trkpt>
      <trkpt lat="47.16994" lon="5.01022">
        <ele>219.6</ele>
        <time>2018-09-18T13:08:21Z</time>
      </trkpt>
      <trkpt lat="47.16991" lon="5.01027">
        <ele>219.8</ele>
        <time>2018-09-18T13:08:25Z</time>
      </trkpt>
      <trkpt lat="47.16988" lon="5.01033">
        <ele>219.9</ele>
        <time>2018-09-18T13:08:29Z</time>
      </trkpt>
      <trkpt lat="47.16986" lon="5.01039">
        <ele>220</ele>
        <time>2018-09-18T13:08:37Z</time>
      </trkpt>
      <trkpt lat="47.16982" lon="5.01044">
        <ele>220.1</ele>
        <time>2018-09-18T13:08:47Z</time>
      </trkpt>
      <trkpt lat="47.16984" lon="5.01051">
        <ele>220.4</ele>
        <time>2018-09-18T13:08:50Z</time>
      </trkpt>
      <trkpt lat="47.16983" lon="5.01058">
        <ele>220.7</ele>
        <time>2018-09-18T13:08:56Z</time>
      </trkpt>
      <trkpt lat="47.1698" lon="5.01063">
        <ele>220.8</ele>
        <time>2018-09-18T13:09:10Z</time>
      </trkpt>
      <trkpt lat="47.16978" lon="5.0107">
        <ele>221</ele>
        <time>2018-09-18T13:09:14Z</time>
      </trkpt>
      <trkpt lat="47.16974" lon="5.01077">
        <ele>221.1</ele>
        <time>2018-09-18T13:09:18Z</time>
      </trkpt>
      <trkpt lat="47.16972" lon="5.01084">
        <ele>221.3</ele>
        <time>2018-09-18T13:09:24Z</time>
      </trkpt>
      <trkpt lat="47.1697" lon="5.0109">
        <ele>221.3</ele>
        <time>2018-09-18T13:09:33Z</time>
      </trkpt>
      <trkpt lat="47.16969" lon="5.01097">
        <ele>221.3</ele>
        <time>2018-09-18T13:09:40Z</time>
      </trkpt>
      <trkpt lat="47.16968" lon="5.01104">
        <ele>221.3</ele>
        <time>2018-09-18T13:09:44Z</time>
      </trkpt>
      <trkpt lat="47.16965" lon="5.01111">
        <ele>221.3</ele>
        <time>2018-09-18T13:09:48Z</time>
      </trkpt>
      <trkpt lat="47.16962" lon="5.01118">
        <ele>221.3</ele>
        <time>2018-09-18T13:09:52Z</time>
      </trkpt>
      <trkpt lat="47.16962" lon="5.01125">
        <ele>221.3</ele>
        <time>2018-09-18T13:09:58Z</time>
      </trkpt>
      <trkpt lat="47.1696" lon="5.01132">
        <ele>221.3</ele>
        <time>2018-09-18T13:10:09Z</time>
      </trkpt>
      <trkpt lat="47.16959" lon="5.01141">
        <ele>221.4</ele>
        <time>2018-09-18T13:10:13Z</time>
      </trkpt>
      <trkpt lat="47.16959" lon="5.01148">
        <ele>221.4</ele>
        <time>2018-09-18T13:10:16Z</time>
      </trkpt>
      <trkpt lat="47.16957" lon="5.01155">
        <ele>221.4</ele>
        <time>2018-09-18T13:10:20Z</time>
      </trkpt>
      <trkpt lat="47.16955" lon="5.01161">
        <ele>221.4</ele>
        <time>2018-09-18T13:10:25Z</time>
      </trkpt>
      <trkpt lat="47.16953" lon="5.01168">
        <ele>221.5</ele>
        <time>2018-09-18T13:10:33Z</time>
      </trkpt>
      <trkpt lat="47.16952" lon="5.01175">
        <ele>221.6</ele>
        <time>2018-09-18T13:10:41Z</time>
      </trkpt>
      <trkpt lat="47.16949" lon="5.01181">
        <ele>221.7</ele>
        <time>2018-09-18T13:10:48Z</time>
      </trkpt>
      <trkpt lat="47.16947" lon="5.01188">
        <ele>221.9</ele>
        <time>2018-09-18T13:10:56Z</time>
      </trkpt>
      <trkpt lat="47.16945" lon="5.01194">
        <ele>222</ele>
        <time>2018-09-18T13:11:06Z</time>
      </trkpt>
      <trkpt lat="47.16943" lon="5.01201">
        <ele>222.1</ele>
        <time>2018-09-18T13:11:12Z</time>
      </trkpt>
      <trkpt lat="47.16943" lon="5.01208">
        <ele>222.3</ele>
        <time>2018-09-18T13:11:21Z</time>
      </trkpt>
      <trkpt lat="47.16942" lon="5.01216">
        <ele>222.5</ele>
        <time>2018-09-18T13:11:24Z</time>
      </trkpt>
      <trkpt lat="47.16942" lon="5.01225">
        <ele>222.7</ele>
        <time>2018-09-18T13:11:27Z</time>
      </trkpt>
      <trkpt lat="47.1694" lon="5.01232">
        <ele>222.8</ele>
        <time>2018-09-18T13:11:31Z</time>
      </trkpt>
      <trkpt lat="47.16939" lon="5.01239">
        <ele>223</ele>
        <time>2018-09-18T13:11:37Z</time>
      </trkpt>
      <trkpt lat="47.16938" lon="5.01247">
        <ele>223.2</ele>
        <time>2018-09-18T13:11:42Z</time>
      </trkpt>
      <trkpt lat="47.16935" lon="5.01253">
        <ele>223.3</ele>
        <time>2018-09-18T13:11:46Z</time>
      </trkpt>
      <trkpt lat="47.16933" lon="5.01259">
        <ele>223.5</ele>
        <time>2018-09-18T13:11:50Z</time>
      </trkpt>
      <trkpt lat="47.16931" lon="5.01266">
        <ele>223.7</ele>
        <time>2018-09-18T13:11:55Z</time>
      </trkpt>
      <trkpt lat="47.1693" lon="5.01274">
        <ele>224</ele>
        <time>2018-09-18T13:12:00Z</time>
      </trkpt>
      <trkpt lat="47.16931" lon="5.01281">
        <ele>224.2</ele>
        <time>2018-09-18T13:12:04Z</time>
      </trkpt>
      <trkpt lat="47.1693" lon="5.01288">
        <ele>224.4</ele>
        <time>2018-09-18T13:12:09Z</time>
      </trkpt>
      <trkpt lat="47.16929" lon="5.01297">
        <ele>224.8</ele>
        <time>2018-09-18T13:12:16Z</time>
      </trkpt>
      <trkpt lat="47.16927" lon="5.01304">
        <ele>225</ele>
        <time>2018-09-18T13:12:20Z</time>
      </trkpt>
      <trkpt lat="47.16922" lon="5.01309">
        <ele>225.1</ele>
        <time>2018-09-18T13:12:24Z</time>
      </trkpt>
      <trkpt lat="47.16919" lon="5.01316">
        <ele>225.4</ele>
        <time>2018-09-18T13:12:30Z</time>
      </trkpt>
      <trkpt lat="47.16918" lon="5.01323">
        <ele>225.6</ele>
        <time>2018-09-18T13:12:34Z</time>
      </trkpt>
      <trkpt lat="47.16915" lon="5.01329">
        <ele>225.8</ele>
        <time>2018-09-18T13:12:39Z</time>
      </trkpt>
      <trkpt lat="47.16912" lon="5.01334">
        <ele>226</ele>
        <time>2018-09-18T13:12:44Z</time>
      </trkpt>
      <trkpt lat="47.16912" lon="5.01341">
        <ele>226.1</ele>
        <time>2018-09-18T13:12:49Z</time>
      </trkpt>
      <trkpt lat="47.16909" lon="5.01348">
        <ele>226.2</ele>
        <time>2018-09-18T13:12:53Z</time>
      </trkpt>
      <trkpt lat="47.16908" lon="5.01355">
        <ele>226.3</ele>
        <time>2018-09-18T13:12:58Z</time>
      </trkpt>
      <trkpt lat="47.16906" lon="5.01363">
        <ele>226.4</ele>
        <time>2018-09-18T13:13:03Z</time>
      </trkpt>
      <trkpt lat="47.16904" lon="5.01369">
        <ele>226.6</ele>
        <time>2018-09-18T13:13:11Z</time>
      </trkpt>
      <trkpt lat="47.169" lon="5.01375">
        <ele>226.7</ele>
        <time>2018-09-18T13:13:17Z</time>
      </trkpt>
      <trkpt lat="47.16899" lon="5.01383">
        <ele>226.9</ele>
        <time>2018-09-18T13:13:23Z</time>
      </trkpt>
      <trkpt lat="47.16896" lon="5.01388">
        <ele>227</ele>
        <time>2018-09-18T13:13:29Z</time>
      </trkpt>
      <trkpt lat="47.16895" lon="5.01395">
        <ele>227.1</ele>
        <time>2018-09-18T13:13:35Z</time>
      </trkpt>
      <trkpt lat="47.16895" lon="5.01402">
        <ele>227.2</ele>
        <time>2018-09-18T13:13:41Z</time>
      </trkpt>
      <trkpt lat="47.16895" lon="5.0141">
        <ele>227.4</ele>
        <time>2018-09-18T13:13:45Z</time>
      </trkpt>
      <trkpt lat="47.16893" lon="5.01416">
        <ele>227.5</ele>
        <time>2018-09-18T13:13:48Z</time>
      </trkpt>
      <trkpt lat="47.16891" lon="5.01422">
        <ele>227.7</ele>
        <time>2018-09-18T13:13:52Z</time>
      </trkpt>
      <trkpt lat="47.16892" lon="5.01429">
        <ele>227.7</ele>
        <time>2018-09-18T13:13:58Z</time>
      </trkpt>
      <trkpt lat="47.16889" lon="5.01433">
        <ele>227.8</ele>
        <time>2018-09-18T13:14:06Z</time>
      </trkpt>
      <trkpt lat="47.16887" lon="5.01441">
        <ele>227.9</ele>
        <time>2018-09-18T13:14:14Z</time>
      </trkpt>
      <trkpt lat="47.16887" lon="5.01449">
        <ele>228</ele>
        <time>2018-09-18T13:14:19Z</time>
      </trkpt>
      <trkpt lat="47.16887" lon="5.01456">
        <ele>228</ele>
        <time>2018-09-18T13:14:23Z</time>
      </trkpt>
      <trkpt lat="47.16887" lon="5.01463">
        <ele>228.1</ele>
        <time>2018-09-18T13:14:28Z</time>
      </trkpt>
      <trkpt lat="47.16886" lon="5.0147">
        <ele>228.1</ele>
        <time>2018-09-18T13:14:33Z</time>
      </trkpt>
      <trkpt lat="47.16884" lon="5.01476">
        <ele>228.2</ele>
        <time>2018-09-18T13:14:42Z</time>
      </trkpt>
      <trkpt lat="47.16883" lon="5.01484">
        <ele>228.3</ele>
        <time>2018-09-18T13:14:49Z</time>
      </trkpt>
      <trkpt lat="47.16881" lon="5.01491">
        <ele>228.4</ele>
        <time>2018-09-18T13:14:54Z</time>
      </trkpt>
      <trkpt lat="47.1688" lon="5.01498">
        <ele>228.4</ele>
        <time>2018-09-18T13:14:58Z</time>
      </trkpt>
      <trkpt lat="47.16878" lon="5.01505">
        <ele>228.4</ele>
        <time>2018-09-18T13:15:02Z</time>
      </trkpt>
      <trkpt lat="47.16876" lon="5.01511">
        <ele>228.4</ele>
        <time>2018-09-18T13:15:07Z</time>
      </trkpt>
      <trkpt lat="47.16877" lon="5.01518">
        <ele>228.3</ele>
        <time>2018-09-18T13:15:11Z</time>
      </trkpt>
      <trkpt lat="47.16878" lon="5.01527">
        <ele>228.2</ele>
        <time>2018-09-18T13:15:15Z</time>
      </trkpt>
      <trkpt lat="47.16878" lon="5.01534">
        <ele>228.1</ele>
        <time>2018-09-18T13:15:18Z</time>
      </trkpt>
      <trkpt lat="47.16877" lon="5.01541">
        <ele>228</ele>
        <time>2018-09-18T13:15:22Z</time>
      </trkpt>
      <trkpt lat="47.16874" lon="5.01546">
        <ele>228</ele>
        <time>2018-09-18T13:15:26Z</time>
      </trkpt>
      <trkpt lat="47.16871" lon="5.01551">
        <ele>227.9</ele>
        <time>2018-09-18T13:15:32Z</time>
      </trkpt>
      <trkpt lat="47.16868" lon="5.01557">
        <ele>227.9</ele>
        <time>2018-09-18T13:15:39Z</time>
      </trkpt>
      <trkpt lat="47.16871" lon="5.01563">
        <ele>227.8</ele>
        <time>2018-09-18T13:15:43Z</time>
      </trkpt>
      <trkpt lat="47.16872" lon="5.01569">
        <ele>227.7</ele>
        <time>2018-09-18T13:15:46Z</time>
      </trkpt>
      <trkpt lat="47.16872" lon="5.01577">
        <ele>227.6</ele>
        <time>2018-09-18T13:15:50Z</time>
      </trkpt>
      <trkpt lat="47.16872" lon="5.01583">
        <ele>227.5</ele>
        <time>2018-09-18T13:15:54Z</time>
      </trkpt>
      <trkpt lat="47.16871" lon="5.0159">
        <ele>227.7</ele>
        <time>2018-09-18T13:15:59Z</time>
      </trkpt>
      <trkpt lat="47.16872" lon="5.01597">
        <ele>227.9</ele>
        <time>2018-09-18T13:16:08Z</time>
      </trkpt>
      <trkpt lat="47.16871" lon="5.01604">
        <ele>228.2</ele>
        <time>2018-09-18T13:16:16Z</time>
      </trkpt>
      <trkpt lat="47.16872" lon="5.01613">
        <ele>228.4</ele>
        <time>2018-09-18T13:16:19Z</time>
      </trkpt>
      <trkpt lat="47.16871" lon="5.0162">
        <ele>228.6</ele>
        <time>2018-09-18T13:16:22Z</time>
      </trkpt>
      <trkpt lat="47.16872" lon="5.01628">
        <ele>228.8</ele>
        <time>2018-09-18T13:16:25Z</time>
      </trkpt>
      <trkpt lat="47.16873" lon="5.01636">
        <ele>229.1</ele>
        <time>2018-09-18T13:16:28Z</time>
      </trkpt>
      <trkpt lat="47.16874" lon="5.01643">
        <ele>229.3</ele>
        <time>2018-09-18T13:16:31Z</time>
      </trkpt>
      <trkpt lat="47.16875" lon="5.0165">
        <ele>229.5</ele>
        <time>2018-09-18T13:16:34Z</time>
      </trkpt>
      <trkpt lat="47.16875" lon="5.01657">
        <ele>229.7</ele>
        <time>2018-09-18T13:16:37Z</time>
      </trkpt>
      <trkpt lat="47.16873" lon="5.01664">
        <ele>229.9</ele>
        <time>2018-09-18T13:16:41Z</time>
      </trkpt>
      <trkpt lat="47.16873" lon="5.01672">
        <ele>230.1</ele>
        <time>2018-09-18T13:16:45Z</time>
      </trkpt>
      <trkpt lat="47.16876" lon="5.01678">
        <ele>230.3</ele>
        <time>2018-09-18T13:16:49Z</time>
      </trkpt>
      <trkpt lat="47.16879" lon="5.01684">
        <ele>230.4</ele>
        <time>2018-09-18T13:16:53Z</time>
      </trkpt>
      <trkpt lat="47.16878" lon="5.01691">
        <ele>230.6</ele>
        <time>2018-09-18T13:16:59Z</time>
      </trkpt>
      <trkpt lat="47.16877" lon="5.01698">
        <ele>230.8</ele>
        <time>2018-09-18T13:17:04Z</time>
      </trkpt>
      <trkpt lat="47.16878" lon="5.01705">
        <ele>230.9</ele>
        <time>2018-09-18T13:17:07Z</time>
      </trkpt>
      <trkpt lat="47.16879" lon="5.01712">
        <ele>231.1</ele>
        <time>2018-09-18T13:17:10Z</time>
      </trkpt>
      <trkpt lat="47.16879" lon="5.01719">
        <ele>231.3</ele>
        <time>2018-09-18T13:17:14Z</time>
      </trkpt>
      <trkpt lat="47.16879" lon="5.01726">
        <ele>231.5</ele>
        <time>2018-09-18T13:17:18Z</time>
      </trkpt>
      <trkpt lat="47.16881" lon="5.01733">
        <ele>231.7</ele>
        <time>2018-09-18T13:17:25Z</time>
      </trkpt>
      <trkpt lat="47.1688" lon="5.0174">
        <ele>231.9</ele>
        <time>2018-09-18T13:17:30Z</time>
      </trkpt>
      <trkpt lat="47.16881" lon="5.01747">
        <ele>232</ele>
        <time>2018-09-18T13:17:35Z</time>
      </trkpt>
      <trkpt lat="47.16881" lon="5.01754">
        <ele>232</ele>
        <time>2018-09-18T13:17:40Z</time>
      </trkpt>
      <trkpt lat="47.1688" lon="5.01761">
        <ele>231.9</ele>
        <time>2018-09-18T13:17:48Z</time>
      </trkpt>
      <trkpt lat="47.16879" lon="5.01768">
        <ele>231.6</ele>
        <time>2018-09-18T13:17:56Z</time>
      </trkpt>
      <trkpt lat="47.1688" lon="5.01776">
        <ele>231.5</ele>
        <time>2018-09-18T13:18:01Z</time>
      </trkpt>
      <trkpt lat="47.16881" lon="5.01784">
        <ele>231.3</ele>
        <time>2018-09-18T13:18:05Z</time>
      </trkpt>
      <trkpt lat="47.16882" lon="5.01791">
        <ele>231.1</ele>
        <time>2018-09-18T13:18:09Z</time>
      </trkpt>
      <trkpt lat="47.16884" lon="5.01799">
        <ele>230.9</ele>
        <time>2018-09-18T13:18:14Z</time>
      </trkpt>
      <trkpt lat="47.16885" lon="5.01805">
        <ele>230.8</ele>
        <time>2018-09-18T13:18:18Z</time>
      </trkpt>
      <trkpt lat="47.16886" lon="5.01814">
        <ele>230.5</ele>
        <time>2018-09-18T13:18:24Z</time>
      </trkpt>
      <trkpt lat="47.16886" lon="5.01821">
        <ele>230.4</ele>
        <time>2018-09-18T13:18:28Z</time>
      </trkpt>
      <trkpt lat="47.16886" lon="5.01828">
        <ele>230.1</ele>
        <time>2018-09-18T13:18:33Z</time>
      </trkpt>
      <trkpt lat="47.16886" lon="5.01835">
        <ele>229.9</ele>
        <time>2018-09-18T13:18:36Z</time>
      </trkpt>
      <trkpt lat="47.16887" lon="5.01842">
        <ele>229.6</ele>
        <time>2018-09-18T13:18:39Z</time>
      </trkpt>
      <trkpt lat="47.16887" lon="5.0185">
        <ele>229.4</ele>
        <time>2018-09-18T13:18:44Z</time>
      </trkpt>
      <trkpt lat="47.16887" lon="5.01857">
        <ele>229.1</ele>
        <time>2018-09-18T13:18:50Z</time>
      </trkpt>
      <trkpt lat="47.16885" lon="5.01863">
        <ele>228.8</ele>
        <time>2018-09-18T13:18:59Z</time>
      </trkpt>
      <trkpt lat="47.16883" lon="5.01869">
        <ele>228.7</ele>
        <time>2018-09-18T13:19:39Z</time>
      </trkpt>
      <trkpt lat="47.16885" lon="5.01877">
        <ele>228.3</ele>
        <time>2018-09-18T13:20:53Z</time>
      </trkpt>
      <trkpt lat="47.16889" lon="5.01881">
        <ele>228.1</ele>
        <time>2018-09-18T13:20:56Z</time>
      </trkpt>
      <trkpt lat="47.16894" lon="5.01885">
        <ele>227.9</ele>
        <time>2018-09-18T13:20:59Z</time>
      </trkpt>
      <trkpt lat="47.16898" lon="5.01888">
        <ele>227.7</ele>
        <time>2018-09-18T13:21:02Z</time>
      </trkpt>
      <trkpt lat="47.16903" lon="5.01891">
        <ele>227.5</ele>
        <time>2018-09-18T13:21:06Z</time>
      </trkpt>
      <trkpt lat="47.16908" lon="5.01892">
        <ele>227.3</ele>
        <time>2018-09-18T13:21:10Z</time>
      </trkpt>
      <trkpt lat="47.16912" lon="5.01897">
        <ele>227.1</ele>
        <time>2018-09-18T13:21:15Z</time>
      </trkpt>
      <trkpt lat="47.16916" lon="5.01901">
        <ele>226.8</ele>
        <time>2018-09-18T13:21:19Z</time>
      </trkpt>
      <trkpt lat="47.1692" lon="5.01905">
        <ele>226.7</ele>
        <time>2018-09-18T13:21:23Z</time>
      </trkpt>
      <trkpt lat="47.16925" lon="5.01907">
        <ele>226.7</ele>
        <time>2018-09-18T13:21:27Z</time>
      </trkpt>
      <trkpt lat="47.1693" lon="5.0191">
        <ele>226.6</ele>
        <time>2018-09-18T13:21:31Z</time>
      </trkpt>
      <trkpt lat="47.16936" lon="5.01912">
        <ele>226.7</ele>
        <time>2018-09-18T13:21:35Z</time>
      </trkpt>
      <trkpt lat="47.16941" lon="5.01911">
        <ele>226.8</ele>
        <time>2018-09-18T13:21:39Z</time>
      </trkpt>
      <trkpt lat="47.16946" lon="5.01912">
        <ele>226.9</ele>
        <time>2018-09-18T13:21:43Z</time>
      </trkpt>
      <trkpt lat="47.1695" lon="5.01913">
        <ele>227</ele>
        <time>2018-09-18T13:21:47Z</time>
      </trkpt>
      <trkpt lat="47.16955" lon="5.01913">
        <ele>227.1</ele>
        <time>2018-09-18T13:21:51Z</time>
      </trkpt>
      <trkpt lat="47.1696" lon="5.01915">
        <ele>227.1</ele>
        <time>2018-09-18T13:21:56Z</time>
      </trkpt>
      <trkpt lat="47.16965" lon="5.01915">
        <ele>227.2</ele>
        <time>2018-09-18T13:22:01Z</time>
      </trkpt>
      <trkpt lat="47.1697" lon="5.01913">
        <ele>227.5</ele>
        <time>2018-09-18T13:22:06Z</time>
      </trkpt>
      <trkpt lat="47.16975" lon="5.01912">
        <ele>227.6</ele>
        <time>2018-09-18T13:22:10Z</time>
      </trkpt>
      <trkpt lat="47.1698" lon="5.01914">
        <ele>227.6</ele>
        <time>2018-09-18T13:22:14Z</time>
      </trkpt>
      <trkpt lat="47.16985" lon="5.01917">
        <ele>227.6</ele>
        <time>2018-09-18T13:22:18Z</time>
      </trkpt>
      <trkpt lat="47.1699" lon="5.01919">
        <ele>227.7</ele>
        <time>2018-09-18T13:22:22Z</time>
      </trkpt>
      <trkpt lat="47.16994" lon="5.01922">
        <ele>227.8</ele>
        <time>2018-09-18T13:22:27Z</time>
      </trkpt>
      <trkpt lat="47.16999" lon="5.01919">
        <ele>227.9</ele>
        <time>2018-09-18T13:22:31Z</time>
      </trkpt>
      <trkpt lat="47.17003" lon="5.01918">
        <ele>227.9</ele>
        <time>2018-09-18T13:22:35Z</time>
      </trkpt>
      <trkpt lat="47.17008" lon="5.01919">
        <ele>227.8</ele>
        <time>2018-09-18T13:22:39Z</time>
      </trkpt>
      <trkpt lat="47.17013" lon="5.01918">
        <ele>227.7</ele>
        <time>2018-09-18T13:22:43Z</time>
      </trkpt>
      <trkpt lat="47.17017" lon="5.01919">
        <ele>227.6</ele>
        <time>2018-09-18T13:22:47Z</time>
      </trkpt>
      <trkpt lat="47.17023" lon="5.01918">
        <ele>227.4</ele>
        <time>2018-09-18T13:22:52Z</time>
      </trkpt>
      <trkpt lat="47.17028" lon="5.01922">
        <ele>227.2</ele>
        <time>2018-09-18T13:22:56Z</time>
      </trkpt>
      <trkpt lat="47.17033" lon="5.01922">
        <ele>227.1</ele>
        <time>2018-09-18T13:23:01Z</time>
      </trkpt>
      <trkpt lat="47.17037" lon="5.01924">
        <ele>227</ele>
        <time>2018-09-18T13:23:08Z</time>
      </trkpt>
      <trkpt lat="47.17043" lon="5.01926">
        <ele>226.8</ele>
        <time>2018-09-18T13:23:12Z</time>
      </trkpt>
      <trkpt lat="47.17048" lon="5.01928">
        <ele>226.7</ele>
        <time>2018-09-18T13:23:16Z</time>
      </trkpt>
      <trkpt lat="47.17054" lon="5.01929">
        <ele>226.5</ele>
        <time>2018-09-18T13:23:21Z</time>
      </trkpt>
      <trkpt lat="47.17058" lon="5.01933">
        <ele>226.4</ele>
        <time>2018-09-18T13:23:25Z</time>
      </trkpt>
      <trkpt lat="47.17063" lon="5.01932">
        <ele>226.3</ele>
        <time>2018-09-18T13:23:28Z</time>
      </trkpt>
      <trkpt lat="47.17068" lon="5.01936">
        <ele>226.1</ele>
        <time>2018-09-18T13:23:32Z</time>
      </trkpt>
      <trkpt lat="47.17072" lon="5.01939">
        <ele>226</ele>
        <time>2018-09-18T13:23:36Z</time>
      </trkpt>
      <trkpt lat="47.17077" lon="5.01943">
        <ele>225.8</ele>
        <time>2018-09-18T13:23:40Z</time>
      </trkpt>
      <trkpt lat="47.17081" lon="5.0194">
        <ele>225.8</ele>
        <time>2018-09-18T13:23:44Z</time>
      </trkpt>
      <trkpt lat="47.17087" lon="5.01937">
        <ele>225.6</ele>
        <time>2018-09-18T13:23:48Z</time>
      </trkpt>
      <trkpt lat="47.17091" lon="5.01937">
        <ele>225.5</ele>
        <time>2018-09-18T13:23:52Z</time>
      </trkpt>
      <trkpt lat="47.17096" lon="5.01936">
        <ele>225.3</ele>
        <time>2018-09-18T13:23:55Z</time>
      </trkpt>
      <trkpt lat="47.17101" lon="5.01935">
        <ele>225.1</ele>
        <time>2018-09-18T13:23:59Z</time>
      </trkpt>
      <trkpt lat="47.17107" lon="5.01935">
        <ele>224.9</ele>
        <time>2018-09-18T13:24:04Z</time>
      </trkpt>
      <trkpt lat="47.17112" lon="5.01934">
        <ele>224.8</ele>
        <time>2018-09-18T13:24:08Z</time>
      </trkpt>
      <trkpt lat="47.17117" lon="5.01935">
        <ele>224.6</ele>
        <time>2018-09-18T13:24:13Z</time>
      </trkpt>
      <trkpt lat="47.17122" lon="5.01937">
        <ele>224.4</ele>
        <time>2018-09-18T13:24:17Z</time>
      </trkpt>
      <trkpt lat="47.17125" lon="5.01943">
        <ele>224.2</ele>
        <time>2018-09-18T13:24:21Z</time>
      </trkpt>
      <trkpt lat="47.1713" lon="5.01944">
        <ele>224</ele>
        <time>2018-09-18T13:24:25Z</time>
      </trkpt>
      <trkpt lat="47.17135" lon="5.01945">
        <ele>223.8</ele>
        <time>2018-09-18T13:24:29Z</time>
      </trkpt>
      <trkpt lat="47.1714" lon="5.01946">
        <ele>223.6</ele>
        <time>2018-09-18T13:24:32Z</time>
      </trkpt>
      <trkpt lat="47.17146" lon="5.01946">
        <ele>223.4</ele>
        <time>2018-09-18T13:24:36Z</time>
      </trkpt>
      <trkpt lat="47.17151" lon="5.01948">
        <ele>223.2</ele>
        <time>2018-09-18T13:24:40Z</time>
      </trkpt>
      <trkpt lat="47.17157" lon="5.01948">
        <ele>223</ele>
        <time>2018-09-18T13:24:44Z</time>
      </trkpt>
      <trkpt lat="47.17162" lon="5.01944">
        <ele>222.8</ele>
        <time>2018-09-18T13:24:48Z</time>
      </trkpt>
      <trkpt lat="47.17167" lon="5.01944">
        <ele>222.7</ele>
        <time>2018-09-18T13:24:52Z</time>
      </trkpt>
      <trkpt lat="47.17172" lon="5.01945">
        <ele>222.8</ele>
        <time>2018-09-18T13:24:57Z</time>
      </trkpt>
      <trkpt lat="47.17177" lon="5.01945">
        <ele>222.9</ele>
        <time>2018-09-18T13:25:02Z</time>
      </trkpt>
      <trkpt lat="47.17181" lon="5.01946">
        <ele>223</ele>
        <time>2018-09-18T13:25:07Z</time>
      </trkpt>
      <trkpt lat="47.17186" lon="5.01947">
        <ele>223</ele>
        <time>2018-09-18T13:25:12Z</time>
      </trkpt>
      <trkpt lat="47.17191" lon="5.0195">
        <ele>223.1</ele>
        <time>2018-09-18T13:25:17Z</time>
      </trkpt>
      <trkpt lat="47.17195" lon="5.0195">
        <ele>223.2</ele>
        <time>2018-09-18T13:25:21Z</time>
      </trkpt>
      <trkpt lat="47.172" lon="5.01951">
        <ele>223.3</ele>
        <time>2018-09-18T13:25:25Z</time>
      </trkpt>
      <trkpt lat="47.17205" lon="5.01953">
        <ele>223.4</ele>
        <time>2018-09-18T13:25:29Z</time>
      </trkpt>
      <trkpt lat="47.1721" lon="5.01954">
        <ele>223.5</ele>
        <time>2018-09-18T13:25:33Z</time>
      </trkpt>
      <trkpt lat="47.17215" lon="5.01953">
        <ele>223.6</ele>
        <time>2018-09-18T13:25:37Z</time>
      </trkpt>
      <trkpt lat="47.1722" lon="5.01956">
        <ele>223.8</ele>
        <time>2018-09-18T13:25:42Z</time>
      </trkpt>
      <trkpt lat="47.17225" lon="5.01955">
        <ele>223.9</ele>
        <time>2018-09-18T13:25:46Z</time>
      </trkpt>
      <trkpt lat="47.17231" lon="5.01957">
        <ele>224</ele>
        <time>2018-09-18T13:25:50Z</time>
      </trkpt>
      <trkpt lat="47.17236" lon="5.01958">
        <ele>224.2</ele>
        <time>2018-09-18T13:25:54Z</time>
      </trkpt>
      <trkpt lat="47.17241" lon="5.0196">
        <ele>224.3</ele>
        <time>2018-09-18T13:25:58Z</time>
      </trkpt>
      <trkpt lat="47.17245" lon="5.01961">
        <ele>224.4</ele>
        <time>2018-09-18T13:26:02Z</time>
      </trkpt>
      <trkpt lat="47.1725" lon="5.01962">
        <ele>224.5</ele>
        <time>2018-09-18T13:26:06Z</time>
      </trkpt>
      <trkpt lat="47.17255" lon="5.01963">
        <ele>224.7</ele>
        <time>2018-09-18T13:26:10Z</time>
      </trkpt>
      <trkpt lat="47.1726" lon="5.01963">
        <ele>224.8</ele>
        <time>2018-09-18T13:26:15Z</time>
      </trkpt>
      <trkpt lat="47.17264" lon="5.0196">
        <ele>224.9</ele>
        <time>2018-09-18T13:26:19Z</time>
      </trkpt>
      <trkpt lat="47.17269" lon="5.0196">
        <ele>225.1</ele>
        <time>2018-09-18T13:26:23Z</time>
      </trkpt>
      <trkpt lat="47.17275" lon="5.0196">
        <ele>225.3</ele>
        <time>2018-09-18T13:26:28Z</time>
      </trkpt>
      <trkpt lat="47.17279" lon="5.01961">
        <ele>225.4</ele>
        <time>2018-09-18T13:26:32Z</time>
      </trkpt>
      <trkpt lat="47.17284" lon="5.01963">
        <ele>225.6</ele>
        <time>2018-09-18T13:26:37Z</time>
      </trkpt>
      <trkpt lat="47.17289" lon="5.01962">
        <ele>225.7</ele>
        <time>2018-09-18T13:26:43Z</time>
      </trkpt>
      <trkpt lat="47.17294" lon="5.01961">
        <ele>225.8</ele>
        <time>2018-09-18T13:26:48Z</time>
      </trkpt>
      <trkpt lat="47.17299" lon="5.01959">
        <ele>226</ele>
        <time>2018-09-18T13:26:53Z</time>
      </trkpt>
      <trkpt lat="47.17304" lon="5.01959">
        <ele>226.1</ele>
        <time>2018-09-18T13:26:58Z</time>
      </trkpt>
      <trkpt lat="47.17309" lon="5.01958">
        <ele>226.3</ele>
        <time>2018-09-18T13:27:05Z</time>
      </trkpt>
      <trkpt lat="47.17312" lon="5.01963">
        <ele>226.4</ele>
        <time>2018-09-18T13:27:18Z</time>
      </trkpt>
      <trkpt lat="47.17317" lon="5.01964">
        <ele>226.5</ele>
        <time>2018-09-18T13:27:22Z</time>
      </trkpt>
      <trkpt lat="47.17322" lon="5.01964">
        <ele>226.7</ele>
        <time>2018-09-18T13:27:27Z</time>
      </trkpt>
      <trkpt lat="47.17327" lon="5.01963">
        <ele>226.8</ele>
        <time>2018-09-18T13:27:32Z</time>
      </trkpt>
      <trkpt lat="47.17333" lon="5.01963">
        <ele>227</ele>
        <time>2018-09-18T13:27:37Z</time>
      </trkpt>
      <trkpt lat="47.17336" lon="5.01968">
        <ele>227</ele>
        <time>2018-09-18T13:27:41Z</time>
      </trkpt>
      <trkpt lat="47.1734" lon="5.01969">
        <ele>226.9</ele>
        <time>2018-09-18T13:27:45Z</time>
      </trkpt>
      <trkpt lat="47.17344" lon="5.01974">
        <ele>226.8</ele>
        <time>2018-09-18T13:27:49Z</time>
      </trkpt>
      <trkpt lat="47.17349" lon="5.01974">
        <ele>226.7</ele>
        <time>2018-09-18T13:27:55Z</time>
      </trkpt>
      <trkpt lat="47.17354" lon="5.01974">
        <ele>226.7</ele>
        <time>2018-09-18T13:27:59Z</time>
      </trkpt>
      <trkpt lat="47.17359" lon="5.01973">
        <ele>226.6</ele>
        <time>2018-09-18T13:28:04Z</time>
      </trkpt>
      <trkpt lat="47.17364" lon="5.01974">
        <ele>226.5</ele>
        <time>2018-09-18T13:28:08Z</time>
      </trkpt>
      <trkpt lat="47.17369" lon="5.01978">
        <ele>226.4</ele>
        <time>2018-09-18T13:28:15Z</time>
      </trkpt>
      <trkpt lat="47.17374" lon="5.0198">
        <ele>226.3</ele>
        <time>2018-09-18T13:28:18Z</time>
      </trkpt>
      <trkpt lat="47.17379" lon="5.0198">
        <ele>226.2</ele>
        <time>2018-09-18T13:28:22Z</time>
      </trkpt>
      <trkpt lat="47.17384" lon="5.01983">
        <ele>226.1</ele>
        <time>2018-09-18T13:28:26Z</time>
      </trkpt>
      <trkpt lat="47.17388" lon="5.01984">
        <ele>225.9</ele>
        <time>2018-09-18T13:28:30Z</time>
      </trkpt>
      <trkpt lat="47.17392" lon="5.01988">
        <ele>225.8</ele>
        <time>2018-09-18T13:28:34Z</time>
      </trkpt>
      <trkpt lat="47.17397" lon="5.0199">
        <ele>225.7</ele>
        <time>2018-09-18T13:28:38Z</time>
      </trkpt>
      <trkpt lat="47.17401" lon="5.01992">
        <ele>225.5</ele>
        <time>2018-09-18T13:28:42Z</time>
      </trkpt>
      <trkpt lat="47.17407" lon="5.01991">
        <ele>225.4</ele>
        <time>2018-09-18T13:28:46Z</time>
      </trkpt>
      <trkpt lat="47.17412" lon="5.0199">
        <ele>225.4</ele>
        <time>2018-09-18T13:28:50Z</time>
      </trkpt>
      <trkpt lat="47.17417" lon="5.01986">
        <ele>225.3</ele>
        <time>2018-09-18T13:28:55Z</time>
      </trkpt>
      <trkpt lat="47.17422" lon="5.01986">
        <ele>225.3</ele>
        <time>2018-09-18T13:29:00Z</time>
      </trkpt>
      <trkpt lat="47.17425" lon="5.01989">
        <ele>225.2</ele>
        <time>2018-09-18T13:29:03Z</time>
      </trkpt>
      <trkpt lat="47.17431" lon="5.01992">
        <ele>225.1</ele>
        <time>2018-09-18T13:29:07Z</time>
      </trkpt>
      <trkpt lat="47.17435" lon="5.01996">
        <ele>224.9</ele>
        <time>2018-09-18T13:29:11Z</time>
      </trkpt>
      <trkpt lat="47.1744" lon="5.01997">
        <ele>224.8</ele>
        <time>2018-09-18T13:29:17Z</time>
      </trkpt>
      <trkpt lat="47.17445" lon="5.01994">
        <ele>224.9</ele>
        <time>2018-09-18T13:29:23Z</time>
      </trkpt>
      <trkpt lat="47.1745" lon="5.01995">
        <ele>224.8</ele>
        <time>2018-09-18T13:29:27Z</time>
      </trkpt>
      <trkpt lat="47.17455" lon="5.01995">
        <ele>224.8</ele>
        <time>2018-09-18T13:29:31Z</time>
      </trkpt>
      <trkpt lat="47.17459" lon="5.01992">
        <ele>224.8</ele>
        <time>2018-09-18T13:29:34Z</time>
      </trkpt>
      <trkpt lat="47.17464" lon="5.01992">
        <ele>224.8</ele>
        <time>2018-09-18T13:29:37Z</time>
      </trkpt>
      <trkpt lat="47.17469" lon="5.01995">
        <ele>224.6</ele>
        <time>2018-09-18T13:29:41Z</time>
      </trkpt>
      <trkpt lat="47.17474" lon="5.01994">
        <ele>224.6</ele>
        <time>2018-09-18T13:29:46Z</time>
      </trkpt>
      <trkpt lat="47.1748" lon="5.01994">
        <ele>224.5</ele>
        <time>2018-09-18T13:29:50Z</time>
      </trkpt>
      <trkpt lat="47.17485" lon="5.01995">
        <ele>224.4</ele>
        <time>2018-09-18T13:29:54Z</time>
      </trkpt>
      <trkpt lat="47.17489" lon="5.01995">
        <ele>224.4</ele>
        <time>2018-09-18T13:29:58Z</time>
      </trkpt>
      <trkpt lat="47.17496" lon="5.01998">
        <ele>224.2</ele>
        <time>2018-09-18T13:30:03Z</time>
      </trkpt>
      <trkpt lat="47.17501" lon="5.02001">
        <ele>224</ele>
        <time>2018-09-18T13:30:07Z</time>
      </trkpt>
      <trkpt lat="47.17506" lon="5.02001">
        <ele>223.8</ele>
        <time>2018-09-18T13:30:11Z</time>
      </trkpt>
      <trkpt lat="47.17511" lon="5.02">
        <ele>223.7</ele>
        <time>2018-09-18T13:30:15Z</time>
      </trkpt>
      <trkpt lat="47.17516" lon="5.02001">
        <ele>223.6</ele>
        <time>2018-09-18T13:30:18Z</time>
      </trkpt>
      <trkpt lat="47.17521" lon="5.02002">
        <ele>223.5</ele>
        <time>2018-09-18T13:30:22Z</time>
      </trkpt>
      <trkpt lat="47.17526" lon="5.02004">
        <ele>223.3</ele>
        <time>2018-09-18T13:30:27Z</time>
      </trkpt>
      <trkpt lat="47.1753" lon="5.02011">
        <ele>223.1</ele>
        <time>2018-09-18T13:30:31Z</time>
      </trkpt>
      <trkpt lat="47.17535" lon="5.02012">
        <ele>223</ele>
        <time>2018-09-18T13:30:35Z</time>
      </trkpt>
      <trkpt lat="47.1754" lon="5.02012">
        <ele>222.8</ele>
        <time>2018-09-18T13:30:40Z</time>
      </trkpt>
      <trkpt lat="47.17545" lon="5.02012">
        <ele>222.7</ele>
        <time>2018-09-18T13:30:44Z</time>
      </trkpt>
      <trkpt lat="47.1755" lon="5.02011">
        <ele>222.6</ele>
        <time>2018-09-18T13:30:48Z</time>
      </trkpt>
      <trkpt lat="47.17555" lon="5.02011">
        <ele>222.5</ele>
        <time>2018-09-18T13:30:53Z</time>
      </trkpt>
      <trkpt lat="47.1756" lon="5.0201">
        <ele>222.3</ele>
        <time>2018-09-18T13:30:58Z</time>
      </trkpt>
      <trkpt lat="47.17565" lon="5.02011">
        <ele>222.2</ele>
        <time>2018-09-18T13:31:03Z</time>
      </trkpt>
      <trkpt lat="47.17569" lon="5.02012">
        <ele>222.1</ele>
        <time>2018-09-18T13:31:08Z</time>
      </trkpt>
      <trkpt lat="47.17574" lon="5.0201">
        <ele>222</ele>
        <time>2018-09-18T13:31:16Z</time>
      </trkpt>
      <trkpt lat="47.17578" lon="5.0201">
        <ele>221.9</ele>
        <time>2018-09-18T13:31:21Z</time>
      </trkpt>
      <trkpt lat="47.17583" lon="5.02012">
        <ele>221.7</ele>
        <time>2018-09-18T13:31:25Z</time>
      </trkpt>
      <trkpt lat="47.17588" lon="5.02014">
        <ele>221.6</ele>
        <time>2018-09-18T13:31:29Z</time>
      </trkpt>
      <trkpt lat="47.17593" lon="5.02018">
        <ele>221.4</ele>
        <time>2018-09-18T13:31:34Z</time>
      </trkpt>
      <trkpt lat="47.17597" lon="5.02017">
        <ele>221.3</ele>
        <time>2018-09-18T13:31:39Z</time>
      </trkpt>
      <trkpt lat="47.17602" lon="5.02018">
        <ele>221.2</ele>
        <time>2018-09-18T13:31:43Z</time>
      </trkpt>
      <trkpt lat="47.17607" lon="5.0202">
        <ele>221</ele>
        <time>2018-09-18T13:31:46Z</time>
      </trkpt>
      <trkpt lat="47.17612" lon="5.0202">
        <ele>220.9</ele>
        <time>2018-09-18T13:31:49Z</time>
      </trkpt>
      <trkpt lat="47.17617" lon="5.02019">
        <ele>220.8</ele>
        <time>2018-09-18T13:31:53Z</time>
      </trkpt>
      <trkpt lat="47.17622" lon="5.02021">
        <ele>220.6</ele>
        <time>2018-09-18T13:31:57Z</time>
      </trkpt>
      <trkpt lat="47.17627" lon="5.02024">
        <ele>220.3</ele>
        <time>2018-09-18T13:32:01Z</time>
      </trkpt>
      <trkpt lat="47.17632" lon="5.02024">
        <ele>220.2</ele>
        <time>2018-09-18T13:32:06Z</time>
      </trkpt>
      <trkpt lat="47.17637" lon="5.02026">
        <ele>220</ele>
        <time>2018-09-18T13:32:14Z</time>
      </trkpt>
      <trkpt lat="47.17641" lon="5.02029">
        <ele>219.7</ele>
        <time>2018-09-18T13:32:18Z</time>
      </trkpt>
      <trkpt lat="47.17646" lon="5.02027">
        <ele>219.7</ele>
        <time>2018-09-18T13:32:22Z</time>
      </trkpt>
      <trkpt lat="47.17652" lon="5.02027">
        <ele>219.5</ele>
        <time>2018-09-18T13:32:26Z</time>
      </trkpt>
      <trkpt lat="47.17657" lon="5.02028">
        <ele>219.3</ele>
        <time>2018-09-18T13:32:30Z</time>
      </trkpt>
      <trkpt lat="47.17661" lon="5.02027">
        <ele>219.2</ele>
        <time>2018-09-18T13:32:34Z</time>
      </trkpt>
      <trkpt lat="47.17666" lon="5.02026">
        <ele>219.2</ele>
        <time>2018-09-18T13:32:37Z</time>
      </trkpt>
      <trkpt lat="47.1767" lon="5.02027">
        <ele>219.2</ele>
        <time>2018-09-18T13:32:40Z</time>
      </trkpt>
      <trkpt lat="47.17675" lon="5.0203">
        <ele>218.9</ele>
        <time>2018-09-18T13:32:44Z</time>
      </trkpt>
      <trkpt lat="47.1768" lon="5.02031">
        <ele>219</ele>
        <time>2018-09-18T13:32:49Z</time>
      </trkpt>
      <trkpt lat="47.17685" lon="5.02032">
        <ele>218.9</ele>
        <time>2018-09-18T13:32:54Z</time>
      </trkpt>
      <trkpt lat="47.1769" lon="5.02033">
        <ele>218.9</ele>
        <time>2018-09-18T13:32:58Z</time>
      </trkpt>
      <trkpt lat="47.17694" lon="5.02033">
        <ele>218.9</ele>
        <time>2018-09-18T13:33:02Z</time>
      </trkpt>
      <trkpt lat="47.177" lon="5.02035">
        <ele>218.8</ele>
        <time>2018-09-18T13:33:07Z</time>
      </trkpt>
      <trkpt lat="47.17704" lon="5.02039">
        <ele>218.6</ele>
        <time>2018-09-18T13:33:11Z</time>
      </trkpt>
      <trkpt lat="47.17709" lon="5.0204">
        <ele>218.4</ele>
        <time>2018-09-18T13:33:16Z</time>
      </trkpt>
      <trkpt lat="47.17715" lon="5.02042">
        <ele>218.3</ele>
        <time>2018-09-18T13:33:21Z</time>
      </trkpt>
      <trkpt lat="47.17719" lon="5.02044">
        <ele>218.2</ele>
        <time>2018-09-18T13:33:25Z</time>
      </trkpt>
      <trkpt lat="47.17725" lon="5.02042">
        <ele>218.3</ele>
        <time>2018-09-18T13:33:29Z</time>
      </trkpt>
      <trkpt lat="47.1773" lon="5.02042">
        <ele>218.4</ele>
        <time>2018-09-18T13:33:33Z</time>
      </trkpt>
      <trkpt lat="47.17736" lon="5.02045">
        <ele>218.1</ele>
        <time>2018-09-18T13:33:37Z</time>
      </trkpt>
      <trkpt lat="47.1774" lon="5.02048">
        <ele>217.9</ele>
        <time>2018-09-18T13:33:40Z</time>
      </trkpt>
      <trkpt lat="47.17745" lon="5.02048">
        <ele>217.8</ele>
        <time>2018-09-18T13:33:44Z</time>
      </trkpt>
      <trkpt lat="47.1775" lon="5.02049">
        <ele>217.8</ele>
        <time>2018-09-18T13:33:48Z</time>
      </trkpt>
      <trkpt lat="47.17754" lon="5.02052">
        <ele>217.3</ele>
        <time>2018-09-18T13:33:52Z</time>
      </trkpt>
      <trkpt lat="47.1776" lon="5.02053">
        <ele>217.2</ele>
        <time>2018-09-18T13:33:57Z</time>
      </trkpt>
      <trkpt lat="47.17764" lon="5.02051">
        <ele>217.3</ele>
        <time>2018-09-18T13:34:02Z</time>
      </trkpt>
      <trkpt lat="47.17769" lon="5.0205">
        <ele>217.3</ele>
        <time>2018-09-18T13:34:07Z</time>
      </trkpt>
      <trkpt lat="47.17774" lon="5.0205">
        <ele>217.2</ele>
        <time>2018-09-18T13:34:12Z</time>
      </trkpt>
      <trkpt lat="47.17779" lon="5.02051">
        <ele>217</ele>
        <time>2018-09-18T13:34:17Z</time>
      </trkpt>
      <trkpt lat="47.17783" lon="5.02053">
        <ele>216.8</ele>
        <time>2018-09-18T13:34:21Z</time>
      </trkpt>
      <trkpt lat="47.17789" lon="5.02054">
        <ele>216.6</ele>
        <time>2018-09-18T13:34:26Z</time>
      </trkpt>
      <trkpt lat="47.17793" lon="5.02056">
        <ele>216.3</ele>
        <time>2018-09-18T13:34:30Z</time>
      </trkpt>
      <trkpt lat="47.17798" lon="5.02057">
        <ele>216.2</ele>
        <time>2018-09-18T13:34:34Z</time>
      </trkpt>
      <trkpt lat="47.17803" lon="5.02058">
        <ele>216</ele>
        <time>2018-09-18T13:34:39Z</time>
      </trkpt>
      <trkpt lat="47.17809" lon="5.02058">
        <ele>215.9</ele>
        <time>2018-09-18T13:34:44Z</time>
      </trkpt>
      <trkpt lat="47.17813" lon="5.02054">
        <ele>216.1</ele>
        <time>2018-09-18T13:34:49Z</time>
      </trkpt>
      <trkpt lat="47.17819" lon="5.02054">
        <ele>216</ele>
        <time>2018-09-18T13:34:54Z</time>
      </trkpt>
      <trkpt lat="47.17823" lon="5.02054">
        <ele>216</ele>
        <time>2018-09-18T13:34:59Z</time>
      </trkpt>
      <trkpt lat="47.17829" lon="5.02054">
        <ele>215.9</ele>
        <time>2018-09-18T13:35:04Z</time>
      </trkpt>
      <trkpt lat="47.17834" lon="5.02055">
        <ele>215.7</ele>
        <time>2018-09-18T13:35:09Z</time>
      </trkpt>
      <trkpt lat="47.17839" lon="5.02056">
        <ele>215.4</ele>
        <time>2018-09-18T13:35:14Z</time>
      </trkpt>
      <trkpt lat="47.17844" lon="5.02058">
        <ele>215</ele>
        <time>2018-09-18T13:35:19Z</time>
      </trkpt>
      <trkpt lat="47.17849" lon="5.0206">
        <ele>214.6</ele>
        <time>2018-09-18T13:35:23Z</time>
      </trkpt>
      <trkpt lat="47.17853" lon="5.02061">
        <ele>214.4</ele>
        <time>2018-09-18T13:35:27Z</time>
      </trkpt>
      <trkpt lat="47.17858" lon="5.0206">
        <ele>214.2</ele>
        <time>2018-09-18T13:35:32Z</time>
      </trkpt>
      <trkpt lat="47.17863" lon="5.0206">
        <ele>214</ele>
        <time>2018-09-18T13:35:37Z</time>
      </trkpt>
      <trkpt lat="47.17868" lon="5.02059">
        <ele>213.7</ele>
        <time>2018-09-18T13:35:42Z</time>
      </trkpt>
      <trkpt lat="47.17873" lon="5.02062">
        <ele>213.4</ele>
        <time>2018-09-18T13:35:46Z</time>
      </trkpt>
      <trkpt lat="47.17878" lon="5.02066">
        <ele>213</ele>
        <time>2018-09-18T13:35:50Z</time>
      </trkpt>
      <trkpt lat="47.17882" lon="5.02069">
        <ele>212.7</ele>
        <time>2018-09-18T13:35:53Z</time>
      </trkpt>
      <trkpt lat="47.17886" lon="5.0207">
        <ele>212.5</ele>
        <time>2018-09-18T13:35:57Z</time>
      </trkpt>
      <trkpt lat="47.17891" lon="5.02071">
        <ele>212.3</ele>
        <time>2018-09-18T13:36:01Z</time>
      </trkpt>
      <trkpt lat="47.17896" lon="5.02073">
        <ele>212</ele>
        <time>2018-09-18T13:36:06Z</time>
      </trkpt>
      <trkpt lat="47.17902" lon="5.02073">
        <ele>211.8</ele>
        <time>2018-09-18T13:36:11Z</time>
      </trkpt>
      <trkpt lat="47.17906" lon="5.02073">
        <ele>211.5</ele>
        <time>2018-09-18T13:36:16Z</time>
      </trkpt>
      <trkpt lat="47.17911" lon="5.02075">
        <ele>211.3</ele>
        <time>2018-09-18T13:36:21Z</time>
      </trkpt>
      <trkpt lat="47.17917" lon="5.02077">
        <ele>211.1</ele>
        <time>2018-09-18T13:36:26Z</time>
      </trkpt>
      <trkpt lat="47.17921" lon="5.02077">
        <ele>211.2</ele>
        <time>2018-09-18T13:36:33Z</time>
      </trkpt>
      <trkpt lat="47.17926" lon="5.02076">
        <ele>211.3</ele>
        <time>2018-09-18T13:36:39Z</time>
      </trkpt>
      <trkpt lat="47.17932" lon="5.02076">
        <ele>211.4</ele>
        <time>2018-09-18T13:36:44Z</time>
      </trkpt>
      <trkpt lat="47.17937" lon="5.02076">
        <ele>211.5</ele>
        <time>2018-09-18T13:36:49Z</time>
      </trkpt>
      <trkpt lat="47.17942" lon="5.02076">
        <ele>211.6</ele>
        <time>2018-09-18T13:36:54Z</time>
      </trkpt>
      <trkpt lat="47.17947" lon="5.02078">
        <ele>211.7</ele>
        <time>2018-09-18T13:36:59Z</time>
      </trkpt>
      <trkpt lat="47.17952" lon="5.0208">
        <ele>211.9</ele>
        <time>2018-09-18T13:37:04Z</time>
      </trkpt>
      <trkpt lat="47.17958" lon="5.0208">
        <ele>212</ele>
        <time>2018-09-18T13:37:09Z</time>
      </trkpt>
      <trkpt lat="47.17963" lon="5.02079">
        <ele>212.1</ele>
        <time>2018-09-18T13:37:14Z</time>
      </trkpt>
      <trkpt lat="47.17968" lon="5.02079">
        <ele>212.2</ele>
        <time>2018-09-18T13:37:19Z</time>
      </trkpt>
      <trkpt lat="47.17972" lon="5.02077">
        <ele>212.3</ele>
        <time>2018-09-18T13:37:24Z</time>
      </trkpt>
      <trkpt lat="47.17977" lon="5.02077">
        <ele>212.4</ele>
        <time>2018-09-18T13:37:29Z</time>
      </trkpt>
      <trkpt lat="47.17982" lon="5.02079">
        <ele>212.5</ele>
        <time>2018-09-18T13:37:35Z</time>
      </trkpt>
      <trkpt lat="47.17987" lon="5.02083">
        <ele>212.7</ele>
        <time>2018-09-18T13:37:39Z</time>
      </trkpt>
      <trkpt lat="47.17991" lon="5.02086">
        <ele>212.8</ele>
        <time>2018-09-18T13:37:43Z</time>
      </trkpt>
      <trkpt lat="47.17996" lon="5.02087">
        <ele>212.9</ele>
        <time>2018-09-18T13:37:47Z</time>
      </trkpt>
      <trkpt lat="47.18001" lon="5.02087">
        <ele>213</ele>
        <time>2018-09-18T13:37:52Z</time>
      </trkpt>
      <trkpt lat="47.18006" lon="5.02085">
        <ele>213.1</ele>
        <time>2018-09-18T13:37:57Z</time>
      </trkpt>
      <trkpt lat="47.18011" lon="5.02083">
        <ele>213.2</ele>
        <time>2018-09-18T13:38:02Z</time>
      </trkpt>
      <trkpt lat="47.18012" lon="5.02077">
        <ele>213.2</ele>
        <time>2018-09-18T13:38:12Z</time>
      </trkpt>
      <trkpt lat="47.18017" lon="5.02077">
        <ele>213.3</ele>
        <time>2018-09-18T13:39:19Z</time>
      </trkpt>
      <trkpt lat="47.18022" lon="5.02079">
        <ele>213.4</ele>
        <time>2018-09-18T13:39:23Z</time>
      </trkpt>
      <trkpt lat="47.18027" lon="5.02081">
        <ele>213.6</ele>
        <time>2018-09-18T13:39:28Z</time>
      </trkpt>
      <trkpt lat="47.18032" lon="5.02082">
        <ele>213.7</ele>
        <time>2018-09-18T13:39:32Z</time>
      </trkpt>
      <trkpt lat="47.18037" lon="5.02086">
        <ele>213.9</ele>
        <time>2018-09-18T13:39:36Z</time>
      </trkpt>
      <trkpt lat="47.18042" lon="5.02089">
        <ele>214</ele>
        <time>2018-09-18T13:39:40Z</time>
      </trkpt>
      <trkpt lat="47.18047" lon="5.02089">
        <ele>214.2</ele>
        <time>2018-09-18T13:39:45Z</time>
      </trkpt>
      <trkpt lat="47.18052" lon="5.02091">
        <ele>214.3</ele>
        <time>2018-09-18T13:39:50Z</time>
      </trkpt>
      <trkpt lat="47.18057" lon="5.0209">
        <ele>214.4</ele>
        <time>2018-09-18T13:39:55Z</time>
      </trkpt>
      <trkpt lat="47.18061" lon="5.02092">
        <ele>214.6</ele>
        <time>2018-09-18T13:40:00Z</time>
      </trkpt>
      <trkpt lat="47.18066" lon="5.02095">
        <ele>214.7</ele>
        <time>2018-09-18T13:40:04Z</time>
      </trkpt>
      <trkpt lat="47.1807" lon="5.02096">
        <ele>214.8</ele>
        <time>2018-09-18T13:40:08Z</time>
      </trkpt>
      <trkpt lat="47.18075" lon="5.02095">
        <ele>214.9</ele>
        <time>2018-09-18T13:40:12Z</time>
      </trkpt>
      <trkpt lat="47.1808" lon="5.02094">
        <ele>215</ele>
        <time>2018-09-18T13:40:16Z</time>
      </trkpt>
      <trkpt lat="47.18084" lon="5.02093">
        <ele>215.1</ele>
        <time>2018-09-18T13:40:20Z</time>
      </trkpt>
      <trkpt lat="47.1809" lon="5.02094">
        <ele>215.2</ele>
        <time>2018-09-18T13:40:25Z</time>
      </trkpt>
      <trkpt lat="47.18095" lon="5.02093">
        <ele>215.3</ele>
        <time>2018-09-18T13:40:30Z</time>
      </trkpt>
      <trkpt lat="47.18099" lon="5.02096">
        <ele>215.4</ele>
        <time>2018-09-18T13:40:34Z</time>
      </trkpt>
      <trkpt lat="47.18104" lon="5.02101">
        <ele>215.6</ele>
        <time>2018-09-18T13:40:39Z</time>
      </trkpt>
      <trkpt lat="47.18108" lon="5.02103">
        <ele>215.6</ele>
        <time>2018-09-18T13:40:43Z</time>
      </trkpt>
      <trkpt lat="47.18113" lon="5.02104">
        <ele>215.8</ele>
        <time>2018-09-18T13:40:47Z</time>
      </trkpt>
      <trkpt lat="47.18117" lon="5.02106">
        <ele>215.9</ele>
        <time>2018-09-18T13:40:51Z</time>
      </trkpt>
      <trkpt lat="47.18122" lon="5.02107">
        <ele>216</ele>
        <time>2018-09-18T13:40:56Z</time>
      </trkpt>
      <trkpt lat="47.18127" lon="5.02108">
        <ele>216.1</ele>
        <time>2018-09-18T13:41:00Z</time>
      </trkpt>
      <trkpt lat="47.18131" lon="5.02109">
        <ele>216.2</ele>
        <time>2018-09-18T13:41:04Z</time>
      </trkpt>
      <trkpt lat="47.18136" lon="5.0211">
        <ele>216.3</ele>
        <time>2018-09-18T13:41:08Z</time>
      </trkpt>
      <trkpt lat="47.18141" lon="5.02111">
        <ele>216.5</ele>
        <time>2018-09-18T13:41:13Z</time>
      </trkpt>
      <trkpt lat="47.18146" lon="5.02111">
        <ele>216.6</ele>
        <time>2018-09-18T13:41:17Z</time>
      </trkpt>
      <trkpt lat="47.18152" lon="5.02113">
        <ele>216.7</ele>
        <time>2018-09-18T13:41:22Z</time>
      </trkpt>
      <trkpt lat="47.18156" lon="5.02114">
        <ele>216.9</ele>
        <time>2018-09-18T13:41:26Z</time>
      </trkpt>
      <trkpt lat="47.18161" lon="5.02116">
        <ele>217</ele>
        <time>2018-09-18T13:41:30Z</time>
      </trkpt>
      <trkpt lat="47.18166" lon="5.02116">
        <ele>217.2</ele>
        <time>2018-09-18T13:41:34Z</time>
      </trkpt>
      <trkpt lat="47.18171" lon="5.02116">
        <ele>217.4</ele>
        <time>2018-09-18T13:41:39Z</time>
      </trkpt>
      <trkpt lat="47.18176" lon="5.02115">
        <ele>217.5</ele>
        <time>2018-09-18T13:41:44Z</time>
      </trkpt>
      <trkpt lat="47.18181" lon="5.02114">
        <ele>217.7</ele>
        <time>2018-09-18T13:41:49Z</time>
      </trkpt>
      <trkpt lat="47.18186" lon="5.02114">
        <ele>217.9</ele>
        <time>2018-09-18T13:41:54Z</time>
      </trkpt>
      <trkpt lat="47.18191" lon="5.02115">
        <ele>218.2</ele>
        <time>2018-09-18T13:41:59Z</time>
      </trkpt>
      <trkpt lat="47.18196" lon="5.02113">
        <ele>218.3</ele>
        <time>2018-09-18T13:42:04Z</time>
      </trkpt>
      <trkpt lat="47.182" lon="5.02113">
        <ele>218.5</ele>
        <time>2018-09-18T13:42:09Z</time>
      </trkpt>
      <trkpt lat="47.18205" lon="5.02114">
        <ele>218.8</ele>
        <time>2018-09-18T13:42:14Z</time>
      </trkpt>
      <trkpt lat="47.1821" lon="5.02113">
        <ele>219</ele>
        <time>2018-09-18T13:42:19Z</time>
      </trkpt>
      <trkpt lat="47.18215" lon="5.02114">
        <ele>219.2</ele>
        <time>2018-09-18T13:42:23Z</time>
      </trkpt>
      <trkpt lat="47.1822" lon="5.02114">
        <ele>219.4</ele>
        <time>2018-09-18T13:42:28Z</time>
      </trkpt>
      <trkpt lat="47.18225" lon="5.02115">
        <ele>219.7</ele>
        <time>2018-09-18T13:42:33Z</time>
      </trkpt>
      <trkpt lat="47.1823" lon="5.02117">
        <ele>219.9</ele>
        <time>2018-09-18T13:42:38Z</time>
      </trkpt>
      <trkpt lat="47.18235" lon="5.02117">
        <ele>220.1</ele>
        <time>2018-09-18T13:42:43Z</time>
      </trkpt>
      <trkpt lat="47.1824" lon="5.02119">
        <ele>220.4</ele>
        <time>2018-09-18T13:42:48Z</time>
      </trkpt>
      <trkpt lat="47.18245" lon="5.02121">
        <ele>220.7</ele>
        <time>2018-09-18T13:42:53Z</time>
      </trkpt>
      <trkpt lat="47.18249" lon="5.02123">
        <ele>220.9</ele>
        <time>2018-09-18T13:42:57Z</time>
      </trkpt>
      <trkpt lat="47.18254" lon="5.02124">
        <ele>221</ele>
        <time>2018-09-18T13:43:02Z</time>
      </trkpt>
      <trkpt lat="47.18259" lon="5.02126">
        <ele>221.1</ele>
        <time>2018-09-18T13:43:07Z</time>
      </trkpt>
      <trkpt lat="47.18265" lon="5.02127">
        <ele>221.2</ele>
        <time>2018-09-18T13:43:12Z</time>
      </trkpt>
      <trkpt lat="47.1827" lon="5.0213">
        <ele>221.3</ele>
        <time>2018-09-18T13:43:17Z</time>
      </trkpt>
      <trkpt lat="47.18275" lon="5.0213">
        <ele>221.4</ele>
        <time>2018-09-18T13:43:21Z</time>
      </trkpt>
      <trkpt lat="47.1828" lon="5.02133">
        <ele>221.5</ele>
        <time>2018-09-18T13:43:25Z</time>
      </trkpt>
      <trkpt lat="47.18284" lon="5.02133">
        <ele>221.6</ele>
        <time>2018-09-18T13:43:29Z</time>
      </trkpt>
      <trkpt lat="47.18289" lon="5.02135">
        <ele>221.7</ele>
        <time>2018-09-18T13:43:33Z</time>
      </trkpt>
      <trkpt lat="47.18293" lon="5.02137">
        <ele>221.8</ele>
        <time>2018-09-18T13:43:37Z</time>
      </trkpt>
      <trkpt lat="47.18299" lon="5.02137">
        <ele>221.9</ele>
        <time>2018-09-18T13:43:42Z</time>
      </trkpt>
      <trkpt lat="47.18304" lon="5.02138">
        <ele>222</ele>
        <time>2018-09-18T13:43:47Z</time>
      </trkpt>
      <trkpt lat="47.18308" lon="5.0214">
        <ele>222</ele>
        <time>2018-09-18T13:43:51Z</time>
      </trkpt>
      <trkpt lat="47.18314" lon="5.02141">
        <ele>222.1</ele>
        <time>2018-09-18T13:43:56Z</time>
      </trkpt>
      <trkpt lat="47.18318" lon="5.02142">
        <ele>222.2</ele>
        <time>2018-09-18T13:44:00Z</time>
      </trkpt>
      <trkpt lat="47.18323" lon="5.02142">
        <ele>222.3</ele>
        <time>2018-09-18T13:44:04Z</time>
      </trkpt>
      <trkpt lat="47.18327" lon="5.02144">
        <ele>222.4</ele>
        <time>2018-09-18T13:44:08Z</time>
      </trkpt>
      <trkpt lat="47.18332" lon="5.02144">
        <ele>222.4</ele>
        <time>2018-09-18T13:44:12Z</time>
      </trkpt>
      <trkpt lat="47.18338" lon="5.02147">
        <ele>222.7</ele>
        <time>2018-09-18T13:44:17Z</time>
      </trkpt>
      <trkpt lat="47.18343" lon="5.02148">
        <ele>223.1</ele>
        <time>2018-09-18T13:44:21Z</time>
      </trkpt>
      <trkpt lat="47.18348" lon="5.0215">
        <ele>223.4</ele>
        <time>2018-09-18T13:44:25Z</time>
      </trkpt>
      <trkpt lat="47.18353" lon="5.02152">
        <ele>223.8</ele>
        <time>2018-09-18T13:44:29Z</time>
      </trkpt>
      <trkpt lat="47.18358" lon="5.02153">
        <ele>224.1</ele>
        <time>2018-09-18T13:44:33Z</time>
      </trkpt>
      <trkpt lat="47.18362" lon="5.02154">
        <ele>224.4</ele>
        <time>2018-09-18T13:44:37Z</time>
      </trkpt>
      <trkpt lat="47.18368" lon="5.02154">
        <ele>224.7</ele>
        <time>2018-09-18T13:44:42Z</time>
      </trkpt>
      <trkpt lat="47.18373" lon="5.02155">
        <ele>225</ele>
        <time>2018-09-18T13:44:47Z</time>
      </trkpt>
      <trkpt lat="47.18378" lon="5.02156">
        <ele>225.4</ele>
        <time>2018-09-18T13:44:52Z</time>
      </trkpt>
      <trkpt lat="47.18383" lon="5.02159">
        <ele>225.7</ele>
        <time>2018-09-18T13:44:56Z</time>
      </trkpt>
      <trkpt lat="47.18387" lon="5.0216">
        <ele>226</ele>
        <time>2018-09-18T13:45:00Z</time>
      </trkpt>
      <trkpt lat="47.18392" lon="5.02162">
        <ele>226.4</ele>
        <time>2018-09-18T13:45:04Z</time>
      </trkpt>
      <trkpt lat="47.18397" lon="5.02163">
        <ele>226.7</ele>
        <time>2018-09-18T13:45:08Z</time>
      </trkpt>
      <trkpt lat="47.18402" lon="5.02165">
        <ele>227</ele>
        <time>2018-09-18T13:45:12Z</time>
      </trkpt>
      <trkpt lat="47.18407" lon="5.02165">
        <ele>227.3</ele>
        <time>2018-09-18T13:45:16Z</time>
      </trkpt>
      <trkpt lat="47.18412" lon="5.02167">
        <ele>227.7</ele>
        <time>2018-09-18T13:45:21Z</time>
      </trkpt>
      <trkpt lat="47.18416" lon="5.0217">
        <ele>228</ele>
        <time>2018-09-18T13:45:25Z</time>
      </trkpt>
      <trkpt lat="47.18422" lon="5.0217">
        <ele>228.1</ele>
        <time>2018-09-18T13:45:29Z</time>
      </trkpt>
      <trkpt lat="47.18427" lon="5.02168">
        <ele>228</ele>
        <time>2018-09-18T13:45:33Z</time>
      </trkpt>
      <trkpt lat="47.18431" lon="5.02172">
        <ele>228.1</ele>
        <time>2018-09-18T13:45:37Z</time>
      </trkpt>
      <trkpt lat="47.18436" lon="5.02175">
        <ele>228.1</ele>
        <time>2018-09-18T13:45:41Z</time>
      </trkpt>
      <trkpt lat="47.1844" lon="5.02176">
        <ele>228.2</ele>
        <time>2018-09-18T13:45:45Z</time>
      </trkpt>
      <trkpt lat="47.18445" lon="5.02175">
        <ele>228.1</ele>
        <time>2018-09-18T13:45:49Z</time>
      </trkpt>
      <trkpt lat="47.1845" lon="5.02179">
        <ele>228.2</ele>
        <time>2018-09-18T13:45:54Z</time>
      </trkpt>
      <trkpt lat="47.18455" lon="5.02178">
        <ele>228.2</ele>
        <time>2018-09-18T13:45:59Z</time>
      </trkpt>
      <trkpt lat="47.18459" lon="5.02175">
        <ele>228.1</ele>
        <time>2018-09-18T13:46:04Z</time>
      </trkpt>
      <trkpt lat="47.18464" lon="5.02172">
        <ele>228.1</ele>
        <time>2018-09-18T13:46:10Z</time>
      </trkpt>
      <trkpt lat="47.18469" lon="5.02172">
        <ele>228</ele>
        <time>2018-09-18T13:46:14Z</time>
      </trkpt>
      <trkpt lat="47.18474" lon="5.02169">
        <ele>228</ele>
        <time>2018-09-18T13:46:18Z</time>
      </trkpt>
      <trkpt lat="47.18478" lon="5.02164">
        <ele>228</ele>
        <time>2018-09-18T13:46:22Z</time>
      </trkpt>
      <trkpt lat="47.18482" lon="5.02158">
        <ele>228</ele>
        <time>2018-09-18T13:46:26Z</time>
      </trkpt>
      <trkpt lat="47.18484" lon="5.0215">
        <ele>228.1</ele>
        <time>2018-09-18T13:46:30Z</time>
      </trkpt>
      <trkpt lat="47.18487" lon="5.02144">
        <ele>228.1</ele>
        <time>2018-09-18T13:46:34Z</time>
      </trkpt>
      <trkpt lat="47.18489" lon="5.02138">
        <ele>228.2</ele>
        <time>2018-09-18T13:46:38Z</time>
      </trkpt>
      <trkpt lat="47.18492" lon="5.02133">
        <ele>228.3</ele>
        <time>2018-09-18T13:47:07Z</time>
      </trkpt>
      <trkpt lat="47.18496" lon="5.02127">
        <ele>228.4</ele>
        <time>2018-09-18T13:58:35Z</time>
      </trkpt>
      <trkpt lat="47.185" lon="5.02121">
        <ele>228.5</ele>
        <time>2018-09-18T13:58:39Z</time>
      </trkpt>
      <trkpt lat="47.18504" lon="5.02117">
        <ele>228.6</ele>
        <time>2018-09-18T13:58:43Z</time>
      </trkpt>
      <trkpt lat="47.18509" lon="5.02116">
        <ele>228.6</ele>
        <time>2018-09-18T13:58:46Z</time>
      </trkpt>
      <trkpt lat="47.18513" lon="5.0211">
        <ele>228.6</ele>
        <time>2018-09-18T13:58:50Z</time>
      </trkpt>
      <trkpt lat="47.18516" lon="5.02104">
        <ele>228.7</ele>
        <time>2018-09-18T13:58:55Z</time>
      </trkpt>
      <trkpt lat="47.1852" lon="5.02098">
        <ele>228.8</ele>
        <time>2018-09-18T13:59:00Z</time>
      </trkpt>
      <trkpt lat="47.18522" lon="5.02091">
        <ele>228.9</ele>
        <time>2018-09-18T13:59:05Z</time>
      </trkpt>
      <trkpt lat="47.18525" lon="5.02084">
        <ele>229</ele>
        <time>2018-09-18T13:59:10Z</time>
      </trkpt>
      <trkpt lat="47.18526" lon="5.02076">
        <ele>229.1</ele>
        <time>2018-09-18T13:59:14Z</time>
      </trkpt>
      <trkpt lat="47.18529" lon="5.0207">
        <ele>229.2</ele>
        <time>2018-09-18T13:59:17Z</time>
      </trkpt>
      <trkpt lat="47.1853" lon="5.02063">
        <ele>229.3</ele>
        <time>2018-09-18T13:59:20Z</time>
      </trkpt>
      <trkpt lat="47.18534" lon="5.02057">
        <ele>229.4</ele>
        <time>2018-09-18T13:59:24Z</time>
      </trkpt>
      <trkpt lat="47.18536" lon="5.02049">
        <ele>229.5</ele>
        <time>2018-09-18T13:59:28Z</time>
      </trkpt>
      <trkpt lat="47.18537" lon="5.02042">
        <ele>229.7</ele>
        <time>2018-09-18T13:59:32Z</time>
      </trkpt>
      <trkpt lat="47.18541" lon="5.02038">
        <ele>229.8</ele>
        <time>2018-09-18T13:59:36Z</time>
      </trkpt>
      <trkpt lat="47.18545" lon="5.02032">
        <ele>230</ele>
        <time>2018-09-18T13:59:41Z</time>
      </trkpt>
      <trkpt lat="47.18546" lon="5.02024">
        <ele>230.2</ele>
        <time>2018-09-18T13:59:45Z</time>
      </trkpt>
      <trkpt lat="47.18546" lon="5.02017">
        <ele>230.3</ele>
        <time>2018-09-18T13:59:49Z</time>
      </trkpt>
      <trkpt lat="47.18548" lon="5.02011">
        <ele>230.5</ele>
        <time>2018-09-18T13:59:53Z</time>
      </trkpt>
      <trkpt lat="47.1855" lon="5.02004">
        <ele>230.7</ele>
        <time>2018-09-18T13:59:58Z</time>
      </trkpt>
      <trkpt lat="47.18554" lon="5.02">
        <ele>230.9</ele>
        <time>2018-09-18T14:00:02Z</time>
      </trkpt>
      <trkpt lat="47.18558" lon="5.01996">
        <ele>231</ele>
        <time>2018-09-18T14:00:06Z</time>
      </trkpt>
      <trkpt lat="47.1856" lon="5.01989">
        <ele>231</ele>
        <time>2018-09-18T14:00:11Z</time>
      </trkpt>
      <trkpt lat="47.18565" lon="5.01985">
        <ele>231.2</ele>
        <time>2018-09-18T14:00:15Z</time>
      </trkpt>
      <trkpt lat="47.1857" lon="5.01984">
        <ele>231.4</ele>
        <time>2018-09-18T14:00:19Z</time>
      </trkpt>
      <trkpt lat="47.18573" lon="5.01977">
        <ele>231.5</ele>
        <time>2018-09-18T14:00:23Z</time>
      </trkpt>
      <trkpt lat="47.18574" lon="5.0197">
        <ele>231.5</ele>
        <time>2018-09-18T14:00:26Z</time>
      </trkpt>
      <trkpt lat="47.18574" lon="5.01963">
        <ele>231.5</ele>
        <time>2018-09-18T14:00:29Z</time>
      </trkpt>
      <trkpt lat="47.18575" lon="5.01955">
        <ele>231.5</ele>
        <time>2018-09-18T14:00:33Z</time>
      </trkpt>
      <trkpt lat="47.18577" lon="5.01949">
        <ele>231.5</ele>
        <time>2018-09-18T14:00:37Z</time>
      </trkpt>
      <trkpt lat="47.1858" lon="5.01943">
        <ele>231.8</ele>
        <time>2018-09-18T14:00:42Z</time>
      </trkpt>
      <trkpt lat="47.18586" lon="5.01942">
        <ele>232</ele>
        <time>2018-09-18T14:00:47Z</time>
      </trkpt>
      <trkpt lat="47.18588" lon="5.01934">
        <ele>232</ele>
        <time>2018-09-18T14:00:51Z</time>
      </trkpt>
      <trkpt lat="47.18588" lon="5.01927">
        <ele>232</ele>
        <time>2018-09-18T14:00:54Z</time>
      </trkpt>
      <trkpt lat="47.18587" lon="5.01921">
        <ele>232</ele>
        <time>2018-09-18T14:00:57Z</time>
      </trkpt>
      <trkpt lat="47.18589" lon="5.01914">
        <ele>232</ele>
        <time>2018-09-18T14:01:02Z</time>
      </trkpt>
      <trkpt lat="47.18594" lon="5.01911">
        <ele>232</ele>
        <time>2018-09-18T14:01:07Z</time>
      </trkpt>
      <trkpt lat="47.18598" lon="5.01905">
        <ele>231.9</ele>
        <time>2018-09-18T14:01:11Z</time>
      </trkpt>
      <trkpt lat="47.18601" lon="5.01899">
        <ele>231.9</ele>
        <time>2018-09-18T14:01:15Z</time>
      </trkpt>
      <trkpt lat="47.18605" lon="5.01895">
        <ele>231.9</ele>
        <time>2018-09-18T14:01:19Z</time>
      </trkpt>
      <trkpt lat="47.18606" lon="5.01887">
        <ele>231.9</ele>
        <time>2018-09-18T14:01:23Z</time>
      </trkpt>
      <trkpt lat="47.18609" lon="5.01881">
        <ele>232</ele>
        <time>2018-09-18T14:01:27Z</time>
      </trkpt>
      <trkpt lat="47.18613" lon="5.01876">
        <ele>232</ele>
        <time>2018-09-18T14:01:32Z</time>
      </trkpt>
      <trkpt lat="47.18614" lon="5.01868">
        <ele>232.1</ele>
        <time>2018-09-18T14:01:36Z</time>
      </trkpt>
      <trkpt lat="47.18617" lon="5.01862">
        <ele>232.1</ele>
        <time>2018-09-18T14:01:40Z</time>
      </trkpt>
      <trkpt lat="47.18619" lon="5.01854">
        <ele>232.2</ele>
        <time>2018-09-18T14:01:44Z</time>
      </trkpt>
      <trkpt lat="47.1862" lon="5.01848">
        <ele>232.3</ele>
        <time>2018-09-18T14:01:47Z</time>
      </trkpt>
      <trkpt lat="47.18623" lon="5.0184">
        <ele>232.4</ele>
        <time>2018-09-18T14:01:51Z</time>
      </trkpt>
      <trkpt lat="47.18625" lon="5.01833">
        <ele>232.4</ele>
        <time>2018-09-18T14:01:54Z</time>
      </trkpt>
      <trkpt lat="47.18627" lon="5.01827">
        <ele>232</ele>
        <time>2018-09-18T14:01:57Z</time>
      </trkpt>
      <trkpt lat="47.18628" lon="5.01819">
        <ele>231.4</ele>
        <time>2018-09-18T14:02:01Z</time>
      </trkpt>
      <trkpt lat="47.1863" lon="5.01812">
        <ele>230.7</ele>
        <time>2018-09-18T14:02:05Z</time>
      </trkpt>
      <trkpt lat="47.18632" lon="5.01805">
        <ele>230.2</ele>
        <time>2018-09-18T14:02:09Z</time>
      </trkpt>
      <trkpt lat="47.18634" lon="5.01799">
        <ele>229.8</ele>
        <time>2018-09-18T14:02:13Z</time>
      </trkpt>
      <trkpt lat="47.18637" lon="5.01793">
        <ele>229.1</ele>
        <time>2018-09-18T14:02:17Z</time>
      </trkpt>
      <trkpt lat="47.18639" lon="5.01786">
        <ele>228.6</ele>
        <time>2018-09-18T14:02:21Z</time>
      </trkpt>
      <trkpt lat="47.18641" lon="5.01779">
        <ele>228</ele>
        <time>2018-09-18T14:02:26Z</time>
      </trkpt>
      <trkpt lat="47.18642" lon="5.01773">
        <ele>227.4</ele>
        <time>2018-09-18T14:02:31Z</time>
      </trkpt>
      <trkpt lat="47.18642" lon="5.01766">
        <ele>226.8</ele>
        <time>2018-09-18T14:02:36Z</time>
      </trkpt>
      <trkpt lat="47.18643" lon="5.01759">
        <ele>226</ele>
        <time>2018-09-18T14:02:41Z</time>
      </trkpt>
      <trkpt lat="47.18645" lon="5.01751">
        <ele>225.4</ele>
        <time>2018-09-18T14:02:46Z</time>
      </trkpt>
      <trkpt lat="47.18647" lon="5.01745">
        <ele>224.9</ele>
        <time>2018-09-18T14:02:50Z</time>
      </trkpt>
      <trkpt lat="47.18648" lon="5.01738">
        <ele>224.4</ele>
        <time>2018-09-18T14:02:54Z</time>
      </trkpt>
      <trkpt lat="47.18646" lon="5.01731">
        <ele>224.1</ele>
        <time>2018-09-18T14:02:58Z</time>
      </trkpt>
      <trkpt lat="47.18646" lon="5.01724">
        <ele>223.7</ele>
        <time>2018-09-18T14:03:02Z</time>
      </trkpt>
      <trkpt lat="47.18645" lon="5.01717">
        <ele>223.2</ele>
        <time>2018-09-18T14:03:06Z</time>
      </trkpt>
      <trkpt lat="47.18643" lon="5.0171">
        <ele>222.9</ele>
        <time>2018-09-18T14:03:10Z</time>
      </trkpt>
      <trkpt lat="47.18643" lon="5.01703">
        <ele>222.5</ele>
        <time>2018-09-18T14:03:14Z</time>
      </trkpt>
      <trkpt lat="47.18643" lon="5.01696">
        <ele>222.1</ele>
        <time>2018-09-18T14:03:18Z</time>
      </trkpt>
      <trkpt lat="47.18643" lon="5.01688">
        <ele>221.7</ele>
        <time>2018-09-18T14:03:23Z</time>
      </trkpt>
      <trkpt lat="47.18643" lon="5.0168">
        <ele>221.2</ele>
        <time>2018-09-18T14:03:28Z</time>
      </trkpt>
      <trkpt lat="47.18644" lon="5.01673">
        <ele>220.7</ele>
        <time>2018-09-18T14:03:32Z</time>
      </trkpt>
      <trkpt lat="47.18645" lon="5.01666">
        <ele>220.3</ele>
        <time>2018-09-18T14:03:37Z</time>
      </trkpt>
      <trkpt lat="47.18646" lon="5.01658">
        <ele>220.4</ele>
        <time>2018-09-18T14:03:42Z</time>
      </trkpt>
      <trkpt lat="47.18648" lon="5.01651">
        <ele>220.5</ele>
        <time>2018-09-18T14:03:47Z</time>
      </trkpt>
      <trkpt lat="47.18653" lon="5.01646">
        <ele>220.2</ele>
        <time>2018-09-18T14:03:51Z</time>
      </trkpt>
      <trkpt lat="47.18657" lon="5.01642">
        <ele>220</ele>
        <time>2018-09-18T14:03:55Z</time>
      </trkpt>
      <trkpt lat="47.1866" lon="5.01637">
        <ele>219.8</ele>
        <time>2018-09-18T14:03:59Z</time>
      </trkpt>
      <trkpt lat="47.18665" lon="5.01632">
        <ele>219.6</ele>
        <time>2018-09-18T14:04:03Z</time>
      </trkpt>
      <trkpt lat="47.18667" lon="5.01625">
        <ele>219.5</ele>
        <time>2018-09-18T14:04:07Z</time>
      </trkpt>
      <trkpt lat="47.18669" lon="5.01619">
        <ele>219.6</ele>
        <time>2018-09-18T14:04:11Z</time>
      </trkpt>
      <trkpt lat="47.18673" lon="5.01614">
        <ele>219.6</ele>
        <time>2018-09-18T14:04:15Z</time>
      </trkpt>
      <trkpt lat="47.18677" lon="5.01608">
        <ele>219.6</ele>
        <time>2018-09-18T14:04:19Z</time>
      </trkpt>
      <trkpt lat="47.18678" lon="5.01601">
        <ele>219.7</ele>
        <time>2018-09-18T14:04:23Z</time>
      </trkpt>
      <trkpt lat="47.1868" lon="5.01594">
        <ele>219.7</ele>
        <time>2018-09-18T14:04:27Z</time>
      </trkpt>
      <trkpt lat="47.18681" lon="5.01588">
        <ele>219.8</ele>
        <time>2018-09-18T14:04:31Z</time>
      </trkpt>
      <trkpt lat="47.18685" lon="5.01582">
        <ele>219.8</ele>
        <time>2018-09-18T14:04:35Z</time>
      </trkpt>
      <trkpt lat="47.18687" lon="5.01575">
        <ele>219.8</ele>
        <time>2018-09-18T14:04:42Z</time>
      </trkpt>
      <trkpt lat="47.18689" lon="5.01568">
        <ele>219.7</ele>
        <time>2018-09-18T14:04:46Z</time>
      </trkpt>
      <trkpt lat="47.18691" lon="5.0156">
        <ele>219.7</ele>
        <time>2018-09-18T14:04:50Z</time>
      </trkpt>
      <trkpt lat="47.1869" lon="5.01553">
        <ele>219.7</ele>
        <time>2018-09-18T14:04:54Z</time>
      </trkpt>
      <trkpt lat="47.1869" lon="5.01546">
        <ele>219.7</ele>
        <time>2018-09-18T14:04:58Z</time>
      </trkpt>
      <trkpt lat="47.18691" lon="5.01539">
        <ele>219.7</ele>
        <time>2018-09-18T14:05:02Z</time>
      </trkpt>
      <trkpt lat="47.18693" lon="5.01533">
        <ele>219.7</ele>
        <time>2018-09-18T14:05:06Z</time>
      </trkpt>
      <trkpt lat="47.18695" lon="5.01527">
        <ele>219.7</ele>
        <time>2018-09-18T14:05:10Z</time>
      </trkpt>
      <trkpt lat="47.18698" lon="5.0152">
        <ele>219.6</ele>
        <time>2018-09-18T14:05:15Z</time>
      </trkpt>
      <trkpt lat="47.18699" lon="5.01513">
        <ele>219.6</ele>
        <time>2018-09-18T14:05:19Z</time>
      </trkpt>
      <trkpt lat="47.187" lon="5.01505">
        <ele>219.6</ele>
        <time>2018-09-18T14:05:24Z</time>
      </trkpt>
      <trkpt lat="47.18703" lon="5.01498">
        <ele>219.7</ele>
        <time>2018-09-18T14:05:29Z</time>
      </trkpt>
      <trkpt lat="47.18704" lon="5.01491">
        <ele>220</ele>
        <time>2018-09-18T14:05:34Z</time>
      </trkpt>
      <trkpt lat="47.18707" lon="5.01485">
        <ele>220.3</ele>
        <time>2018-09-18T14:05:38Z</time>
      </trkpt>
      <trkpt lat="47.18707" lon="5.01478">
        <ele>220.6</ele>
        <time>2018-09-18T14:05:42Z</time>
      </trkpt>
      <trkpt lat="47.18708" lon="5.0147">
        <ele>221</ele>
        <time>2018-09-18T14:05:47Z</time>
      </trkpt>
      <trkpt lat="47.1871" lon="5.01463">
        <ele>221.3</ele>
        <time>2018-09-18T14:05:51Z</time>
      </trkpt>
      <trkpt lat="47.18712" lon="5.01457">
        <ele>221.5</ele>
        <time>2018-09-18T14:05:55Z</time>
      </trkpt>
      <trkpt lat="47.18713" lon="5.01449">
        <ele>221.8</ele>
        <time>2018-09-18T14:06:00Z</time>
      </trkpt>
      <trkpt lat="47.18713" lon="5.01442">
        <ele>222.2</ele>
        <time>2018-09-18T14:06:04Z</time>
      </trkpt>
      <trkpt lat="47.18713" lon="5.01435">
        <ele>222.5</ele>
        <time>2018-09-18T14:06:08Z</time>
      </trkpt>
      <trkpt lat="47.18714" lon="5.01428">
        <ele>222.8</ele>
        <time>2018-09-18T14:06:12Z</time>
      </trkpt>
      <trkpt lat="47.18713" lon="5.0142">
        <ele>223.2</ele>
        <time>2018-09-18T14:06:18Z</time>
      </trkpt>
      <trkpt lat="47.18715" lon="5.01413">
        <ele>223.7</ele>
        <time>2018-09-18T14:06:22Z</time>
      </trkpt>
      <trkpt lat="47.18716" lon="5.01406">
        <ele>224.4</ele>
        <time>2018-09-18T14:06:26Z</time>
      </trkpt>
      <trkpt lat="47.18719" lon="5.014">
        <ele>224.9</ele>
        <time>2018-09-18T14:06:30Z</time>
      </trkpt>
      <trkpt lat="47.18723" lon="5.01394">
        <ele>225.4</ele>
        <time>2018-09-18T14:06:34Z</time>
      </trkpt>
      <trkpt lat="47.18725" lon="5.01387">
        <ele>226</ele>
        <time>2018-09-18T14:06:39Z</time>
      </trkpt>
      <trkpt lat="47.18726" lon="5.01379">
        <ele>226.8</ele>
        <time>2018-09-18T14:06:44Z</time>
      </trkpt>
      <trkpt lat="47.18728" lon="5.01373">
        <ele>227.4</ele>
        <time>2018-09-18T14:06:49Z</time>
      </trkpt>
      <trkpt lat="47.18729" lon="5.01365">
        <ele>228.2</ele>
        <time>2018-09-18T14:06:54Z</time>
      </trkpt>
      <trkpt lat="47.18729" lon="5.01358">
        <ele>229</ele>
        <time>2018-09-18T14:06:59Z</time>
      </trkpt>
      <trkpt lat="47.1873" lon="5.0135">
        <ele>229.7</ele>
        <time>2018-09-18T14:07:05Z</time>
      </trkpt>
      <trkpt lat="47.18732" lon="5.01344">
        <ele>230.5</ele>
        <time>2018-09-18T14:07:09Z</time>
      </trkpt>
      <trkpt lat="47.18732" lon="5.01336">
        <ele>231.2</ele>
        <time>2018-09-18T14:07:13Z</time>
      </trkpt>
      <trkpt lat="47.18734" lon="5.0133">
        <ele>231.3</ele>
        <time>2018-09-18T14:07:17Z</time>
      </trkpt>
      <trkpt lat="47.18738" lon="5.01325">
        <ele>231.1</ele>
        <time>2018-09-18T14:07:22Z</time>
      </trkpt>
      <trkpt lat="47.18737" lon="5.01317">
        <ele>231</ele>
        <time>2018-09-18T14:07:27Z</time>
      </trkpt>
      <trkpt lat="47.18738" lon="5.01311">
        <ele>230.8</ele>
        <time>2018-09-18T14:07:31Z</time>
      </trkpt>
      <trkpt lat="47.18738" lon="5.01303">
        <ele>230.7</ele>
        <time>2018-09-18T14:07:35Z</time>
      </trkpt>
      <trkpt lat="47.1874" lon="5.01296">
        <ele>230.5</ele>
        <time>2018-09-18T14:07:39Z</time>
      </trkpt>
      <trkpt lat="47.18741" lon="5.01289">
        <ele>230.3</ele>
        <time>2018-09-18T14:07:44Z</time>
      </trkpt>
      <trkpt lat="47.18742" lon="5.01281">
        <ele>230.1</ele>
        <time>2018-09-18T14:07:49Z</time>
      </trkpt>
      <trkpt lat="47.18744" lon="5.01275">
        <ele>229.9</ele>
        <time>2018-09-18T14:07:53Z</time>
      </trkpt>
      <trkpt lat="47.18746" lon="5.01268">
        <ele>229.7</ele>
        <time>2018-09-18T14:07:56Z</time>
      </trkpt>
      <trkpt lat="47.18746" lon="5.01259">
        <ele>229.4</ele>
        <time>2018-09-18T14:08:00Z</time>
      </trkpt>
      <trkpt lat="47.18748" lon="5.01252">
        <ele>229.2</ele>
        <time>2018-09-18T14:08:04Z</time>
      </trkpt>
      <trkpt lat="47.18748" lon="5.01245">
        <ele>228.6</ele>
        <time>2018-09-18T14:08:08Z</time>
      </trkpt>
      <trkpt lat="47.18748" lon="5.01238">
        <ele>227.9</ele>
        <time>2018-09-18T14:08:12Z</time>
      </trkpt>
      <trkpt lat="47.18748" lon="5.01231">
        <ele>227</ele>
        <time>2018-09-18T14:08:16Z</time>
      </trkpt>
      <trkpt lat="47.1875" lon="5.01224">
        <ele>226.2</ele>
        <time>2018-09-18T14:08:21Z</time>
      </trkpt>
      <trkpt lat="47.18749" lon="5.01217">
        <ele>225.4</ele>
        <time>2018-09-18T14:08:25Z</time>
      </trkpt>
      <trkpt lat="47.1875" lon="5.0121">
        <ele>224.6</ele>
        <time>2018-09-18T14:08:29Z</time>
      </trkpt>
      <trkpt lat="47.18753" lon="5.01203">
        <ele>223.8</ele>
        <time>2018-09-18T14:08:33Z</time>
      </trkpt>
      <trkpt lat="47.18754" lon="5.01195">
        <ele>222.8</ele>
        <time>2018-09-18T14:08:37Z</time>
      </trkpt>
      <trkpt lat="47.18755" lon="5.01188">
        <ele>222.1</ele>
        <time>2018-09-18T14:08:41Z</time>
      </trkpt>
      <trkpt lat="47.18756" lon="5.01181">
        <ele>221.4</ele>
        <time>2018-09-18T14:08:46Z</time>
      </trkpt>
      <trkpt lat="47.18757" lon="5.01173">
        <ele>220.6</ele>
        <time>2018-09-18T14:08:52Z</time>
      </trkpt>
      <trkpt lat="47.18757" lon="5.01165">
        <ele>219.9</ele>
        <time>2018-09-18T14:08:57Z</time>
      </trkpt>
      <trkpt lat="47.18759" lon="5.01158">
        <ele>220</ele>
        <time>2018-09-18T14:09:02Z</time>
      </trkpt>
      <trkpt lat="47.1876" lon="5.01152">
        <ele>220.1</ele>
        <time>2018-09-18T14:09:06Z</time>
      </trkpt>
      <trkpt lat="47.18761" lon="5.01143">
        <ele>220.1</ele>
        <time>2018-09-18T14:09:11Z</time>
      </trkpt>
      <trkpt lat="47.18762" lon="5.01135">
        <ele>220.2</ele>
        <time>2018-09-18T14:09:16Z</time>
      </trkpt>
      <trkpt lat="47.18763" lon="5.01128">
        <ele>220.3</ele>
        <time>2018-09-18T14:09:21Z</time>
      </trkpt>
      <trkpt lat="47.18764" lon="5.0112">
        <ele>220.4</ele>
        <time>2018-09-18T14:09:26Z</time>
      </trkpt>
      <trkpt lat="47.18766" lon="5.01112">
        <ele>220.5</ele>
        <time>2018-09-18T14:09:31Z</time>
      </trkpt>
      <trkpt lat="47.18768" lon="5.01105">
        <ele>220.5</ele>
        <time>2018-09-18T14:09:36Z</time>
      </trkpt>
      <trkpt lat="47.18768" lon="5.01097">
        <ele>220.6</ele>
        <time>2018-09-18T14:09:41Z</time>
      </trkpt>
      <trkpt lat="47.1877" lon="5.01091">
        <ele>220.7</ele>
        <time>2018-09-18T14:09:45Z</time>
      </trkpt>
      <trkpt lat="47.18772" lon="5.01084">
        <ele>220.7</ele>
        <time>2018-09-18T14:09:49Z</time>
      </trkpt>
      <trkpt lat="47.18773" lon="5.01076">
        <ele>220.7</ele>
        <time>2018-09-18T14:09:54Z</time>
      </trkpt>
      <trkpt lat="47.18774" lon="5.01069">
        <ele>220.7</ele>
        <time>2018-09-18T14:09:59Z</time>
      </trkpt>
      <trkpt lat="47.18775" lon="5.01061">
        <ele>220.7</ele>
        <time>2018-09-18T14:10:04Z</time>
      </trkpt>
      <trkpt lat="47.18776" lon="5.01054">
        <ele>220.7</ele>
        <time>2018-09-18T14:10:09Z</time>
      </trkpt>
      <trkpt lat="47.18777" lon="5.01047">
        <ele>220.7</ele>
        <time>2018-09-18T14:10:14Z</time>
      </trkpt>
      <trkpt lat="47.18781" lon="5.01043">
        <ele>220.6</ele>
        <time>2018-09-18T14:11:23Z</time>
      </trkpt>
      <trkpt lat="47.18782" lon="5.01036">
        <ele>220.6</ele>
        <time>2018-09-18T14:11:27Z</time>
      </trkpt>
      <trkpt lat="47.18784" lon="5.01028">
        <ele>220.6</ele>
        <time>2018-09-18T14:11:32Z</time>
      </trkpt>
      <trkpt lat="47.18785" lon="5.0102">
        <ele>220.6</ele>
        <time>2018-09-18T14:11:37Z</time>
      </trkpt>
      <trkpt lat="47.18786" lon="5.01014">
        <ele>220.6</ele>
        <time>2018-09-18T14:11:41Z</time>
      </trkpt>
      <trkpt lat="47.18788" lon="5.01007">
        <ele>220.5</ele>
        <time>2018-09-18T14:11:45Z</time>
      </trkpt>
      <trkpt lat="47.18788" lon="5.00999">
        <ele>220.6</ele>
        <time>2018-09-18T14:11:50Z</time>
      </trkpt>
      <trkpt lat="47.1879" lon="5.00991">
        <ele>220.6</ele>
        <time>2018-09-18T14:11:55Z</time>
      </trkpt>
      <trkpt lat="47.18791" lon="5.00984">
        <ele>220.6</ele>
        <time>2018-09-18T14:11:59Z</time>
      </trkpt>
      <trkpt lat="47.18792" lon="5.00977">
        <ele>220.6</ele>
        <time>2018-09-18T14:12:03Z</time>
      </trkpt>
      <trkpt lat="47.18793" lon="5.00971">
        <ele>220.7</ele>
        <time>2018-09-18T14:12:07Z</time>
      </trkpt>
      <trkpt lat="47.18794" lon="5.00963">
        <ele>220.7</ele>
        <time>2018-09-18T14:12:12Z</time>
      </trkpt>
      <trkpt lat="47.18795" lon="5.00956">
        <ele>220.7</ele>
        <time>2018-09-18T14:12:17Z</time>
      </trkpt>
      <trkpt lat="47.18796" lon="5.00948">
        <ele>220.7</ele>
        <time>2018-09-18T14:12:22Z</time>
      </trkpt>
      <trkpt lat="47.18798" lon="5.00942">
        <ele>220.7</ele>
        <time>2018-09-18T14:12:26Z</time>
      </trkpt>
      <trkpt lat="47.18799" lon="5.00935">
        <ele>220.7</ele>
        <time>2018-09-18T14:12:30Z</time>
      </trkpt>
      <trkpt lat="47.188" lon="5.00928">
        <ele>220.8</ele>
        <time>2018-09-18T14:12:34Z</time>
      </trkpt>
      <trkpt lat="47.18801" lon="5.0092">
        <ele>220.8</ele>
        <time>2018-09-18T14:12:39Z</time>
      </trkpt>
      <trkpt lat="47.18803" lon="5.00914">
        <ele>220.8</ele>
        <time>2018-09-18T14:12:43Z</time>
      </trkpt>
      <trkpt lat="47.18805" lon="5.00906">
        <ele>220.9</ele>
        <time>2018-09-18T14:12:48Z</time>
      </trkpt>
      <trkpt lat="47.18806" lon="5.00899">
        <ele>221</ele>
        <time>2018-09-18T14:12:53Z</time>
      </trkpt>
      <trkpt lat="47.18807" lon="5.00891">
        <ele>221.2</ele>
        <time>2018-09-18T14:12:58Z</time>
      </trkpt>
      <trkpt lat="47.18809" lon="5.00884">
        <ele>221.3</ele>
        <time>2018-09-18T14:13:03Z</time>
      </trkpt>
      <trkpt lat="47.1881" lon="5.00877">
        <ele>221.4</ele>
        <time>2018-09-18T14:13:07Z</time>
      </trkpt>
      <trkpt lat="47.18811" lon="5.00869">
        <ele>221.5</ele>
        <time>2018-09-18T14:13:12Z</time>
      </trkpt>
      <trkpt lat="47.18814" lon="5.00863">
        <ele>221.6</ele>
        <time>2018-09-18T14:13:16Z</time>
      </trkpt>
      <trkpt lat="47.18817" lon="5.00857">
        <ele>221.7</ele>
        <time>2018-09-18T14:13:21Z</time>
      </trkpt>
      <trkpt lat="47.18819" lon="5.00851">
        <ele>221.8</ele>
        <time>2018-09-18T14:13:26Z</time>
      </trkpt>
      <trkpt lat="47.1882" lon="5.00844">
        <ele>221.9</ele>
        <time>2018-09-18T14:13:30Z</time>
      </trkpt>
      <trkpt lat="47.18822" lon="5.00836">
        <ele>222.1</ele>
        <time>2018-09-18T14:13:34Z</time>
      </trkpt>
      <trkpt lat="47.18823" lon="5.00828">
        <ele>222.1</ele>
        <time>2018-09-18T14:13:38Z</time>
      </trkpt>
      <trkpt lat="47.18824" lon="5.00821">
        <ele>222.1</ele>
        <time>2018-09-18T14:13:42Z</time>
      </trkpt>
      <trkpt lat="47.18825" lon="5.00815">
        <ele>222.1</ele>
        <time>2018-09-18T14:13:46Z</time>
      </trkpt>
      <trkpt lat="47.18825" lon="5.00808">
        <ele>222.1</ele>
        <time>2018-09-18T14:13:50Z</time>
      </trkpt>
      <trkpt lat="47.18828" lon="5.00801">
        <ele>222.1</ele>
        <time>2018-09-18T14:13:54Z</time>
      </trkpt>
      <trkpt lat="47.18829" lon="5.00794">
        <ele>222.1</ele>
        <time>2018-09-18T14:13:58Z</time>
      </trkpt>
      <trkpt lat="47.18831" lon="5.00788">
        <ele>222</ele>
        <time>2018-09-18T14:14:02Z</time>
      </trkpt>
      <trkpt lat="47.18833" lon="5.00781">
        <ele>222</ele>
        <time>2018-09-18T14:14:07Z</time>
      </trkpt>
      <trkpt lat="47.18834" lon="5.00773">
        <ele>222</ele>
        <time>2018-09-18T14:14:12Z</time>
      </trkpt>
      <trkpt lat="47.18834" lon="5.00766">
        <ele>222</ele>
        <time>2018-09-18T14:14:16Z</time>
      </trkpt>
      <trkpt lat="47.18835" lon="5.00759">
        <ele>222</ele>
        <time>2018-09-18T14:14:20Z</time>
      </trkpt>
      <trkpt lat="47.18836" lon="5.00753">
        <ele>222</ele>
        <time>2018-09-18T14:14:24Z</time>
      </trkpt>
      <trkpt lat="47.18837" lon="5.00746">
        <ele>222.1</ele>
        <time>2018-09-18T14:14:28Z</time>
      </trkpt>
      <trkpt lat="47.18837" lon="5.00738">
        <ele>222.3</ele>
        <time>2018-09-18T14:14:32Z</time>
      </trkpt>
      <trkpt lat="47.18839" lon="5.0073">
        <ele>222.4</ele>
        <time>2018-09-18T14:14:36Z</time>
      </trkpt>
      <trkpt lat="47.1884" lon="5.00722">
        <ele>222.6</ele>
        <time>2018-09-18T14:14:40Z</time>
      </trkpt>
      <trkpt lat="47.18842" lon="5.00715">
        <ele>222.7</ele>
        <time>2018-09-18T14:14:44Z</time>
      </trkpt>
      <trkpt lat="47.18843" lon="5.00707">
        <ele>222.9</ele>
        <time>2018-09-18T14:14:48Z</time>
      </trkpt>
      <trkpt lat="47.18844" lon="5.007">
        <ele>223</ele>
        <time>2018-09-18T14:14:52Z</time>
      </trkpt>
      <trkpt lat="47.18845" lon="5.00692">
        <ele>223.2</ele>
        <time>2018-09-18T14:14:57Z</time>
      </trkpt>
      <trkpt lat="47.18846" lon="5.00684">
        <ele>223.3</ele>
        <time>2018-09-18T14:15:02Z</time>
      </trkpt>
      <trkpt lat="47.18847" lon="5.00676">
        <ele>223.5</ele>
        <time>2018-09-18T14:15:07Z</time>
      </trkpt>
      <trkpt lat="47.18848" lon="5.00669">
        <ele>223.6</ele>
        <time>2018-09-18T14:15:12Z</time>
      </trkpt>
      <trkpt lat="47.18849" lon="5.00661">
        <ele>223.6</ele>
        <time>2018-09-18T14:15:17Z</time>
      </trkpt>
      <trkpt lat="47.1885" lon="5.00654">
        <ele>223.6</ele>
        <time>2018-09-18T14:15:26Z</time>
      </trkpt>
      <trkpt lat="47.18852" lon="5.00646">
        <ele>223.6</ele>
        <time>2018-09-18T14:15:30Z</time>
      </trkpt>
      <trkpt lat="47.18855" lon="5.00638">
        <ele>223.6</ele>
        <time>2018-09-18T14:15:34Z</time>
      </trkpt>
      <trkpt lat="47.18856" lon="5.00631">
        <ele>223.6</ele>
        <time>2018-09-18T14:15:38Z</time>
      </trkpt>
      <trkpt lat="47.18858" lon="5.00624">
        <ele>223.6</ele>
        <time>2018-09-18T14:15:42Z</time>
      </trkpt>
      <trkpt lat="47.18859" lon="5.00617">
        <ele>223.6</ele>
        <time>2018-09-18T14:15:46Z</time>
      </trkpt>
      <trkpt lat="47.1886" lon="5.00609">
        <ele>223.6</ele>
        <time>2018-09-18T14:15:50Z</time>
      </trkpt>
      <trkpt lat="47.1886" lon="5.00601">
        <ele>223.6</ele>
        <time>2018-09-18T14:15:56Z</time>
      </trkpt>
      <trkpt lat="47.18862" lon="5.00594">
        <ele>223.6</ele>
        <time>2018-09-18T14:16:00Z</time>
      </trkpt>
      <trkpt lat="47.18863" lon="5.00587">
        <ele>223.6</ele>
        <time>2018-09-18T14:16:04Z</time>
      </trkpt>
      <trkpt lat="47.18863" lon="5.0058">
        <ele>223.7</ele>
        <time>2018-09-18T14:16:08Z</time>
      </trkpt>
      <trkpt lat="47.18863" lon="5.00572">
        <ele>223.8</ele>
        <time>2018-09-18T14:16:13Z</time>
      </trkpt>
      <trkpt lat="47.18864" lon="5.00565">
        <ele>223.9</ele>
        <time>2018-09-18T14:16:17Z</time>
      </trkpt>
      <trkpt lat="47.18865" lon="5.00558">
        <ele>223.9</ele>
        <time>2018-09-18T14:16:21Z</time>
      </trkpt>
      <trkpt lat="47.18866" lon="5.00551">
        <ele>224</ele>
        <time>2018-09-18T14:16:25Z</time>
      </trkpt>
      <trkpt lat="47.18868" lon="5.00544">
        <ele>224.1</ele>
        <time>2018-09-18T14:16:29Z</time>
      </trkpt>
      <trkpt lat="47.18871" lon="5.00537">
        <ele>224.1</ele>
        <time>2018-09-18T14:16:33Z</time>
      </trkpt>
      <trkpt lat="47.18873" lon="5.00531">
        <ele>224.2</ele>
        <time>2018-09-18T14:16:37Z</time>
      </trkpt>
      <trkpt lat="47.18877" lon="5.00525">
        <ele>224.2</ele>
        <time>2018-09-18T14:16:41Z</time>
      </trkpt>
      <trkpt lat="47.18879" lon="5.00518">
        <ele>224.2</ele>
        <time>2018-09-18T14:16:45Z</time>
      </trkpt>
      <trkpt lat="47.18881" lon="5.0051">
        <ele>224.3</ele>
        <time>2018-09-18T14:16:49Z</time>
      </trkpt>
      <trkpt lat="47.18884" lon="5.00505">
        <ele>224.3</ele>
        <time>2018-09-18T14:16:53Z</time>
      </trkpt>
      <trkpt lat="47.18886" lon="5.00497">
        <ele>224.4</ele>
        <time>2018-09-18T14:16:57Z</time>
      </trkpt>
      <trkpt lat="47.18887" lon="5.0049">
        <ele>224.5</ele>
        <time>2018-09-18T14:17:01Z</time>
      </trkpt>
      <trkpt lat="47.18888" lon="5.00482">
        <ele>224.6</ele>
        <time>2018-09-18T14:17:05Z</time>
      </trkpt>
      <trkpt lat="47.18887" lon="5.00475">
        <ele>224.7</ele>
        <time>2018-09-18T14:17:10Z</time>
      </trkpt>
      <trkpt lat="47.18889" lon="5.00468">
        <ele>224.7</ele>
        <time>2018-09-18T14:17:15Z</time>
      </trkpt>
      <trkpt lat="47.1889" lon="5.00461">
        <ele>224.8</ele>
        <time>2018-09-18T14:17:19Z</time>
      </trkpt>
      <trkpt lat="47.18891" lon="5.00453">
        <ele>224.9</ele>
        <time>2018-09-18T14:17:23Z</time>
      </trkpt>
      <trkpt lat="47.18893" lon="5.00446">
        <ele>224.9</ele>
        <time>2018-09-18T14:17:27Z</time>
      </trkpt>
      <trkpt lat="47.18896" lon="5.0044">
        <ele>225</ele>
        <time>2018-09-18T14:17:31Z</time>
      </trkpt>
      <trkpt lat="47.18898" lon="5.00434">
        <ele>225</ele>
        <time>2018-09-18T14:17:35Z</time>
      </trkpt>
      <trkpt lat="47.18899" lon="5.00426">
        <ele>225.1</ele>
        <time>2018-09-18T14:17:39Z</time>
      </trkpt>
      <trkpt lat="47.18898" lon="5.00418">
        <ele>225.2</ele>
        <time>2018-09-18T14:17:43Z</time>
      </trkpt>
      <trkpt lat="47.18898" lon="5.0041">
        <ele>225.3</ele>
        <time>2018-09-18T14:17:47Z</time>
      </trkpt>
      <trkpt lat="47.189" lon="5.00403">
        <ele>225.3</ele>
        <time>2018-09-18T14:17:51Z</time>
      </trkpt>
      <trkpt lat="47.18901" lon="5.00396">
        <ele>225.3</ele>
        <time>2018-09-18T14:17:55Z</time>
      </trkpt>
      <trkpt lat="47.18902" lon="5.00389">
        <ele>225.4</ele>
        <time>2018-09-18T14:17:59Z</time>
      </trkpt>
      <trkpt lat="47.18903" lon="5.00382">
        <ele>225.4</ele>
        <time>2018-09-18T14:18:03Z</time>
      </trkpt>
      <trkpt lat="47.18903" lon="5.00375">
        <ele>225.5</ele>
        <time>2018-09-18T14:18:07Z</time>
      </trkpt>
      <trkpt lat="47.18904" lon="5.00368">
        <ele>225.6</ele>
        <time>2018-09-18T14:18:11Z</time>
      </trkpt>
      <trkpt lat="47.18906" lon="5.0036">
        <ele>225.6</ele>
        <time>2018-09-18T14:18:16Z</time>
      </trkpt>
      <trkpt lat="47.18907" lon="5.00353">
        <ele>225.7</ele>
        <time>2018-09-18T14:18:21Z</time>
      </trkpt>
      <trkpt lat="47.18908" lon="5.00346">
        <ele>225.8</ele>
        <time>2018-09-18T14:18:25Z</time>
      </trkpt>
      <trkpt lat="47.18909" lon="5.00339">
        <ele>225.9</ele>
        <time>2018-09-18T14:18:29Z</time>
      </trkpt>
      <trkpt lat="47.18911" lon="5.00333">
        <ele>226</ele>
        <time>2018-09-18T14:18:33Z</time>
      </trkpt>
      <trkpt lat="47.18912" lon="5.00326">
        <ele>226.3</ele>
        <time>2018-09-18T14:18:37Z</time>
      </trkpt>
      <trkpt lat="47.18913" lon="5.00318">
        <ele>226.7</ele>
        <time>2018-09-18T14:18:42Z</time>
      </trkpt>
      <trkpt lat="47.18914" lon="5.00311">
        <ele>227</ele>
        <time>2018-09-18T14:18:46Z</time>
      </trkpt>
      <trkpt lat="47.18915" lon="5.00305">
        <ele>227.3</ele>
        <time>2018-09-18T14:18:50Z</time>
      </trkpt>
      <trkpt lat="47.1892" lon="5.00304">
        <ele>227.5</ele>
        <time>2018-09-18T14:19:00Z</time>
      </trkpt>
      <trkpt lat="47.18918" lon="5.00296">
        <ele>227.8</ele>
        <time>2018-09-18T14:19:48Z</time>
      </trkpt>
      <trkpt lat="47.18915" lon="5.00291">
        <ele>228</ele>
        <time>2018-09-18T14:19:51Z</time>
      </trkpt>
      <trkpt lat="47.18912" lon="5.00286">
        <ele>228.1</ele>
        <time>2018-09-18T14:19:54Z</time>
      </trkpt>
      <trkpt lat="47.18908" lon="5.00281">
        <ele>228</ele>
        <time>2018-09-18T14:19:57Z</time>
      </trkpt>
      <trkpt lat="47.18904" lon="5.00277">
        <ele>228</ele>
        <time>2018-09-18T14:20:00Z</time>
      </trkpt>
      <trkpt lat="47.189" lon="5.00273">
        <ele>227.8</ele>
        <time>2018-09-18T14:20:04Z</time>
      </trkpt>
      <trkpt lat="47.18897" lon="5.00268">
        <ele>227.7</ele>
        <time>2018-09-18T14:20:07Z</time>
      </trkpt>
      <trkpt lat="47.18894" lon="5.00263">
        <ele>227.7</ele>
        <time>2018-09-18T14:20:10Z</time>
      </trkpt>
      <trkpt lat="47.18889" lon="5.00259">
        <ele>227.5</ele>
        <time>2018-09-18T14:20:14Z</time>
      </trkpt>
      <trkpt lat="47.18884" lon="5.00253">
        <ele>227.2</ele>
        <time>2018-09-18T14:20:18Z</time>
      </trkpt>
      <trkpt lat="47.18881" lon="5.00248">
        <ele>227.1</ele>
        <time>2018-09-18T14:20:21Z</time>
      </trkpt>
      <trkpt lat="47.18876" lon="5.00244">
        <ele>226.7</ele>
        <time>2018-09-18T14:20:25Z</time>
      </trkpt>
      <trkpt lat="47.18872" lon="5.0024">
        <ele>226.4</ele>
        <time>2018-09-18T14:20:29Z</time>
      </trkpt>
      <trkpt lat="47.18867" lon="5.00236">
        <ele>226</ele>
        <time>2018-09-18T14:20:34Z</time>
      </trkpt>
      <trkpt lat="47.18863" lon="5.00231">
        <ele>225.8</ele>
        <time>2018-09-18T14:20:38Z</time>
      </trkpt>
      <trkpt lat="47.18859" lon="5.00229">
        <ele>225.4</ele>
        <time>2018-09-18T14:20:42Z</time>
      </trkpt>
      <trkpt lat="47.18855" lon="5.00226">
        <ele>225.1</ele>
        <time>2018-09-18T14:20:46Z</time>
      </trkpt>
      <trkpt lat="47.18849" lon="5.00222">
        <ele>224.7</ele>
        <time>2018-09-18T14:20:51Z</time>
      </trkpt>
      <trkpt lat="47.18845" lon="5.00216">
        <ele>224.4</ele>
        <time>2018-09-18T14:20:55Z</time>
      </trkpt>
      <trkpt lat="47.18841" lon="5.00211">
        <ele>224.1</ele>
        <time>2018-09-18T14:20:59Z</time>
      </trkpt>
      <trkpt lat="47.18836" lon="5.00207">
        <ele>223.8</ele>
        <time>2018-09-18T14:21:03Z</time>
      </trkpt>
      <trkpt lat="47.18831" lon="5.00204">
        <ele>223.5</ele>
        <time>2018-09-18T14:21:07Z</time>
      </trkpt>
      <trkpt lat="47.18827" lon="5.00202">
        <ele>223.5</ele>
        <time>2018-09-18T14:21:11Z</time>
      </trkpt>
      <trkpt lat="47.18823" lon="5.00195">
        <ele>223.5</ele>
        <time>2018-09-18T14:21:15Z</time>
      </trkpt>
      <trkpt lat="47.18819" lon="5.0019">
        <ele>223.6</ele>
        <time>2018-09-18T14:21:19Z</time>
      </trkpt>
      <trkpt lat="47.18814" lon="5.00192">
        <ele>223.5</ele>
        <time>2018-09-18T14:21:24Z</time>
      </trkpt>
      <trkpt lat="47.1881" lon="5.00187">
        <ele>223.5</ele>
        <time>2018-09-18T14:21:29Z</time>
      </trkpt>
      <trkpt lat="47.18806" lon="5.00182">
        <ele>223.5</ele>
        <time>2018-09-18T14:21:33Z</time>
      </trkpt>
      <trkpt lat="47.18802" lon="5.00178">
        <ele>223.5</ele>
        <time>2018-09-18T14:21:37Z</time>
      </trkpt>
      <trkpt lat="47.18798" lon="5.00174">
        <ele>223.5</ele>
        <time>2018-09-18T14:21:41Z</time>
      </trkpt>
      <trkpt lat="47.18794" lon="5.00171">
        <ele>223.5</ele>
        <time>2018-09-18T14:21:46Z</time>
      </trkpt>
      <trkpt lat="47.18789" lon="5.00169">
        <ele>223.4</ele>
        <time>2018-09-18T14:21:51Z</time>
      </trkpt>
      <trkpt lat="47.18784" lon="5.00165">
        <ele>223.4</ele>
        <time>2018-09-18T14:21:56Z</time>
      </trkpt>
      <trkpt lat="47.1878" lon="5.00161">
        <ele>223.4</ele>
        <time>2018-09-18T14:22:00Z</time>
      </trkpt>
      <trkpt lat="47.18776" lon="5.00158">
        <ele>223.4</ele>
        <time>2018-09-18T14:22:04Z</time>
      </trkpt>
      <trkpt lat="47.18771" lon="5.00154">
        <ele>223.4</ele>
        <time>2018-09-18T14:22:08Z</time>
      </trkpt>
      <trkpt lat="47.18767" lon="5.0015">
        <ele>223.4</ele>
        <time>2018-09-18T14:22:12Z</time>
      </trkpt>
      <trkpt lat="47.18763" lon="5.00147">
        <ele>223.4</ele>
        <time>2018-09-18T14:22:16Z</time>
      </trkpt>
      <trkpt lat="47.18759" lon="5.00142">
        <ele>223.4</ele>
        <time>2018-09-18T14:22:20Z</time>
      </trkpt>
      <trkpt lat="47.18755" lon="5.00139">
        <ele>223.4</ele>
        <time>2018-09-18T14:22:24Z</time>
      </trkpt>
      <trkpt lat="47.18751" lon="5.00134">
        <ele>223.4</ele>
        <time>2018-09-18T14:22:29Z</time>
      </trkpt>
      <trkpt lat="47.18746" lon="5.0013">
        <ele>223.4</ele>
        <time>2018-09-18T14:22:33Z</time>
      </trkpt>
      <trkpt lat="47.18742" lon="5.00128">
        <ele>223.3</ele>
        <time>2018-09-18T14:22:37Z</time>
      </trkpt>
      <trkpt lat="47.18738" lon="5.00123">
        <ele>223.3</ele>
        <time>2018-09-18T14:22:41Z</time>
      </trkpt>
      <trkpt lat="47.18735" lon="5.00119">
        <ele>223.3</ele>
        <time>2018-09-18T14:22:45Z</time>
      </trkpt>
      <trkpt lat="47.18731" lon="5.00114">
        <ele>223.3</ele>
        <time>2018-09-18T14:22:49Z</time>
      </trkpt>
      <trkpt lat="47.18727" lon="5.00109">
        <ele>223.3</ele>
        <time>2018-09-18T14:22:53Z</time>
      </trkpt>
      <trkpt lat="47.18722" lon="5.00106">
        <ele>223.3</ele>
        <time>2018-09-18T14:22:57Z</time>
      </trkpt>
      <trkpt lat="47.18718" lon="5.00103">
        <ele>223.3</ele>
        <time>2018-09-18T14:23:01Z</time>
      </trkpt>
      <trkpt lat="47.18714" lon="5.00099">
        <ele>223.3</ele>
        <time>2018-09-18T14:23:06Z</time>
      </trkpt>
      <trkpt lat="47.18709" lon="5.00095">
        <ele>223.3</ele>
        <time>2018-09-18T14:23:11Z</time>
      </trkpt>
      <trkpt lat="47.18704" lon="5.0009">
        <ele>223.3</ele>
        <time>2018-09-18T14:23:16Z</time>
      </trkpt>
      <trkpt lat="47.18701" lon="5.00087">
        <ele>223.4</ele>
        <time>2018-09-18T14:23:20Z</time>
      </trkpt>
      <trkpt lat="47.18697" lon="5.00083">
        <ele>223.4</ele>
        <time>2018-09-18T14:23:24Z</time>
      </trkpt>
      <trkpt lat="47.18693" lon="5.00079">
        <ele>223.4</ele>
        <time>2018-09-18T14:23:28Z</time>
      </trkpt>
      <trkpt lat="47.18689" lon="5.00076">
        <ele>223.5</ele>
        <time>2018-09-18T14:23:32Z</time>
      </trkpt>
      <trkpt lat="47.18685" lon="5.00072">
        <ele>223.5</ele>
        <time>2018-09-18T14:23:36Z</time>
      </trkpt>
      <trkpt lat="47.18681" lon="5.00066">
        <ele>223.7</ele>
        <time>2018-09-18T14:23:40Z</time>
      </trkpt>
      <trkpt lat="47.18677" lon="5.00062">
        <ele>223.8</ele>
        <time>2018-09-18T14:23:44Z</time>
      </trkpt>
      <trkpt lat="47.18673" lon="5.00058">
        <ele>223.9</ele>
        <time>2018-09-18T14:23:48Z</time>
      </trkpt>
      <trkpt lat="47.18668" lon="5.00054">
        <ele>224.1</ele>
        <time>2018-09-18T14:23:52Z</time>
      </trkpt>
      <trkpt lat="47.18664" lon="5.0005">
        <ele>224.3</ele>
        <time>2018-09-18T14:23:56Z</time>
      </trkpt>
      <trkpt lat="47.18661" lon="5.00046">
        <ele>224.4</ele>
        <time>2018-09-18T14:24:00Z</time>
      </trkpt>
      <trkpt lat="47.18656" lon="5.00043">
        <ele>224.6</ele>
        <time>2018-09-18T14:24:05Z</time>
      </trkpt>
      <trkpt lat="47.18651" lon="5.00039">
        <ele>224.8</ele>
        <time>2018-09-18T14:24:09Z</time>
      </trkpt>
      <trkpt lat="47.18647" lon="5.00036">
        <ele>224.9</ele>
        <time>2018-09-18T14:24:13Z</time>
      </trkpt>
      <trkpt lat="47.18643" lon="5.00031">
        <ele>225.1</ele>
        <time>2018-09-18T14:24:17Z</time>
      </trkpt>
      <trkpt lat="47.18638" lon="5.00027">
        <ele>225.3</ele>
        <time>2018-09-18T14:24:21Z</time>
      </trkpt>
      <trkpt lat="47.18634" lon="5.00023">
        <ele>225.4</ele>
        <time>2018-09-18T14:24:26Z</time>
      </trkpt>
      <trkpt lat="47.1863" lon="5.00018">
        <ele>225.5</ele>
        <time>2018-09-18T14:24:30Z</time>
      </trkpt>
      <trkpt lat="47.18626" lon="5.00014">
        <ele>225.7</ele>
        <time>2018-09-18T14:24:34Z</time>
      </trkpt>
      <trkpt lat="47.18621" lon="5.00011">
        <ele>225.8</ele>
        <time>2018-09-18T14:24:38Z</time>
      </trkpt>
      <trkpt lat="47.18617" lon="5.00008">
        <ele>225.8</ele>
        <time>2018-09-18T14:24:42Z</time>
      </trkpt>
      <trkpt lat="47.18612" lon="5.00005">
        <ele>225.9</ele>
        <time>2018-09-18T14:24:47Z</time>
      </trkpt>
      <trkpt lat="47.18607" lon="5.00002">
        <ele>226</ele>
        <time>2018-09-18T14:24:52Z</time>
      </trkpt>
      <trkpt lat="47.18603" lon="4.99997">
        <ele>226</ele>
        <time>2018-09-18T14:24:57Z</time>
      </trkpt>
      <trkpt lat="47.18599" lon="4.99992">
        <ele>226</ele>
        <time>2018-09-18T14:25:01Z</time>
      </trkpt>
      <trkpt lat="47.18595" lon="4.9999">
        <ele>226</ele>
        <time>2018-09-18T14:25:07Z</time>
      </trkpt>
      <trkpt lat="47.1859" lon="4.99986">
        <ele>226</ele>
        <time>2018-09-18T14:25:14Z</time>
      </trkpt>
      <trkpt lat="47.18586" lon="4.99982">
        <ele>226</ele>
        <time>2018-09-18T14:25:18Z</time>
      </trkpt>
      <trkpt lat="47.18583" lon="4.99976">
        <ele>226</ele>
        <time>2018-09-18T14:25:21Z</time>
      </trkpt>
      <trkpt lat="47.18579" lon="4.99971">
        <ele>226</ele>
        <time>2018-09-18T14:25:25Z</time>
      </trkpt>
      <trkpt lat="47.18575" lon="4.99967">
        <ele>226.1</ele>
        <time>2018-09-18T14:25:30Z</time>
      </trkpt>
      <trkpt lat="47.18571" lon="4.99962">
        <ele>226.1</ele>
        <time>2018-09-18T14:25:35Z</time>
      </trkpt>
      <trkpt lat="47.18568" lon="4.99956">
        <ele>226.2</ele>
        <time>2018-09-18T14:25:39Z</time>
      </trkpt>
      <trkpt lat="47.18564" lon="4.9995">
        <ele>226.2</ele>
        <time>2018-09-18T14:25:43Z</time>
      </trkpt>
      <trkpt lat="47.18561" lon="4.99944">
        <ele>226.3</ele>
        <time>2018-09-18T14:25:47Z</time>
      </trkpt>
      <trkpt lat="47.18558" lon="4.99938">
        <ele>226.3</ele>
        <time>2018-09-18T14:25:50Z</time>
      </trkpt>
      <trkpt lat="47.18555" lon="4.99931">
        <ele>226.3</ele>
        <time>2018-09-18T14:25:53Z</time>
      </trkpt>
      <trkpt lat="47.18553" lon="4.99924">
        <ele>226.4</ele>
        <time>2018-09-18T14:25:56Z</time>
      </trkpt>
      <trkpt lat="47.18549" lon="4.99917">
        <ele>226.4</ele>
        <time>2018-09-18T14:26:00Z</time>
      </trkpt>
      <trkpt lat="47.18545" lon="4.99913">
        <ele>226.5</ele>
        <time>2018-09-18T14:26:05Z</time>
      </trkpt>
      <trkpt lat="47.18541" lon="4.9991">
        <ele>226.5</ele>
        <time>2018-09-18T14:26:13Z</time>
      </trkpt>
      <trkpt lat="47.18538" lon="4.99905">
        <ele>226.5</ele>
        <time>2018-09-18T14:26:19Z</time>
      </trkpt>
      <trkpt lat="47.18534" lon="4.999">
        <ele>226.6</ele>
        <time>2018-09-18T14:26:26Z</time>
      </trkpt>
      <trkpt lat="47.1853" lon="4.99893">
        <ele>226.6</ele>
        <time>2018-09-18T14:26:31Z</time>
      </trkpt>
      <trkpt lat="47.18527" lon="4.99887">
        <ele>226.5</ele>
        <time>2018-09-18T14:26:36Z</time>
      </trkpt>
      <trkpt lat="47.18523" lon="4.99881">
        <ele>226.5</ele>
        <time>2018-09-18T14:26:42Z</time>
      </trkpt>
      <trkpt lat="47.1852" lon="4.99875">
        <ele>226.5</ele>
        <time>2018-09-18T14:26:46Z</time>
      </trkpt>
      <trkpt lat="47.18517" lon="4.99868">
        <ele>226.5</ele>
        <time>2018-09-18T14:26:51Z</time>
      </trkpt>
      <trkpt lat="47.18514" lon="4.99862">
        <ele>226.4</ele>
        <time>2018-09-18T14:26:55Z</time>
      </trkpt>
      <trkpt lat="47.18512" lon="4.99855">
        <ele>226.3</ele>
        <time>2018-09-18T14:26:59Z</time>
      </trkpt>
      <trkpt lat="47.18509" lon="4.99848">
        <ele>226.2</ele>
        <time>2018-09-18T14:27:03Z</time>
      </trkpt>
      <trkpt lat="47.18506" lon="4.99841">
        <ele>226.2</ele>
        <time>2018-09-18T14:27:07Z</time>
      </trkpt>
      <trkpt lat="47.18502" lon="4.99836">
        <ele>226.1</ele>
        <time>2018-09-18T14:27:12Z</time>
      </trkpt>
      <trkpt lat="47.18497" lon="4.99832">
        <ele>226</ele>
        <time>2018-09-18T14:27:18Z</time>
      </trkpt>
      <trkpt lat="47.18494" lon="4.99827">
        <ele>226.1</ele>
        <time>2018-09-18T14:27:23Z</time>
      </trkpt>
      <trkpt lat="47.18491" lon="4.99822">
        <ele>226.1</ele>
        <time>2018-09-18T14:27:27Z</time>
      </trkpt>
      <trkpt lat="47.18487" lon="4.99816">
        <ele>226.2</ele>
        <time>2018-09-18T14:27:33Z</time>
      </trkpt>
      <trkpt lat="47.18483" lon="4.99812">
        <ele>226.2</ele>
        <time>2018-09-18T14:27:37Z</time>
      </trkpt>
      <trkpt lat="47.18479" lon="4.99807">
        <ele>226.2</ele>
        <time>2018-09-18T14:27:42Z</time>
      </trkpt>
      <trkpt lat="47.18475" lon="4.99802">
        <ele>226.2</ele>
        <time>2018-09-18T14:27:46Z</time>
      </trkpt>
      <trkpt lat="47.18471" lon="4.99798">
        <ele>226.1</ele>
        <time>2018-09-18T14:27:50Z</time>
      </trkpt>
      <trkpt lat="47.18468" lon="4.99794">
        <ele>226.1</ele>
        <time>2018-09-18T14:27:54Z</time>
      </trkpt>
      <trkpt lat="47.18463" lon="4.99789">
        <ele>226.1</ele>
        <time>2018-09-18T14:28:00Z</time>
      </trkpt>
      <trkpt lat="47.18459" lon="4.99784">
        <ele>226</ele>
        <time>2018-09-18T14:28:04Z</time>
      </trkpt>
      <trkpt lat="47.18455" lon="4.99781">
        <ele>225.9</ele>
        <time>2018-09-18T14:28:09Z</time>
      </trkpt>
      <trkpt lat="47.18451" lon="4.99776">
        <ele>225.9</ele>
        <time>2018-09-18T14:28:14Z</time>
      </trkpt>
      <trkpt lat="47.18447" lon="4.9977">
        <ele>225.8</ele>
        <time>2018-09-18T14:28:18Z</time>
      </trkpt>
      <trkpt lat="47.18443" lon="4.99764">
        <ele>225.7</ele>
        <time>2018-09-18T14:28:22Z</time>
      </trkpt>
      <trkpt lat="47.18439" lon="4.99761">
        <ele>225.6</ele>
        <time>2018-09-18T14:28:26Z</time>
      </trkpt>
      <trkpt lat="47.18435" lon="4.99756">
        <ele>225.5</ele>
        <time>2018-09-18T14:28:30Z</time>
      </trkpt>
      <trkpt lat="47.18431" lon="4.99753">
        <ele>225.4</ele>
        <time>2018-09-18T14:28:34Z</time>
      </trkpt>
      <trkpt lat="47.18427" lon="4.99748">
        <ele>225.3</ele>
        <time>2018-09-18T14:28:39Z</time>
      </trkpt>
      <trkpt lat="47.18425" lon="4.99741">
        <ele>225.2</ele>
        <time>2018-09-18T14:28:44Z</time>
      </trkpt>
      <trkpt lat="47.18424" lon="4.99734">
        <ele>225.2</ele>
        <time>2018-09-18T14:28:50Z</time>
      </trkpt>
      <trkpt lat="47.18427" lon="4.99727">
        <ele>225.3</ele>
        <time>2018-09-18T14:28:59Z</time>
      </trkpt>
      <trkpt lat="47.18428" lon="4.9972">
        <ele>225.3</ele>
        <time>2018-09-18T14:29:03Z</time>
      </trkpt>
      <trkpt lat="47.1843" lon="4.99713">
        <ele>225.4</ele>
        <time>2018-09-18T14:29:08Z</time>
      </trkpt>
      <trkpt lat="47.1843" lon="4.99706">
        <ele>225.4</ele>
        <time>2018-09-18T14:29:13Z</time>
      </trkpt>
      <trkpt lat="47.18428" lon="4.997">
        <ele>225.4</ele>
        <time>2018-09-18T14:29:37Z</time>
      </trkpt>
      <trkpt lat="47.1843" lon="4.99692">
        <ele>225.4</ele>
        <time>2018-09-18T14:29:46Z</time>
      </trkpt>
      <trkpt lat="47.18432" lon="4.99685">
        <ele>225.5</ele>
        <time>2018-09-18T14:29:50Z</time>
      </trkpt>
      <trkpt lat="47.18435" lon="4.9968">
        <ele>225.6</ele>
        <time>2018-09-18T14:29:54Z</time>
      </trkpt>
      <trkpt lat="47.18438" lon="4.99673">
        <ele>225.7</ele>
        <time>2018-09-18T14:29:59Z</time>
      </trkpt>
      <trkpt lat="47.1844" lon="4.99667">
        <ele>225.8</ele>
        <time>2018-09-18T14:30:04Z</time>
      </trkpt>
      <trkpt lat="47.18442" lon="4.99661">
        <ele>225.8</ele>
        <time>2018-09-18T14:30:09Z</time>
      </trkpt>
      <trkpt lat="47.18441" lon="4.99653">
        <ele>225.6</ele>
        <time>2018-09-18T14:30:14Z</time>
      </trkpt>
      <trkpt lat="47.18442" lon="4.99646">
        <ele>225.5</ele>
        <time>2018-09-18T14:30:18Z</time>
      </trkpt>
      <trkpt lat="47.18444" lon="4.9964">
        <ele>225.4</ele>
        <time>2018-09-18T14:30:22Z</time>
      </trkpt>
      <trkpt lat="47.18446" lon="4.99634">
        <ele>225.4</ele>
        <time>2018-09-18T14:30:26Z</time>
      </trkpt>
      <trkpt lat="47.18447" lon="4.99626">
        <ele>225.3</ele>
        <time>2018-09-18T14:30:31Z</time>
      </trkpt>
      <trkpt lat="47.1845" lon="4.9962">
        <ele>225.2</ele>
        <time>2018-09-18T14:30:35Z</time>
      </trkpt>
      <trkpt lat="47.18453" lon="4.99615">
        <ele>225.1</ele>
        <time>2018-09-18T14:30:39Z</time>
      </trkpt>
      <trkpt lat="47.18456" lon="4.99608">
        <ele>225.1</ele>
        <time>2018-09-18T14:30:44Z</time>
      </trkpt>
      <trkpt lat="47.18458" lon="4.99602">
        <ele>224.9</ele>
        <time>2018-09-18T14:30:49Z</time>
      </trkpt>
      <trkpt lat="47.18461" lon="4.99595">
        <ele>224.8</ele>
        <time>2018-09-18T14:30:54Z</time>
      </trkpt>
      <trkpt lat="47.18463" lon="4.99589">
        <ele>224.7</ele>
        <time>2018-09-18T14:30:58Z</time>
      </trkpt>
      <trkpt lat="47.18467" lon="4.99584">
        <ele>224.6</ele>
        <time>2018-09-18T14:31:02Z</time>
      </trkpt>
      <trkpt lat="47.18471" lon="4.99579">
        <ele>224.7</ele>
        <time>2018-09-18T14:31:06Z</time>
      </trkpt>
      <trkpt lat="47.18475" lon="4.99574">
        <ele>224.8</ele>
        <time>2018-09-18T14:31:10Z</time>
      </trkpt>
      <trkpt lat="47.18478" lon="4.99568">
        <ele>224.9</ele>
        <time>2018-09-18T14:31:14Z</time>
      </trkpt>
      <trkpt lat="47.18481" lon="4.99563">
        <ele>225</ele>
        <time>2018-09-18T14:31:19Z</time>
      </trkpt>
      <trkpt lat="47.18485" lon="4.9956">
        <ele>225.1</ele>
        <time>2018-09-18T14:31:23Z</time>
      </trkpt>
      <trkpt lat="47.18489" lon="4.99555">
        <ele>225.2</ele>
        <time>2018-09-18T14:31:27Z</time>
      </trkpt>
      <trkpt lat="47.18493" lon="4.99552">
        <ele>225.3</ele>
        <time>2018-09-18T14:31:31Z</time>
      </trkpt>
      <trkpt lat="47.18498" lon="4.99548">
        <ele>225.4</ele>
        <time>2018-09-18T14:31:35Z</time>
      </trkpt>
      <trkpt lat="47.18502" lon="4.99544">
        <ele>225.5</ele>
        <time>2018-09-18T14:31:39Z</time>
      </trkpt>
      <trkpt lat="47.18505" lon="4.99539">
        <ele>225.5</ele>
        <time>2018-09-18T14:31:43Z</time>
      </trkpt>
      <trkpt lat="47.18509" lon="4.99535">
        <ele>225.6</ele>
        <time>2018-09-18T14:31:47Z</time>
      </trkpt>
      <trkpt lat="47.18513" lon="4.9953">
        <ele>225.6</ele>
        <time>2018-09-18T14:31:52Z</time>
      </trkpt>
      <trkpt lat="47.18517" lon="4.99525">
        <ele>225.6</ele>
        <time>2018-09-18T14:31:57Z</time>
      </trkpt>
      <trkpt lat="47.1852" lon="4.9952">
        <ele>225.6</ele>
        <time>2018-09-18T14:32:02Z</time>
      </trkpt>
      <trkpt lat="47.18524" lon="4.99516">
        <ele>225.6</ele>
        <time>2018-09-18T14:32:06Z</time>
      </trkpt>
      <trkpt lat="47.18528" lon="4.99513">
        <ele>225.6</ele>
        <time>2018-09-18T14:32:10Z</time>
      </trkpt>
      <trkpt lat="47.18532" lon="4.99509">
        <ele>225.6</ele>
        <time>2018-09-18T14:32:13Z</time>
      </trkpt>
      <trkpt lat="47.18538" lon="4.99506">
        <ele>225.5</ele>
        <time>2018-09-18T14:32:17Z</time>
      </trkpt>
      <trkpt lat="47.18542" lon="4.99504">
        <ele>225.5</ele>
        <time>2018-09-18T14:32:21Z</time>
      </trkpt>
      <trkpt lat="47.18547" lon="4.995">
        <ele>225.4</ele>
        <time>2018-09-18T14:32:26Z</time>
      </trkpt>
      <trkpt lat="47.18551" lon="4.99496">
        <ele>225.3</ele>
        <time>2018-09-18T14:32:31Z</time>
      </trkpt>
      <trkpt lat="47.18555" lon="4.99491">
        <ele>225.2</ele>
        <time>2018-09-18T14:32:38Z</time>
      </trkpt>
      <trkpt lat="47.18559" lon="4.99487">
        <ele>225.1</ele>
        <time>2018-09-18T14:32:42Z</time>
      </trkpt>
      <trkpt lat="47.18563" lon="4.99483">
        <ele>225</ele>
        <time>2018-09-18T14:32:47Z</time>
      </trkpt>
      <trkpt lat="47.18568" lon="4.9948">
        <ele>224.9</ele>
        <time>2018-09-18T14:32:52Z</time>
      </trkpt>
      <trkpt lat="47.18573" lon="4.99477">
        <ele>224.8</ele>
        <time>2018-09-18T14:32:56Z</time>
      </trkpt>
      <trkpt lat="47.18578" lon="4.99473">
        <ele>224.7</ele>
        <time>2018-09-18T14:33:01Z</time>
      </trkpt>
      <trkpt lat="47.18582" lon="4.99469">
        <ele>224.6</ele>
        <time>2018-09-18T14:33:06Z</time>
      </trkpt>
      <trkpt lat="47.18587" lon="4.99466">
        <ele>224.7</ele>
        <time>2018-09-18T14:33:13Z</time>
      </trkpt>
      <trkpt lat="47.18592" lon="4.99461">
        <ele>224.7</ele>
        <time>2018-09-18T14:33:23Z</time>
      </trkpt>
      <trkpt lat="47.18596" lon="4.99459">
        <ele>224.8</ele>
        <time>2018-09-18T14:33:26Z</time>
      </trkpt>
      <trkpt lat="47.18601" lon="4.99454">
        <ele>224.9</ele>
        <time>2018-09-18T14:33:30Z</time>
      </trkpt>
      <trkpt lat="47.18606" lon="4.99451">
        <ele>225</ele>
        <time>2018-09-18T14:33:33Z</time>
      </trkpt>
      <trkpt lat="47.18611" lon="4.99448">
        <ele>225</ele>
        <time>2018-09-18T14:33:36Z</time>
      </trkpt>
      <trkpt lat="47.18615" lon="4.99445">
        <ele>225.1</ele>
        <time>2018-09-18T14:33:39Z</time>
      </trkpt>
      <trkpt lat="47.1862" lon="4.99441">
        <ele>225.2</ele>
        <time>2018-09-18T14:33:43Z</time>
      </trkpt>
      <trkpt lat="47.18624" lon="4.99437">
        <ele>225.2</ele>
        <time>2018-09-18T14:33:49Z</time>
      </trkpt>
      <trkpt lat="47.18628" lon="4.9944">
        <ele>225.4</ele>
        <time>2018-09-18T14:33:54Z</time>
      </trkpt>
      <trkpt lat="47.18632" lon="4.99435">
        <ele>225.4</ele>
        <time>2018-09-18T14:35:55Z</time>
      </trkpt>
      <trkpt lat="47.18636" lon="4.99433">
        <ele>225.5</ele>
        <time>2018-09-18T14:36:08Z</time>
      </trkpt>
      <trkpt lat="47.1864" lon="4.99429">
        <ele>225.5</ele>
        <time>2018-09-18T14:36:13Z</time>
      </trkpt>
      <trkpt lat="47.18645" lon="4.99426">
        <ele>225.6</ele>
        <time>2018-09-18T14:36:24Z</time>
      </trkpt>
      <trkpt lat="47.18648" lon="4.99421">
        <ele>225.6</ele>
        <time>2018-09-18T14:36:29Z</time>
      </trkpt>
      <trkpt lat="47.18652" lon="4.99416">
        <ele>225.6</ele>
        <time>2018-09-18T14:36:34Z</time>
      </trkpt>
      <trkpt lat="47.18655" lon="4.99411">
        <ele>225.7</ele>
        <time>2018-09-18T14:36:38Z</time>
      </trkpt>
      <trkpt lat="47.18659" lon="4.99408">
        <ele>225.8</ele>
        <time>2018-09-18T14:36:42Z</time>
      </trkpt>
      <trkpt lat="47.18664" lon="4.99404">
        <ele>225.9</ele>
        <time>2018-09-18T14:36:47Z</time>
      </trkpt>
      <trkpt lat="47.18668" lon="4.99401">
        <ele>226</ele>
        <time>2018-09-18T14:36:51Z</time>
      </trkpt>
      <trkpt lat="47.18672" lon="4.99397">
        <ele>225.9</ele>
        <time>2018-09-18T14:36:55Z</time>
      </trkpt>
      <trkpt lat="47.18677" lon="4.99396">
        <ele>225.8</ele>
        <time>2018-09-18T14:37:02Z</time>
      </trkpt>
      <trkpt lat="47.18682" lon="4.99393">
        <ele>225.7</ele>
        <time>2018-09-18T14:37:06Z</time>
      </trkpt>
      <trkpt lat="47.18687" lon="4.9939">
        <ele>225.6</ele>
        <time>2018-09-18T14:37:10Z</time>
      </trkpt>
      <trkpt lat="47.18691" lon="4.99384">
        <ele>225.5</ele>
        <time>2018-09-18T14:37:16Z</time>
      </trkpt>
      <trkpt lat="47.18696" lon="4.99381">
        <ele>225.4</ele>
        <time>2018-09-18T14:37:19Z</time>
      </trkpt>
      <trkpt lat="47.18701" lon="4.99378">
        <ele>225.4</ele>
        <time>2018-09-18T14:37:23Z</time>
      </trkpt>
      <trkpt lat="47.18705" lon="4.99374">
        <ele>225.3</ele>
        <time>2018-09-18T14:37:27Z</time>
      </trkpt>
      <trkpt lat="47.18708" lon="4.99369">
        <ele>225.3</ele>
        <time>2018-09-18T14:37:31Z</time>
      </trkpt>
      <trkpt lat="47.18712" lon="4.99363">
        <ele>225.3</ele>
        <time>2018-09-18T14:37:36Z</time>
      </trkpt>
      <trkpt lat="47.18715" lon="4.99358">
        <ele>225.3</ele>
        <time>2018-09-18T14:37:40Z</time>
      </trkpt>
      <trkpt lat="47.18719" lon="4.99353">
        <ele>225.2</ele>
        <time>2018-09-18T14:37:44Z</time>
      </trkpt>
      <trkpt lat="47.18723" lon="4.99348">
        <ele>225.2</ele>
        <time>2018-09-18T14:37:48Z</time>
      </trkpt>
      <trkpt lat="47.18727" lon="4.99343">
        <ele>225.2</ele>
        <time>2018-09-18T14:37:52Z</time>
      </trkpt>
      <trkpt lat="47.1873" lon="4.99338">
        <ele>225.2</ele>
        <time>2018-09-18T14:37:56Z</time>
      </trkpt>
      <trkpt lat="47.18733" lon="4.99331">
        <ele>225.2</ele>
        <time>2018-09-18T14:38:01Z</time>
      </trkpt>
      <trkpt lat="47.18736" lon="4.99326">
        <ele>225.2</ele>
        <time>2018-09-18T14:38:05Z</time>
      </trkpt>
      <trkpt lat="47.18738" lon="4.99319">
        <ele>225.3</ele>
        <time>2018-09-18T14:38:10Z</time>
      </trkpt>
      <trkpt lat="47.18741" lon="4.99313">
        <ele>225.3</ele>
        <time>2018-09-18T14:38:14Z</time>
      </trkpt>
      <trkpt lat="47.18743" lon="4.99307">
        <ele>225.4</ele>
        <time>2018-09-18T14:38:18Z</time>
      </trkpt>
      <trkpt lat="47.18746" lon="4.99299">
        <ele>225.4</ele>
        <time>2018-09-18T14:38:23Z</time>
      </trkpt>
      <trkpt lat="47.18747" lon="4.99292">
        <ele>225.5</ele>
        <time>2018-09-18T14:38:28Z</time>
      </trkpt>
      <trkpt lat="47.1875" lon="4.99287">
        <ele>225.6</ele>
        <time>2018-09-18T14:38:32Z</time>
      </trkpt>
      <trkpt lat="47.18752" lon="4.9928">
        <ele>225.7</ele>
        <time>2018-09-18T14:38:37Z</time>
      </trkpt>
      <trkpt lat="47.18755" lon="4.99273">
        <ele>225.9</ele>
        <time>2018-09-18T14:38:42Z</time>
      </trkpt>
      <trkpt lat="47.18757" lon="4.99266">
        <ele>226.1</ele>
        <time>2018-09-18T14:38:46Z</time>
      </trkpt>
      <trkpt lat="47.18759" lon="4.99261">
        <ele>226.2</ele>
        <time>2018-09-18T14:38:50Z</time>
      </trkpt>
      <trkpt lat="47.18761" lon="4.99254">
        <ele>226.4</ele>
        <time>2018-09-18T14:39:00Z</time>
      </trkpt>
      <trkpt lat="47.18764" lon="4.99245">
        <ele>226.6</ele>
        <time>2018-09-18T14:39:04Z</time>
      </trkpt>
      <trkpt lat="47.18766" lon="4.99238">
        <ele>226.7</ele>
        <time>2018-09-18T14:39:07Z</time>
      </trkpt>
      <trkpt lat="47.18767" lon="4.9923">
        <ele>226.8</ele>
        <time>2018-09-18T14:39:12Z</time>
      </trkpt>
      <trkpt lat="47.18768" lon="4.99223">
        <ele>227</ele>
        <time>2018-09-18T14:39:16Z</time>
      </trkpt>
      <trkpt lat="47.18769" lon="4.99215">
        <ele>227.1</ele>
        <time>2018-09-18T14:39:20Z</time>
      </trkpt>
      <trkpt lat="47.1877" lon="4.99207">
        <ele>227.2</ele>
        <time>2018-09-18T14:39:24Z</time>
      </trkpt>
      <trkpt lat="47.18772" lon="4.992">
        <ele>227.4</ele>
        <time>2018-09-18T14:39:29Z</time>
      </trkpt>
      <trkpt lat="47.18772" lon="4.99193">
        <ele>227.5</ele>
        <time>2018-09-18T14:39:36Z</time>
      </trkpt>
      <trkpt lat="47.18771" lon="4.99186">
        <ele>227.6</ele>
        <time>2018-09-18T14:39:45Z</time>
      </trkpt>
      <trkpt lat="47.18771" lon="4.99178">
        <ele>227.6</ele>
        <time>2018-09-18T14:39:49Z</time>
      </trkpt>
      <trkpt lat="47.18771" lon="4.9917">
        <ele>227.7</ele>
        <time>2018-09-18T14:39:52Z</time>
      </trkpt>
      <trkpt lat="47.18773" lon="4.99162">
        <ele>227.9</ele>
        <time>2018-09-18T14:39:55Z</time>
      </trkpt>
      <trkpt lat="47.18773" lon="4.99154">
        <ele>228.1</ele>
        <time>2018-09-18T14:39:58Z</time>
      </trkpt>
      <trkpt lat="47.18773" lon="4.99147">
        <ele>228.3</ele>
        <time>2018-09-18T14:40:01Z</time>
      </trkpt>
      <trkpt lat="47.18773" lon="4.99139">
        <ele>228.5</ele>
        <time>2018-09-18T14:40:05Z</time>
      </trkpt>
      <trkpt lat="47.18774" lon="4.99132">
        <ele>228.7</ele>
        <time>2018-09-18T14:40:12Z</time>
      </trkpt>
      <trkpt lat="47.18775" lon="4.99125">
        <ele>228.9</ele>
        <time>2018-09-18T14:40:19Z</time>
      </trkpt>
      <trkpt lat="47.18776" lon="4.99117">
        <ele>229.1</ele>
        <time>2018-09-18T14:40:24Z</time>
      </trkpt>
      <trkpt lat="47.18776" lon="4.9911">
        <ele>229.3</ele>
        <time>2018-09-18T14:40:29Z</time>
      </trkpt>
      <trkpt lat="47.18777" lon="4.99102">
        <ele>229.5</ele>
        <time>2018-09-18T14:40:32Z</time>
      </trkpt>
      <trkpt lat="47.18777" lon="4.99095">
        <ele>229.7</ele>
        <time>2018-09-18T14:40:35Z</time>
      </trkpt>
      <trkpt lat="47.18777" lon="4.99088">
        <ele>229.9</ele>
        <time>2018-09-18T14:40:38Z</time>
      </trkpt>
      <trkpt lat="47.18779" lon="4.9908">
        <ele>230.4</ele>
        <time>2018-09-18T14:40:42Z</time>
      </trkpt>
      <trkpt lat="47.18779" lon="4.99072">
        <ele>230.9</ele>
        <time>2018-09-18T14:40:46Z</time>
      </trkpt>
      <trkpt lat="47.18781" lon="4.99066">
        <ele>231.5</ele>
        <time>2018-09-18T14:40:49Z</time>
      </trkpt>
      <trkpt lat="47.18782" lon="4.9906">
        <ele>232.1</ele>
        <time>2018-09-18T14:40:52Z</time>
      </trkpt>
      <trkpt lat="47.18783" lon="4.99053">
        <ele>232.6</ele>
        <time>2018-09-18T14:40:56Z</time>
      </trkpt>
      <trkpt lat="47.18783" lon="4.99046">
        <ele>233.1</ele>
        <time>2018-09-18T14:41:01Z</time>
      </trkpt>
      <trkpt lat="47.18783" lon="4.99039">
        <ele>233.6</ele>
        <time>2018-09-18T14:41:06Z</time>
      </trkpt>
      <trkpt lat="47.18783" lon="4.99032">
        <ele>234.2</ele>
        <time>2018-09-18T14:41:11Z</time>
      </trkpt>
      <trkpt lat="47.18785" lon="4.99025">
        <ele>234.8</ele>
        <time>2018-09-18T14:41:15Z</time>
      </trkpt>
      <trkpt lat="47.18787" lon="4.99019">
        <ele>235.4</ele>
        <time>2018-09-18T14:41:19Z</time>
      </trkpt>
      <trkpt lat="47.18788" lon="4.99011">
        <ele>236</ele>
        <time>2018-09-18T14:41:24Z</time>
      </trkpt>
      <trkpt lat="47.1879" lon="4.99004">
        <ele>236.7</ele>
        <time>2018-09-18T14:41:29Z</time>
      </trkpt>
      <trkpt lat="47.18792" lon="4.98997">
        <ele>237.2</ele>
        <time>2018-09-18T14:41:34Z</time>
      </trkpt>
      <trkpt lat="47.18794" lon="4.9899">
        <ele>237.5</ele>
        <time>2018-09-18T14:41:39Z</time>
      </trkpt>
      <trkpt lat="47.18795" lon="4.98983">
        <ele>237.9</ele>
        <time>2018-09-18T14:41:44Z</time>
      </trkpt>
      <trkpt lat="47.18796" lon="4.98976">
        <ele>238.3</ele>
        <time>2018-09-18T14:41:48Z</time>
      </trkpt>
      <trkpt lat="47.18795" lon="4.98969">
        <ele>238.5</ele>
        <time>2018-09-18T14:41:52Z</time>
      </trkpt>
      <trkpt lat="47.18795" lon="4.98962">
        <ele>238.8</ele>
        <time>2018-09-18T14:41:57Z</time>
      </trkpt>
      <trkpt lat="47.18796" lon="4.98955">
        <ele>239.2</ele>
        <time>2018-09-18T14:42:02Z</time>
      </trkpt>
      <trkpt lat="47.18796" lon="4.98949">
        <ele>239.4</ele>
        <time>2018-09-18T14:42:06Z</time>
      </trkpt>
      <trkpt lat="47.18796" lon="4.98941">
        <ele>239.7</ele>
        <time>2018-09-18T14:42:10Z</time>
      </trkpt>
      <trkpt lat="47.18797" lon="4.98934">
        <ele>240.1</ele>
        <time>2018-09-18T14:42:14Z</time>
      </trkpt>
      <trkpt lat="47.18797" lon="4.98927">
        <ele>240.4</ele>
        <time>2018-09-18T14:42:18Z</time>
      </trkpt>
      <trkpt lat="47.18799" lon="4.9892">
        <ele>240.8</ele>
        <time>2018-09-18T14:42:23Z</time>
      </trkpt>
      <trkpt lat="47.18799" lon="4.98912">
        <ele>240.9</ele>
        <time>2018-09-18T14:42:28Z</time>
      </trkpt>
      <trkpt lat="47.18799" lon="4.98905">
        <ele>240.7</ele>
        <time>2018-09-18T14:42:32Z</time>
      </trkpt>
      <trkpt lat="47.18798" lon="4.98898">
        <ele>240.6</ele>
        <time>2018-09-18T14:42:36Z</time>
      </trkpt>
      <trkpt lat="47.188" lon="4.98891">
        <ele>240.6</ele>
        <time>2018-09-18T14:42:41Z</time>
      </trkpt>
      <trkpt lat="47.18799" lon="4.98884">
        <ele>240.5</ele>
        <time>2018-09-18T14:42:46Z</time>
      </trkpt>
      <trkpt lat="47.188" lon="4.98876">
        <ele>240.4</ele>
        <time>2018-09-18T14:42:51Z</time>
      </trkpt>
      <trkpt lat="47.18802" lon="4.9887">
        <ele>240.4</ele>
        <time>2018-09-18T14:42:56Z</time>
      </trkpt>
      <trkpt lat="47.18803" lon="4.98862">
        <ele>240.3</ele>
        <time>2018-09-18T14:43:02Z</time>
      </trkpt>
      <trkpt lat="47.18804" lon="4.98856">
        <ele>240.3</ele>
        <time>2018-09-18T14:43:07Z</time>
      </trkpt>
      <trkpt lat="47.18805" lon="4.98848">
        <ele>240.2</ele>
        <time>2018-09-18T14:43:12Z</time>
      </trkpt>
      <trkpt lat="47.18806" lon="4.98841">
        <ele>240.1</ele>
        <time>2018-09-18T14:43:17Z</time>
      </trkpt>
      <trkpt lat="47.18808" lon="4.98834">
        <ele>240.1</ele>
        <time>2018-09-18T14:43:22Z</time>
      </trkpt>
      <trkpt lat="47.1881" lon="4.98827">
        <ele>239.7</ele>
        <time>2018-09-18T14:43:28Z</time>
      </trkpt>
      <trkpt lat="47.18809" lon="4.98819">
        <ele>239.3</ele>
        <time>2018-09-18T14:43:33Z</time>
      </trkpt>
      <trkpt lat="47.1881" lon="4.98811">
        <ele>238.8</ele>
        <time>2018-09-18T14:43:38Z</time>
      </trkpt>
      <trkpt lat="47.18809" lon="4.98805">
        <ele>238.3</ele>
        <time>2018-09-18T14:43:42Z</time>
      </trkpt>
      <trkpt lat="47.1881" lon="4.98797">
        <ele>237.9</ele>
        <time>2018-09-18T14:43:46Z</time>
      </trkpt>
      <trkpt lat="47.18809" lon="4.9879">
        <ele>237.4</ele>
        <time>2018-09-18T14:43:51Z</time>
      </trkpt>
      <trkpt lat="47.18808" lon="4.98783">
        <ele>237</ele>
        <time>2018-09-18T14:43:56Z</time>
      </trkpt>
      <trkpt lat="47.18806" lon="4.98776">
        <ele>236.6</ele>
        <time>2018-09-18T14:44:00Z</time>
      </trkpt>
      <trkpt lat="47.18807" lon="4.98768">
        <ele>236</ele>
        <time>2018-09-18T14:44:05Z</time>
      </trkpt>
      <trkpt lat="47.18809" lon="4.98761">
        <ele>235.6</ele>
        <time>2018-09-18T14:44:09Z</time>
      </trkpt>
      <trkpt lat="47.18811" lon="4.98754">
        <ele>235.2</ele>
        <time>2018-09-18T14:44:15Z</time>
      </trkpt>
      <trkpt lat="47.1881" lon="4.98747">
        <ele>234.9</ele>
        <time>2018-09-18T14:44:20Z</time>
      </trkpt>
      <trkpt lat="47.1881" lon="4.98738">
        <ele>234.6</ele>
        <time>2018-09-18T14:44:25Z</time>
      </trkpt>
      <trkpt lat="47.18808" lon="4.98731">
        <ele>234.4</ele>
        <time>2018-09-18T14:44:29Z</time>
      </trkpt>
      <trkpt lat="47.18807" lon="4.98724">
        <ele>234.1</ele>
        <time>2018-09-18T14:44:33Z</time>
      </trkpt>
      <trkpt lat="47.18806" lon="4.98716">
        <ele>233.9</ele>
        <time>2018-09-18T14:44:38Z</time>
      </trkpt>
      <trkpt lat="47.18805" lon="4.98709">
        <ele>233.7</ele>
        <time>2018-09-18T14:44:42Z</time>
      </trkpt>
      <trkpt lat="47.18805" lon="4.98701">
        <ele>233.4</ele>
        <time>2018-09-18T14:44:46Z</time>
      </trkpt>
      <trkpt lat="47.18803" lon="4.98694">
        <ele>233.2</ele>
        <time>2018-09-18T14:44:49Z</time>
      </trkpt>
      <trkpt lat="47.18801" lon="4.98688">
        <ele>233</ele>
        <time>2018-09-18T14:44:53Z</time>
      </trkpt>
      <trkpt lat="47.18798" lon="4.98682">
        <ele>232.9</ele>
        <time>2018-09-18T14:45:04Z</time>
      </trkpt>
      <trkpt lat="47.18793" lon="4.98678">
        <ele>232.8</ele>
        <time>2018-09-18T14:45:08Z</time>
      </trkpt>
      <trkpt lat="47.1879" lon="4.98675">
        <ele>232.8</ele>
        <time>2018-09-18T14:45:11Z</time>
      </trkpt>
      <trkpt lat="47.18785" lon="4.98671">
        <ele>232.7</ele>
        <time>2018-09-18T14:45:15Z</time>
      </trkpt>
      <trkpt lat="47.1878" lon="4.98667">
        <ele>232.6</ele>
        <time>2018-09-18T14:45:19Z</time>
      </trkpt>
      <trkpt lat="47.18775" lon="4.98666">
        <ele>232.7</ele>
        <time>2018-09-18T14:45:23Z</time>
      </trkpt>
      <trkpt lat="47.1877" lon="4.98664">
        <ele>232.7</ele>
        <time>2018-09-18T14:45:27Z</time>
      </trkpt>
      <trkpt lat="47.18765" lon="4.98659">
        <ele>232.7</ele>
        <time>2018-09-18T14:45:31Z</time>
      </trkpt>
      <trkpt lat="47.18761" lon="4.98656">
        <ele>232.7</ele>
        <time>2018-09-18T14:45:35Z</time>
      </trkpt>
      <trkpt lat="47.18756" lon="4.98654">
        <ele>232.7</ele>
        <time>2018-09-18T14:45:39Z</time>
      </trkpt>
      <trkpt lat="47.18751" lon="4.98651">
        <ele>232.6</ele>
        <time>2018-09-18T14:45:43Z</time>
      </trkpt>
      <trkpt lat="47.18746" lon="4.98649">
        <ele>232.5</ele>
        <time>2018-09-18T14:45:47Z</time>
      </trkpt>
      <trkpt lat="47.18741" lon="4.98648">
        <ele>232.3</ele>
        <time>2018-09-18T14:45:51Z</time>
      </trkpt>
      <trkpt lat="47.18737" lon="4.98645">
        <ele>232.1</ele>
        <time>2018-09-18T14:45:55Z</time>
      </trkpt>
      <trkpt lat="47.18732" lon="4.98645">
        <ele>231.9</ele>
        <time>2018-09-18T14:45:59Z</time>
      </trkpt>
      <trkpt lat="47.18727" lon="4.98645">
        <ele>231.8</ele>
        <time>2018-09-18T14:46:03Z</time>
      </trkpt>
      <trkpt lat="47.18723" lon="4.98643">
        <ele>231.6</ele>
        <time>2018-09-18T14:46:08Z</time>
      </trkpt>
      <trkpt lat="47.18717" lon="4.98642">
        <ele>231.5</ele>
        <time>2018-09-18T14:46:13Z</time>
      </trkpt>
      <trkpt lat="47.18713" lon="4.98639">
        <ele>231.3</ele>
        <time>2018-09-18T14:46:18Z</time>
      </trkpt>
      <trkpt lat="47.18708" lon="4.98635">
        <ele>231.1</ele>
        <time>2018-09-18T14:46:22Z</time>
      </trkpt>
      <trkpt lat="47.18704" lon="4.98632">
        <ele>231</ele>
        <time>2018-09-18T14:46:27Z</time>
      </trkpt>
      <trkpt lat="47.18699" lon="4.98627">
        <ele>230.8</ele>
        <time>2018-09-18T14:46:31Z</time>
      </trkpt>
      <trkpt lat="47.18694" lon="4.98624">
        <ele>230.6</ele>
        <time>2018-09-18T14:46:36Z</time>
      </trkpt>
      <trkpt lat="47.1869" lon="4.98619">
        <ele>230.5</ele>
        <time>2018-09-18T14:46:41Z</time>
      </trkpt>
      <trkpt lat="47.18686" lon="4.98615">
        <ele>230.4</ele>
        <time>2018-09-18T14:46:45Z</time>
      </trkpt>
      <trkpt lat="47.18682" lon="4.98612">
        <ele>230.3</ele>
        <time>2018-09-18T14:46:49Z</time>
      </trkpt>
      <trkpt lat="47.18678" lon="4.98608">
        <ele>230.2</ele>
        <time>2018-09-18T14:46:54Z</time>
      </trkpt>
      <trkpt lat="47.18674" lon="4.98604">
        <ele>230.1</ele>
        <time>2018-09-18T14:46:59Z</time>
      </trkpt>
      <trkpt lat="47.18669" lon="4.986">
        <ele>230</ele>
        <time>2018-09-18T14:47:04Z</time>
      </trkpt>
      <trkpt lat="47.18665" lon="4.98596">
        <ele>230</ele>
        <time>2018-09-18T14:47:09Z</time>
      </trkpt>
      <trkpt lat="47.18661" lon="4.98591">
        <ele>230.1</ele>
        <time>2018-09-18T14:47:14Z</time>
      </trkpt>
      <trkpt lat="47.18658" lon="4.98586">
        <ele>230.1</ele>
        <time>2018-09-18T14:47:18Z</time>
      </trkpt>
      <trkpt lat="47.18655" lon="4.9858">
        <ele>230.2</ele>
        <time>2018-09-18T14:47:22Z</time>
      </trkpt>
      <trkpt lat="47.18651" lon="4.98575">
        <ele>230.3</ele>
        <time>2018-09-18T14:47:26Z</time>
      </trkpt>
      <trkpt lat="47.18648" lon="4.98569">
        <ele>230.4</ele>
        <time>2018-09-18T14:47:30Z</time>
      </trkpt>
      <trkpt lat="47.18643" lon="4.98564">
        <ele>230.5</ele>
        <time>2018-09-18T14:47:34Z</time>
      </trkpt>
      <trkpt lat="47.18639" lon="4.98561">
        <ele>230.6</ele>
        <time>2018-09-18T14:47:39Z</time>
      </trkpt>
      <trkpt lat="47.18636" lon="4.98555">
        <ele>230.7</ele>
        <time>2018-09-18T14:47:44Z</time>
      </trkpt>
      <trkpt lat="47.18632" lon="4.9855">
        <ele>230.8</ele>
        <time>2018-09-18T14:47:49Z</time>
      </trkpt>
      <trkpt lat="47.18628" lon="4.98545">
        <ele>230.9</ele>
        <time>2018-09-18T14:47:55Z</time>
      </trkpt>
      <trkpt lat="47.18625" lon="4.98541">
        <ele>231</ele>
        <time>2018-09-18T14:47:59Z</time>
      </trkpt>
      <trkpt lat="47.18622" lon="4.98536">
        <ele>231.1</ele>
        <time>2018-09-18T14:48:03Z</time>
      </trkpt>
      <trkpt lat="47.18618" lon="4.98531">
        <ele>231.2</ele>
        <time>2018-09-18T14:48:08Z</time>
      </trkpt>
      <trkpt lat="47.18614" lon="4.98526">
        <ele>231.3</ele>
        <time>2018-09-18T14:48:13Z</time>
      </trkpt>
      <trkpt lat="47.1861" lon="4.98521">
        <ele>231.4</ele>
        <time>2018-09-18T14:48:18Z</time>
      </trkpt>
      <trkpt lat="47.18606" lon="4.98517">
        <ele>231.5</ele>
        <time>2018-09-18T14:48:24Z</time>
      </trkpt>
      <trkpt lat="47.18602" lon="4.98512">
        <ele>231.6</ele>
        <time>2018-09-18T14:48:30Z</time>
      </trkpt>
      <trkpt lat="47.18598" lon="4.98508">
        <ele>231.7</ele>
        <time>2018-09-18T14:48:35Z</time>
      </trkpt>
      <trkpt lat="47.18594" lon="4.98503">
        <ele>231.8</ele>
        <time>2018-09-18T14:48:40Z</time>
      </trkpt>
      <trkpt lat="47.18589" lon="4.98499">
        <ele>231.9</ele>
        <time>2018-09-18T14:48:46Z</time>
      </trkpt>
      <trkpt lat="47.18585" lon="4.98495">
        <ele>232</ele>
        <time>2018-09-18T14:48:51Z</time>
      </trkpt>
      <trkpt lat="47.18581" lon="4.9849">
        <ele>232.1</ele>
        <time>2018-09-18T14:48:56Z</time>
      </trkpt>
      <trkpt lat="47.18577" lon="4.98485">
        <ele>232.2</ele>
        <time>2018-09-18T14:49:01Z</time>
      </trkpt>
      <trkpt lat="47.18573" lon="4.9848">
        <ele>232.3</ele>
        <time>2018-09-18T14:49:06Z</time>
      </trkpt>
      <trkpt lat="47.18569" lon="4.98476">
        <ele>232.3</ele>
        <time>2018-09-18T14:49:11Z</time>
      </trkpt>
      <trkpt lat="47.18566" lon="4.9847">
        <ele>232.4</ele>
        <time>2018-09-18T14:49:15Z</time>
      </trkpt>
      <trkpt lat="47.18563" lon="4.98465">
        <ele>232.4</ele>
        <time>2018-09-18T14:49:18Z</time>
      </trkpt>
      <trkpt lat="47.18559" lon="4.9846">
        <ele>232.5</ele>
        <time>2018-09-18T14:49:22Z</time>
      </trkpt>
      <trkpt lat="47.18555" lon="4.98456">
        <ele>232.5</ele>
        <time>2018-09-18T14:49:27Z</time>
      </trkpt>
      <trkpt lat="47.18552" lon="4.98452">
        <ele>232.6</ele>
        <time>2018-09-18T14:49:32Z</time>
      </trkpt>
      <trkpt lat="47.18548" lon="4.98446">
        <ele>232.7</ele>
        <time>2018-09-18T14:49:37Z</time>
      </trkpt>
      <trkpt lat="47.18543" lon="4.98441">
        <ele>232.7</ele>
        <time>2018-09-18T14:49:42Z</time>
      </trkpt>
      <trkpt lat="47.1854" lon="4.98437">
        <ele>232.8</ele>
        <time>2018-09-18T14:49:47Z</time>
      </trkpt>
      <trkpt lat="47.18535" lon="4.98432">
        <ele>232.8</ele>
        <time>2018-09-18T14:49:53Z</time>
      </trkpt>
      <trkpt lat="47.18532" lon="4.98428">
        <ele>232.9</ele>
        <time>2018-09-18T14:50:00Z</time>
      </trkpt>
      <trkpt lat="47.18527" lon="4.98425">
        <ele>232.9</ele>
        <time>2018-09-18T14:50:06Z</time>
      </trkpt>
      <trkpt lat="47.18523" lon="4.9842">
        <ele>233</ele>
        <time>2018-09-18T14:50:11Z</time>
      </trkpt>
      <trkpt lat="47.1852" lon="4.98414">
        <ele>233</ele>
        <time>2018-09-18T14:50:15Z</time>
      </trkpt>
      <trkpt lat="47.18517" lon="4.98408">
        <ele>233.1</ele>
        <time>2018-09-18T14:50:18Z</time>
      </trkpt>
      <trkpt lat="47.18513" lon="4.98402">
        <ele>233.2</ele>
        <time>2018-09-18T14:50:22Z</time>
      </trkpt>
      <trkpt lat="47.1851" lon="4.98397">
        <ele>233.3</ele>
        <time>2018-09-18T14:50:26Z</time>
      </trkpt>
      <trkpt lat="47.18506" lon="4.98392">
        <ele>233.3</ele>
        <time>2018-09-18T14:50:30Z</time>
      </trkpt>
      <trkpt lat="47.18503" lon="4.98387">
        <ele>233.4</ele>
        <time>2018-09-18T14:50:34Z</time>
      </trkpt>
      <trkpt lat="47.18499" lon="4.98382">
        <ele>233.4</ele>
        <time>2018-09-18T14:50:39Z</time>
      </trkpt>
      <trkpt lat="47.18495" lon="4.98379">
        <ele>233.4</ele>
        <time>2018-09-18T14:50:44Z</time>
      </trkpt>
      <trkpt lat="47.18491" lon="4.98374">
        <ele>233.5</ele>
        <time>2018-09-18T14:50:49Z</time>
      </trkpt>
      <trkpt lat="47.18487" lon="4.9837">
        <ele>233.5</ele>
        <time>2018-09-18T14:50:55Z</time>
      </trkpt>
      <trkpt lat="47.18483" lon="4.98365">
        <ele>233.5</ele>
        <time>2018-09-18T14:51:00Z</time>
      </trkpt>
      <trkpt lat="47.18478" lon="4.98361">
        <ele>233.5</ele>
        <time>2018-09-18T14:51:05Z</time>
      </trkpt>
      <trkpt lat="47.18474" lon="4.98357">
        <ele>233.5</ele>
        <time>2018-09-18T14:51:10Z</time>
      </trkpt>
      <trkpt lat="47.1847" lon="4.98354">
        <ele>233.5</ele>
        <time>2018-09-18T14:51:14Z</time>
      </trkpt>
      <trkpt lat="47.18466" lon="4.98352">
        <ele>233.5</ele>
        <time>2018-09-18T14:51:20Z</time>
      </trkpt>
      <trkpt lat="47.18462" lon="4.98346">
        <ele>233.5</ele>
        <time>2018-09-18T14:51:25Z</time>
      </trkpt>
      <trkpt lat="47.18458" lon="4.98341">
        <ele>233.4</ele>
        <time>2018-09-18T14:51:29Z</time>
      </trkpt>
      <trkpt lat="47.18454" lon="4.98336">
        <ele>233.4</ele>
        <time>2018-09-18T14:51:32Z</time>
      </trkpt>
      <trkpt lat="47.18451" lon="4.98331">
        <ele>233.5</ele>
        <time>2018-09-18T14:51:35Z</time>
      </trkpt>
      <trkpt lat="47.18447" lon="4.98328">
        <ele>233.4</ele>
        <time>2018-09-18T14:51:39Z</time>
      </trkpt>
      <trkpt lat="47.18442" lon="4.98324">
        <ele>233.5</ele>
        <time>2018-09-18T14:51:43Z</time>
      </trkpt>
      <trkpt lat="47.18438" lon="4.98321">
        <ele>233.5</ele>
        <time>2018-09-18T14:51:47Z</time>
      </trkpt>
      <trkpt lat="47.18434" lon="4.98316">
        <ele>233.5</ele>
        <time>2018-09-18T14:51:51Z</time>
      </trkpt>
      <trkpt lat="47.18429" lon="4.98311">
        <ele>233.5</ele>
        <time>2018-09-18T14:51:55Z</time>
      </trkpt>
      <trkpt lat="47.18425" lon="4.98306">
        <ele>233.5</ele>
        <time>2018-09-18T14:51:59Z</time>
      </trkpt>
      <trkpt lat="47.1842" lon="4.98303">
        <ele>233.4</ele>
        <time>2018-09-18T14:52:03Z</time>
      </trkpt>
      <trkpt lat="47.18416" lon="4.98301">
        <ele>233.4</ele>
        <time>2018-09-18T14:52:07Z</time>
      </trkpt>
      <trkpt lat="47.18411" lon="4.98298">
        <ele>233.3</ele>
        <time>2018-09-18T14:52:12Z</time>
      </trkpt>
      <trkpt lat="47.18407" lon="4.98296">
        <ele>233.3</ele>
        <time>2018-09-18T14:52:17Z</time>
      </trkpt>
      <trkpt lat="47.18402" lon="4.98293">
        <ele>233.2</ele>
        <time>2018-09-18T14:52:21Z</time>
      </trkpt>
      <trkpt lat="47.18398" lon="4.98292">
        <ele>233.2</ele>
        <time>2018-09-18T14:52:25Z</time>
      </trkpt>
      <trkpt lat="47.18393" lon="4.98291">
        <ele>233.1</ele>
        <time>2018-09-18T14:52:30Z</time>
      </trkpt>
      <trkpt lat="47.18388" lon="4.98288">
        <ele>233</ele>
        <time>2018-09-18T14:52:35Z</time>
      </trkpt>
      <trkpt lat="47.18382" lon="4.98286">
        <ele>232.9</ele>
        <time>2018-09-18T14:52:40Z</time>
      </trkpt>
      <trkpt lat="47.18378" lon="4.98283">
        <ele>232.9</ele>
        <time>2018-09-18T14:52:44Z</time>
      </trkpt>
      <trkpt lat="47.18373" lon="4.9828">
        <ele>232.8</ele>
        <time>2018-09-18T14:52:49Z</time>
      </trkpt>
      <trkpt lat="47.18368" lon="4.9828">
        <ele>232.7</ele>
        <time>2018-09-18T14:52:54Z</time>
      </trkpt>
      <trkpt lat="47.18363" lon="4.98277">
        <ele>232.6</ele>
        <time>2018-09-18T14:52:59Z</time>
      </trkpt>
      <trkpt lat="47.18358" lon="4.98273">
        <ele>232.5</ele>
        <time>2018-09-18T14:53:04Z</time>
      </trkpt>
      <trkpt lat="47.18354" lon="4.98271">
        <ele>232.4</ele>
        <time>2018-09-18T14:53:08Z</time>
      </trkpt>
      <trkpt lat="47.18349" lon="4.98269">
        <ele>232.3</ele>
        <time>2018-09-18T14:53:12Z</time>
      </trkpt>
      <trkpt lat="47.18344" lon="4.98266">
        <ele>232.2</ele>
        <time>2018-09-18T14:53:16Z</time>
      </trkpt>
      <trkpt lat="47.1834" lon="4.98263">
        <ele>232.1</ele>
        <time>2018-09-18T14:53:20Z</time>
      </trkpt>
      <trkpt lat="47.18335" lon="4.9826">
        <ele>232</ele>
        <time>2018-09-18T14:53:24Z</time>
      </trkpt>
      <trkpt lat="47.18331" lon="4.98261">
        <ele>231.9</ele>
        <time>2018-09-18T14:53:29Z</time>
      </trkpt>
      <trkpt lat="47.18326" lon="4.9826">
        <ele>231.8</ele>
        <time>2018-09-18T14:53:34Z</time>
      </trkpt>
      <trkpt lat="47.18321" lon="4.98257">
        <ele>231.7</ele>
        <time>2018-09-18T14:53:38Z</time>
      </trkpt>
      <trkpt lat="47.18317" lon="4.98258">
        <ele>231.6</ele>
        <time>2018-09-18T14:53:42Z</time>
      </trkpt>
      <trkpt lat="47.18312" lon="4.98256">
        <ele>231.5</ele>
        <time>2018-09-18T14:53:47Z</time>
      </trkpt>
      <trkpt lat="47.18307" lon="4.98255">
        <ele>231.4</ele>
        <time>2018-09-18T14:53:53Z</time>
      </trkpt>
      <trkpt lat="47.18301" lon="4.98253">
        <ele>231.2</ele>
        <time>2018-09-18T14:53:57Z</time>
      </trkpt>
      <trkpt lat="47.18297" lon="4.98249">
        <ele>231.1</ele>
        <time>2018-09-18T14:54:01Z</time>
      </trkpt>
      <trkpt lat="47.18292" lon="4.98244">
        <ele>231.1</ele>
        <time>2018-09-18T14:54:04Z</time>
      </trkpt>
      <trkpt lat="47.18288" lon="4.98242">
        <ele>231</ele>
        <time>2018-09-18T14:54:07Z</time>
      </trkpt>
      <trkpt lat="47.18283" lon="4.98239">
        <ele>230.9</ele>
        <time>2018-09-18T14:54:11Z</time>
      </trkpt>
      <trkpt lat="47.18278" lon="4.98237">
        <ele>230.8</ele>
        <time>2018-09-18T14:54:15Z</time>
      </trkpt>
      <trkpt lat="47.18273" lon="4.98235">
        <ele>230.7</ele>
        <time>2018-09-18T14:54:19Z</time>
      </trkpt>
      <trkpt lat="47.18268" lon="4.98233">
        <ele>230.6</ele>
        <time>2018-09-18T14:54:23Z</time>
      </trkpt>
      <trkpt lat="47.18264" lon="4.98231">
        <ele>230.6</ele>
        <time>2018-09-18T14:54:26Z</time>
      </trkpt>
      <trkpt lat="47.18258" lon="4.98229">
        <ele>230.5</ele>
        <time>2018-09-18T14:54:30Z</time>
      </trkpt>
      <trkpt lat="47.18253" lon="4.98228">
        <ele>230.3</ele>
        <time>2018-09-18T14:54:34Z</time>
      </trkpt>
      <trkpt lat="47.18248" lon="4.98227">
        <ele>230.3</ele>
        <time>2018-09-18T14:54:39Z</time>
      </trkpt>
      <trkpt lat="47.18243" lon="4.98227">
        <ele>230.2</ele>
        <time>2018-09-18T14:54:44Z</time>
      </trkpt>
      <trkpt lat="47.18237" lon="4.98227">
        <ele>230.1</ele>
        <time>2018-09-18T14:54:49Z</time>
      </trkpt>
      <trkpt lat="47.18232" lon="4.98226">
        <ele>230.1</ele>
        <time>2018-09-18T14:54:54Z</time>
      </trkpt>
      <trkpt lat="47.18227" lon="4.98226">
        <ele>230</ele>
        <time>2018-09-18T14:54:59Z</time>
      </trkpt>
      <trkpt lat="47.18222" lon="4.98225">
        <ele>230</ele>
        <time>2018-09-18T14:55:04Z</time>
      </trkpt>
      <trkpt lat="47.18218" lon="4.98222">
        <ele>230</ele>
        <time>2018-09-18T14:55:08Z</time>
      </trkpt>
      <trkpt lat="47.18213" lon="4.9822">
        <ele>229.9</ele>
        <time>2018-09-18T14:55:12Z</time>
      </trkpt>
      <trkpt lat="47.18209" lon="4.98218">
        <ele>229.9</ele>
        <time>2018-09-18T14:55:16Z</time>
      </trkpt>
      <trkpt lat="47.18204" lon="4.98217">
        <ele>229.9</ele>
        <time>2018-09-18T14:55:20Z</time>
      </trkpt>
      <trkpt lat="47.18199" lon="4.98215">
        <ele>229.8</ele>
        <time>2018-09-18T14:55:25Z</time>
      </trkpt>
      <trkpt lat="47.18194" lon="4.98216">
        <ele>229.7</ele>
        <time>2018-09-18T14:55:31Z</time>
      </trkpt>
      <trkpt lat="47.18188" lon="4.98215">
        <ele>229.7</ele>
        <time>2018-09-18T14:55:36Z</time>
      </trkpt>
      <trkpt lat="47.18183" lon="4.98217">
        <ele>229.6</ele>
        <time>2018-09-18T14:55:41Z</time>
      </trkpt>
      <trkpt lat="47.18179" lon="4.9822">
        <ele>229.5</ele>
        <time>2018-09-18T14:55:45Z</time>
      </trkpt>
      <trkpt lat="47.18175" lon="4.98225">
        <ele>229.4</ele>
        <time>2018-09-18T14:55:49Z</time>
      </trkpt>
      <trkpt lat="47.18172" lon="4.9823">
        <ele>229.3</ele>
        <time>2018-09-18T14:55:53Z</time>
      </trkpt>
      <trkpt lat="47.1817" lon="4.98237">
        <ele>229.2</ele>
        <time>2018-09-18T14:55:57Z</time>
      </trkpt>
      <trkpt lat="47.18168" lon="4.98244">
        <ele>229.1</ele>
        <time>2018-09-18T14:56:01Z</time>
      </trkpt>
      <trkpt lat="47.18166" lon="4.98251">
        <ele>229</ele>
        <time>2018-09-18T14:56:05Z</time>
      </trkpt>
      <trkpt lat="47.18165" lon="4.98259">
        <ele>228.9</ele>
        <time>2018-09-18T14:56:09Z</time>
      </trkpt>
      <trkpt lat="47.18164" lon="4.98266">
        <ele>228.8</ele>
        <time>2018-09-18T14:56:12Z</time>
      </trkpt>
      <trkpt lat="47.18162" lon="4.98273">
        <ele>228.7</ele>
        <time>2018-09-18T14:56:16Z</time>
      </trkpt>
      <trkpt lat="47.18161" lon="4.98279">
        <ele>228.6</ele>
        <time>2018-09-18T14:56:20Z</time>
      </trkpt>
      <trkpt lat="47.1816" lon="4.98286">
        <ele>228.5</ele>
        <time>2018-09-18T14:56:25Z</time>
      </trkpt>
      <trkpt lat="47.18157" lon="4.98294">
        <ele>228.4</ele>
        <time>2018-09-18T14:56:30Z</time>
      </trkpt>
      <trkpt lat="47.18155" lon="4.98301">
        <ele>228.3</ele>
        <time>2018-09-18T14:56:34Z</time>
      </trkpt>
      <trkpt lat="47.18153" lon="4.98308">
        <ele>228.2</ele>
        <time>2018-09-18T14:56:38Z</time>
      </trkpt>
      <trkpt lat="47.18151" lon="4.98314">
        <ele>228</ele>
        <time>2018-09-18T14:56:42Z</time>
      </trkpt>
      <trkpt lat="47.18149" lon="4.98321">
        <ele>227.9</ele>
        <time>2018-09-18T14:56:46Z</time>
      </trkpt>
      <trkpt lat="47.18147" lon="4.98328">
        <ele>227.8</ele>
        <time>2018-09-18T14:56:50Z</time>
      </trkpt>
      <trkpt lat="47.18146" lon="4.98335">
        <ele>227.7</ele>
        <time>2018-09-18T14:56:54Z</time>
      </trkpt>
      <trkpt lat="47.18144" lon="4.98343">
        <ele>227.6</ele>
        <time>2018-09-18T14:56:59Z</time>
      </trkpt>
      <trkpt lat="47.18141" lon="4.98348">
        <ele>227.6</ele>
        <time>2018-09-18T14:57:03Z</time>
      </trkpt>
      <trkpt lat="47.18137" lon="4.98352">
        <ele>227.5</ele>
        <time>2018-09-18T14:57:07Z</time>
      </trkpt>
      <trkpt lat="47.18133" lon="4.98355">
        <ele>227.4</ele>
        <time>2018-09-18T14:57:11Z</time>
      </trkpt>
      <trkpt lat="47.18128" lon="4.98355">
        <ele>227.4</ele>
        <time>2018-09-18T14:57:15Z</time>
      </trkpt>
      <trkpt lat="47.18123" lon="4.98353">
        <ele>227.4</ele>
        <time>2018-09-18T14:57:20Z</time>
      </trkpt>
      <trkpt lat="47.18119" lon="4.98349">
        <ele>227.4</ele>
        <time>2018-09-18T14:57:25Z</time>
      </trkpt>
      <trkpt lat="47.18114" lon="4.98345">
        <ele>227.3</ele>
        <time>2018-09-18T14:57:29Z</time>
      </trkpt>
      <trkpt lat="47.1811" lon="4.98343">
        <ele>227.3</ele>
        <time>2018-09-18T14:57:33Z</time>
      </trkpt>
      <trkpt lat="47.18106" lon="4.9834">
        <ele>227.3</ele>
        <time>2018-09-18T14:57:37Z</time>
      </trkpt>
      <trkpt lat="47.18102" lon="4.98335">
        <ele>227.2</ele>
        <time>2018-09-18T14:57:44Z</time>
      </trkpt>
      <trkpt lat="47.18097" lon="4.98333">
        <ele>227.2</ele>
        <time>2018-09-18T15:00:47Z</time>
      </trkpt>
      <trkpt lat="47.18092" lon="4.98331">
        <ele>227.1</ele>
        <time>2018-09-18T15:00:51Z</time>
      </trkpt>
      <trkpt lat="47.18087" lon="4.98329">
        <ele>227.1</ele>
        <time>2018-09-18T15:00:55Z</time>
      </trkpt>
      <trkpt lat="47.18082" lon="4.98327">
        <ele>227.1</ele>
        <time>2018-09-18T15:00:59Z</time>
      </trkpt>
      <trkpt lat="47.18077" lon="4.98324">
        <ele>227.1</ele>
        <time>2018-09-18T15:01:04Z</time>
      </trkpt>
      <trkpt lat="47.18073" lon="4.98321">
        <ele>227.2</ele>
        <time>2018-09-18T15:01:08Z</time>
      </trkpt>
      <trkpt lat="47.18068" lon="4.98319">
        <ele>227.2</ele>
        <time>2018-09-18T15:01:12Z</time>
      </trkpt>
      <trkpt lat="47.18064" lon="4.98317">
        <ele>227.3</ele>
        <time>2018-09-18T15:01:16Z</time>
      </trkpt>
      <trkpt lat="47.18058" lon="4.98315">
        <ele>227.3</ele>
        <time>2018-09-18T15:01:21Z</time>
      </trkpt>
      <trkpt lat="47.18053" lon="4.98315">
        <ele>227.3</ele>
        <time>2018-09-18T15:01:27Z</time>
      </trkpt>
      <trkpt lat="47.18049" lon="4.98312">
        <ele>227.4</ele>
        <time>2018-09-18T15:01:32Z</time>
      </trkpt>
      <trkpt lat="47.18044" lon="4.9831">
        <ele>227.4</ele>
        <time>2018-09-18T15:01:37Z</time>
      </trkpt>
      <trkpt lat="47.18039" lon="4.98307">
        <ele>227.5</ele>
        <time>2018-09-18T15:01:42Z</time>
      </trkpt>
      <trkpt lat="47.18035" lon="4.98304">
        <ele>227.6</ele>
        <time>2018-09-18T15:01:46Z</time>
      </trkpt>
      <trkpt lat="47.1803" lon="4.983">
        <ele>227.7</ele>
        <time>2018-09-18T15:01:50Z</time>
      </trkpt>
      <trkpt lat="47.18025" lon="4.98297">
        <ele>227.7</ele>
        <time>2018-09-18T15:01:54Z</time>
      </trkpt>
      <trkpt lat="47.18021" lon="4.98293">
        <ele>227.8</ele>
        <time>2018-09-18T15:01:58Z</time>
      </trkpt>
      <trkpt lat="47.18017" lon="4.9829">
        <ele>227.9</ele>
        <time>2018-09-18T15:02:02Z</time>
      </trkpt>
      <trkpt lat="47.18012" lon="4.98288">
        <ele>228</ele>
        <time>2018-09-18T15:02:06Z</time>
      </trkpt>
      <trkpt lat="47.18008" lon="4.98286">
        <ele>228.1</ele>
        <time>2018-09-18T15:02:10Z</time>
      </trkpt>
      <trkpt lat="47.18004" lon="4.98284">
        <ele>228.2</ele>
        <time>2018-09-18T15:02:14Z</time>
      </trkpt>
      <trkpt lat="47.17999" lon="4.98281">
        <ele>228.3</ele>
        <time>2018-09-18T15:02:18Z</time>
      </trkpt>
      <trkpt lat="47.17994" lon="4.98279">
        <ele>228.4</ele>
        <time>2018-09-18T15:02:22Z</time>
      </trkpt>
      <trkpt lat="47.17989" lon="4.98278">
        <ele>228.4</ele>
        <time>2018-09-18T15:02:26Z</time>
      </trkpt>
      <trkpt lat="47.17984" lon="4.98277">
        <ele>228.5</ele>
        <time>2018-09-18T15:02:31Z</time>
      </trkpt>
      <trkpt lat="47.1798" lon="4.98276">
        <ele>228.5</ele>
        <time>2018-09-18T15:02:36Z</time>
      </trkpt>
      <trkpt lat="47.17974" lon="4.98275">
        <ele>228.6</ele>
        <time>2018-09-18T15:02:41Z</time>
      </trkpt>
      <trkpt lat="47.1797" lon="4.98272">
        <ele>228.7</ele>
        <time>2018-09-18T15:02:45Z</time>
      </trkpt>
      <trkpt lat="47.17966" lon="4.98269">
        <ele>228.7</ele>
        <time>2018-09-18T15:02:51Z</time>
      </trkpt>
      <trkpt lat="47.17961" lon="4.98266">
        <ele>228.8</ele>
        <time>2018-09-18T15:03:02Z</time>
      </trkpt>
      <trkpt lat="47.17957" lon="4.98262">
        <ele>228.9</ele>
        <time>2018-09-18T15:03:10Z</time>
      </trkpt>
      <trkpt lat="47.17952" lon="4.98259">
        <ele>228.9</ele>
        <time>2018-09-18T15:03:17Z</time>
      </trkpt>
      <trkpt lat="47.17947" lon="4.98256">
        <ele>229</ele>
        <time>2018-09-18T15:03:21Z</time>
      </trkpt>
      <trkpt lat="47.17943" lon="4.98252">
        <ele>229</ele>
        <time>2018-09-18T15:03:24Z</time>
      </trkpt>
      <trkpt lat="47.17937" lon="4.9825">
        <ele>229</ele>
        <time>2018-09-18T15:03:28Z</time>
      </trkpt>
      <trkpt lat="47.17933" lon="4.98249">
        <ele>229</ele>
        <time>2018-09-18T15:03:33Z</time>
      </trkpt>
      <trkpt lat="47.17928" lon="4.98246">
        <ele>229</ele>
        <time>2018-09-18T15:03:38Z</time>
      </trkpt>
      <trkpt lat="47.17923" lon="4.98244">
        <ele>229.1</ele>
        <time>2018-09-18T15:03:42Z</time>
      </trkpt>
      <trkpt lat="47.17919" lon="4.98242">
        <ele>229.1</ele>
        <time>2018-09-18T15:03:45Z</time>
      </trkpt>
      <trkpt lat="47.17913" lon="4.9824">
        <ele>229.1</ele>
        <time>2018-09-18T15:03:49Z</time>
      </trkpt>
      <trkpt lat="47.17908" lon="4.98238">
        <ele>229.1</ele>
        <time>2018-09-18T15:03:53Z</time>
      </trkpt>
      <trkpt lat="47.17904" lon="4.98236">
        <ele>229.1</ele>
        <time>2018-09-18T15:03:56Z</time>
      </trkpt>
      <trkpt lat="47.17898" lon="4.98234">
        <ele>229.1</ele>
        <time>2018-09-18T15:04:00Z</time>
      </trkpt>
      <trkpt lat="47.17893" lon="4.98233">
        <ele>229</ele>
        <time>2018-09-18T15:04:10Z</time>
      </trkpt>
      <trkpt lat="47.17888" lon="4.98231">
        <ele>229</ele>
        <time>2018-09-18T15:04:14Z</time>
      </trkpt>
      <trkpt lat="47.17883" lon="4.9823">
        <ele>229</ele>
        <time>2018-09-18T15:04:18Z</time>
      </trkpt>
      <trkpt lat="47.17879" lon="4.98228">
        <ele>228.9</ele>
        <time>2018-09-18T15:04:22Z</time>
      </trkpt>
      <trkpt lat="47.17874" lon="4.98227">
        <ele>228.9</ele>
        <time>2018-09-18T15:04:26Z</time>
      </trkpt>
      <trkpt lat="47.17869" lon="4.98225">
        <ele>228.8</ele>
        <time>2018-09-18T15:04:30Z</time>
      </trkpt>
      <trkpt lat="47.17865" lon="4.98221">
        <ele>228.7</ele>
        <time>2018-09-18T15:04:34Z</time>
      </trkpt>
      <trkpt lat="47.1786" lon="4.98219">
        <ele>228.6</ele>
        <time>2018-09-18T15:04:38Z</time>
      </trkpt>
      <trkpt lat="47.17856" lon="4.98218">
        <ele>228.5</ele>
        <time>2018-09-18T15:04:42Z</time>
      </trkpt>
      <trkpt lat="47.17851" lon="4.98218">
        <ele>228.5</ele>
        <time>2018-09-18T15:04:47Z</time>
      </trkpt>
      <trkpt lat="47.17847" lon="4.98215">
        <ele>228.4</ele>
        <time>2018-09-18T15:04:51Z</time>
      </trkpt>
      <trkpt lat="47.17842" lon="4.98214">
        <ele>228.3</ele>
        <time>2018-09-18T15:04:55Z</time>
      </trkpt>
      <trkpt lat="47.17837" lon="4.98212">
        <ele>228.2</ele>
        <time>2018-09-18T15:04:59Z</time>
      </trkpt>
      <trkpt lat="47.17832" lon="4.98212">
        <ele>228</ele>
        <time>2018-09-18T15:05:04Z</time>
      </trkpt>
      <trkpt lat="47.17826" lon="4.9821">
        <ele>227.9</ele>
        <time>2018-09-18T15:05:08Z</time>
      </trkpt>
      <trkpt lat="47.17821" lon="4.98209">
        <ele>227.9</ele>
        <time>2018-09-18T15:05:12Z</time>
      </trkpt>
      <trkpt lat="47.17816" lon="4.98209">
        <ele>227.8</ele>
        <time>2018-09-18T15:05:16Z</time>
      </trkpt>
      <trkpt lat="47.1781" lon="4.98209">
        <ele>227.7</ele>
        <time>2018-09-18T15:05:20Z</time>
      </trkpt>
      <trkpt lat="47.17805" lon="4.98209">
        <ele>227.7</ele>
        <time>2018-09-18T15:05:25Z</time>
      </trkpt>
      <trkpt lat="47.178" lon="4.98208">
        <ele>227.6</ele>
        <time>2018-09-18T15:05:29Z</time>
      </trkpt>
      <trkpt lat="47.17795" lon="4.98208">
        <ele>227.5</ele>
        <time>2018-09-18T15:05:33Z</time>
      </trkpt>
      <trkpt lat="47.1779" lon="4.98206">
        <ele>227.5</ele>
        <time>2018-09-18T15:05:37Z</time>
      </trkpt>
      <trkpt lat="47.17784" lon="4.98204">
        <ele>227.4</ele>
        <time>2018-09-18T15:05:41Z</time>
      </trkpt>
      <trkpt lat="47.17779" lon="4.98204">
        <ele>227.3</ele>
        <time>2018-09-18T15:05:44Z</time>
      </trkpt>
      <trkpt lat="47.17774" lon="4.98204">
        <ele>227.3</ele>
        <time>2018-09-18T15:05:49Z</time>
      </trkpt>
      <trkpt lat="47.1777" lon="4.98203">
        <ele>227.2</ele>
        <time>2018-09-18T15:05:54Z</time>
      </trkpt>
      <trkpt lat="47.17765" lon="4.98203">
        <ele>227.2</ele>
        <time>2018-09-18T15:05:59Z</time>
      </trkpt>
      <trkpt lat="47.1776" lon="4.98201">
        <ele>227.1</ele>
        <time>2018-09-18T15:06:04Z</time>
      </trkpt>
      <trkpt lat="47.17755" lon="4.98198">
        <ele>227</ele>
        <time>2018-09-18T15:06:08Z</time>
      </trkpt>
      <trkpt lat="47.17751" lon="4.98196">
        <ele>227</ele>
        <time>2018-09-18T15:06:13Z</time>
      </trkpt>
      <trkpt lat="47.17745" lon="4.98194">
        <ele>226.9</ele>
        <time>2018-09-18T15:06:18Z</time>
      </trkpt>
      <trkpt lat="47.1774" lon="4.98192">
        <ele>226.8</ele>
        <time>2018-09-18T15:06:22Z</time>
      </trkpt>
      <trkpt lat="47.17734" lon="4.9819">
        <ele>226.8</ele>
        <time>2018-09-18T15:06:26Z</time>
      </trkpt>
      <trkpt lat="47.1773" lon="4.98188">
        <ele>226.7</ele>
        <time>2018-09-18T15:06:29Z</time>
      </trkpt>
      <trkpt lat="47.17724" lon="4.98186">
        <ele>226.6</ele>
        <time>2018-09-18T15:06:33Z</time>
      </trkpt>
      <trkpt lat="47.17719" lon="4.98184">
        <ele>226.6</ele>
        <time>2018-09-18T15:06:37Z</time>
      </trkpt>
      <trkpt lat="47.17714" lon="4.98182">
        <ele>226.5</ele>
        <time>2018-09-18T15:06:41Z</time>
      </trkpt>
      <trkpt lat="47.17709" lon="4.9818">
        <ele>226.4</ele>
        <time>2018-09-18T15:06:45Z</time>
      </trkpt>
      <trkpt lat="47.17704" lon="4.98179">
        <ele>226.4</ele>
        <time>2018-09-18T15:06:49Z</time>
      </trkpt>
      <trkpt lat="47.177" lon="4.98175">
        <ele>226.3</ele>
        <time>2018-09-18T15:06:53Z</time>
      </trkpt>
      <trkpt lat="47.17695" lon="4.98172">
        <ele>226.3</ele>
        <time>2018-09-18T15:06:57Z</time>
      </trkpt>
      <trkpt lat="47.17689" lon="4.98168">
        <ele>226.3</ele>
        <time>2018-09-18T15:07:01Z</time>
      </trkpt>
      <trkpt lat="47.17685" lon="4.98165">
        <ele>226.2</ele>
        <time>2018-09-18T15:07:05Z</time>
      </trkpt>
      <trkpt lat="47.1768" lon="4.98164">
        <ele>226.2</ele>
        <time>2018-09-18T15:07:09Z</time>
      </trkpt>
      <trkpt lat="47.17676" lon="4.98161">
        <ele>226.2</ele>
        <time>2018-09-18T15:07:13Z</time>
      </trkpt>
      <trkpt lat="47.17671" lon="4.98159">
        <ele>226.1</ele>
        <time>2018-09-18T15:07:17Z</time>
      </trkpt>
      <trkpt lat="47.17666" lon="4.98156">
        <ele>226.1</ele>
        <time>2018-09-18T15:07:21Z</time>
      </trkpt>
      <trkpt lat="47.17661" lon="4.98154">
        <ele>226.2</ele>
        <time>2018-09-18T15:07:26Z</time>
      </trkpt>
      <trkpt lat="47.17656" lon="4.98152">
        <ele>226.2</ele>
        <time>2018-09-18T15:07:31Z</time>
      </trkpt>
      <trkpt lat="47.17652" lon="4.98151">
        <ele>226.2</ele>
        <time>2018-09-18T15:07:35Z</time>
      </trkpt>
      <trkpt lat="47.17647" lon="4.98149">
        <ele>226.3</ele>
        <time>2018-09-18T15:07:39Z</time>
      </trkpt>
      <trkpt lat="47.17643" lon="4.98146">
        <ele>226.3</ele>
        <time>2018-09-18T15:07:43Z</time>
      </trkpt>
      <trkpt lat="47.17638" lon="4.98144">
        <ele>226.4</ele>
        <time>2018-09-18T15:07:48Z</time>
      </trkpt>
      <trkpt lat="47.17633" lon="4.98142">
        <ele>226.4</ele>
        <time>2018-09-18T15:07:52Z</time>
      </trkpt>
      <trkpt lat="47.17628" lon="4.98138">
        <ele>226.5</ele>
        <time>2018-09-18T15:07:57Z</time>
      </trkpt>
      <trkpt lat="47.17624" lon="4.98136">
        <ele>226.6</ele>
        <time>2018-09-18T15:08:01Z</time>
      </trkpt>
      <trkpt lat="47.17619" lon="4.98134">
        <ele>226.6</ele>
        <time>2018-09-18T15:08:06Z</time>
      </trkpt>
      <trkpt lat="47.17614" lon="4.98131">
        <ele>226.7</ele>
        <time>2018-09-18T15:08:11Z</time>
      </trkpt>
      <trkpt lat="47.1761" lon="4.98129">
        <ele>226.8</ele>
        <time>2018-09-18T15:08:15Z</time>
      </trkpt>
      <trkpt lat="47.17606" lon="4.98126">
        <ele>226.8</ele>
        <time>2018-09-18T15:08:19Z</time>
      </trkpt>
      <trkpt lat="47.17601" lon="4.98124">
        <ele>226.9</ele>
        <time>2018-09-18T15:08:23Z</time>
      </trkpt>
      <trkpt lat="47.17596" lon="4.98121">
        <ele>227</ele>
        <time>2018-09-18T15:08:28Z</time>
      </trkpt>
      <trkpt lat="47.17592" lon="4.98118">
        <ele>227.1</ele>
        <time>2018-09-18T15:08:32Z</time>
      </trkpt>
      <trkpt lat="47.17587" lon="4.98116">
        <ele>227.2</ele>
        <time>2018-09-18T15:08:36Z</time>
      </trkpt>
      <trkpt lat="47.17582" lon="4.98114">
        <ele>227.3</ele>
        <time>2018-09-18T15:08:40Z</time>
      </trkpt>
      <trkpt lat="47.17577" lon="4.98111">
        <ele>227.4</ele>
        <time>2018-09-18T15:08:45Z</time>
      </trkpt>
      <trkpt lat="47.17573" lon="4.98108">
        <ele>227.4</ele>
        <time>2018-09-18T15:08:49Z</time>
      </trkpt>
      <trkpt lat="47.17568" lon="4.98105">
        <ele>227.5</ele>
        <time>2018-09-18T15:08:54Z</time>
      </trkpt>
      <trkpt lat="47.17563" lon="4.98102">
        <ele>227.6</ele>
        <time>2018-09-18T15:08:58Z</time>
      </trkpt>
      <trkpt lat="47.17559" lon="4.98099">
        <ele>227.7</ele>
        <time>2018-09-18T15:09:02Z</time>
      </trkpt>
      <trkpt lat="47.17555" lon="4.98096">
        <ele>227.7</ele>
        <time>2018-09-18T15:09:06Z</time>
      </trkpt>
      <trkpt lat="47.17551" lon="4.98094">
        <ele>227.8</ele>
        <time>2018-09-18T15:09:10Z</time>
      </trkpt>
      <trkpt lat="47.17546" lon="4.98092">
        <ele>227.8</ele>
        <time>2018-09-18T15:09:14Z</time>
      </trkpt>
      <trkpt lat="47.17542" lon="4.98088">
        <ele>227.9</ele>
        <time>2018-09-18T15:09:18Z</time>
      </trkpt>
      <trkpt lat="47.17537" lon="4.98086">
        <ele>228</ele>
        <time>2018-09-18T15:09:23Z</time>
      </trkpt>
      <trkpt lat="47.17533" lon="4.98083">
        <ele>228</ele>
        <time>2018-09-18T15:09:27Z</time>
      </trkpt>
      <trkpt lat="47.17529" lon="4.9808">
        <ele>228</ele>
        <time>2018-09-18T15:09:31Z</time>
      </trkpt>
      <trkpt lat="47.17524" lon="4.98077">
        <ele>228.1</ele>
        <time>2018-09-18T15:09:35Z</time>
      </trkpt>
      <trkpt lat="47.17519" lon="4.98074">
        <ele>228.1</ele>
        <time>2018-09-18T15:09:40Z</time>
      </trkpt>
      <trkpt lat="47.17515" lon="4.98071">
        <ele>228.2</ele>
        <time>2018-09-18T15:09:44Z</time>
      </trkpt>
      <trkpt lat="47.17509" lon="4.98069">
        <ele>228.2</ele>
        <time>2018-09-18T15:09:48Z</time>
      </trkpt>
      <trkpt lat="47.17505" lon="4.98064">
        <ele>228.2</ele>
        <time>2018-09-18T15:09:52Z</time>
      </trkpt>
      <trkpt lat="47.175" lon="4.98062">
        <ele>228.3</ele>
        <time>2018-09-18T15:09:56Z</time>
      </trkpt>
      <trkpt lat="47.17496" lon="4.9806">
        <ele>228.2</ele>
        <time>2018-09-18T15:10:00Z</time>
      </trkpt>
      <trkpt lat="47.17491" lon="4.98057">
        <ele>228.1</ele>
        <time>2018-09-18T15:10:04Z</time>
      </trkpt>
      <trkpt lat="47.17487" lon="4.98053">
        <ele>228.1</ele>
        <time>2018-09-18T15:10:08Z</time>
      </trkpt>
      <trkpt lat="47.17482" lon="4.9805">
        <ele>228</ele>
        <time>2018-09-18T15:10:12Z</time>
      </trkpt>
      <trkpt lat="47.17478" lon="4.98047">
        <ele>227.9</ele>
        <time>2018-09-18T15:10:16Z</time>
      </trkpt>
      <trkpt lat="47.17473" lon="4.98046">
        <ele>227.8</ele>
        <time>2018-09-18T15:10:20Z</time>
      </trkpt>
      <trkpt lat="47.17468" lon="4.98043">
        <ele>227.7</ele>
        <time>2018-09-18T15:10:25Z</time>
      </trkpt>
      <trkpt lat="47.17464" lon="4.98041">
        <ele>227.6</ele>
        <time>2018-09-18T15:10:29Z</time>
      </trkpt>
      <trkpt lat="47.17459" lon="4.98037">
        <ele>227.6</ele>
        <time>2018-09-18T15:10:33Z</time>
      </trkpt>
      <trkpt lat="47.17454" lon="4.98034">
        <ele>227.5</ele>
        <time>2018-09-18T15:10:37Z</time>
      </trkpt>
      <trkpt lat="47.1745" lon="4.98032">
        <ele>227.4</ele>
        <time>2018-09-18T15:10:41Z</time>
      </trkpt>
      <trkpt lat="47.17445" lon="4.9803">
        <ele>227.3</ele>
        <time>2018-09-18T15:10:45Z</time>
      </trkpt>
      <trkpt lat="47.1744" lon="4.98029">
        <ele>227.2</ele>
        <time>2018-09-18T15:10:50Z</time>
      </trkpt>
      <trkpt lat="47.17436" lon="4.98027">
        <ele>227.1</ele>
        <time>2018-09-18T15:10:54Z</time>
      </trkpt>
      <trkpt lat="47.17431" lon="4.98025">
        <ele>227.1</ele>
        <time>2018-09-18T15:10:58Z</time>
      </trkpt>
      <trkpt lat="47.17427" lon="4.98022">
        <ele>227</ele>
        <time>2018-09-18T15:11:02Z</time>
      </trkpt>
      <trkpt lat="47.17422" lon="4.9802">
        <ele>226.9</ele>
        <time>2018-09-18T15:11:06Z</time>
      </trkpt>
      <trkpt lat="47.17417" lon="4.98019">
        <ele>226.8</ele>
        <time>2018-09-18T15:11:10Z</time>
      </trkpt>
      <trkpt lat="47.17413" lon="4.98016">
        <ele>226.8</ele>
        <time>2018-09-18T15:11:14Z</time>
      </trkpt>
      <trkpt lat="47.17409" lon="4.98012">
        <ele>226.8</ele>
        <time>2018-09-18T15:11:18Z</time>
      </trkpt>
      <trkpt lat="47.17405" lon="4.98008">
        <ele>226.8</ele>
        <time>2018-09-18T15:11:22Z</time>
      </trkpt>
      <trkpt lat="47.174" lon="4.98005">
        <ele>226.8</ele>
        <time>2018-09-18T15:11:26Z</time>
      </trkpt>
      <trkpt lat="47.17396" lon="4.98004">
        <ele>226.7</ele>
        <time>2018-09-18T15:11:30Z</time>
      </trkpt>
      <trkpt lat="47.17391" lon="4.98003">
        <ele>226.7</ele>
        <time>2018-09-18T15:11:35Z</time>
      </trkpt>
      <trkpt lat="47.17386" lon="4.98001">
        <ele>226.6</ele>
        <time>2018-09-18T15:11:40Z</time>
      </trkpt>
      <trkpt lat="47.17381" lon="4.97999">
        <ele>226.6</ele>
        <time>2018-09-18T15:11:45Z</time>
      </trkpt>
      <trkpt lat="47.17376" lon="4.97997">
        <ele>226.5</ele>
        <time>2018-09-18T15:11:50Z</time>
      </trkpt>
      <trkpt lat="47.1737" lon="4.97996">
        <ele>226.4</ele>
        <time>2018-09-18T15:11:55Z</time>
      </trkpt>
      <trkpt lat="47.17366" lon="4.97999">
        <ele>226.4</ele>
        <time>2018-09-18T15:15:37Z</time>
      </trkpt>
      <trkpt lat="47.17362" lon="4.97996">
        <ele>226.3</ele>
        <time>2018-09-18T15:15:43Z</time>
      </trkpt>
      <trkpt lat="47.17357" lon="4.97994">
        <ele>226.3</ele>
        <time>2018-09-18T15:15:49Z</time>
      </trkpt>
      <trkpt lat="47.17353" lon="4.97992">
        <ele>226.2</ele>
        <time>2018-09-18T15:15:54Z</time>
      </trkpt>
      <trkpt lat="47.17348" lon="4.9799">
        <ele>226.2</ele>
        <time>2018-09-18T15:15:58Z</time>
      </trkpt>
      <trkpt lat="47.17344" lon="4.97989">
        <ele>226.1</ele>
        <time>2018-09-18T15:16:02Z</time>
      </trkpt>
      <trkpt lat="47.17339" lon="4.97986">
        <ele>226.1</ele>
        <time>2018-09-18T15:16:06Z</time>
      </trkpt>
      <trkpt lat="47.17334" lon="4.97981">
        <ele>226</ele>
        <time>2018-09-18T15:16:10Z</time>
      </trkpt>
      <trkpt lat="47.17329" lon="4.97979">
        <ele>226.1</ele>
        <time>2018-09-18T15:16:16Z</time>
      </trkpt>
      <trkpt lat="47.17325" lon="4.97978">
        <ele>226.2</ele>
        <time>2018-09-18T15:16:20Z</time>
      </trkpt>
      <trkpt lat="47.17319" lon="4.97976">
        <ele>226.4</ele>
        <time>2018-09-18T15:16:24Z</time>
      </trkpt>
      <trkpt lat="47.17314" lon="4.97973">
        <ele>226.5</ele>
        <time>2018-09-18T15:16:28Z</time>
      </trkpt>
      <trkpt lat="47.17309" lon="4.97971">
        <ele>226.7</ele>
        <time>2018-09-18T15:16:32Z</time>
      </trkpt>
      <trkpt lat="47.17304" lon="4.9797">
        <ele>226.8</ele>
        <time>2018-09-18T15:16:36Z</time>
      </trkpt>
      <trkpt lat="47.17299" lon="4.97969">
        <ele>227</ele>
        <time>2018-09-18T15:16:41Z</time>
      </trkpt>
      <trkpt lat="47.17294" lon="4.97968">
        <ele>227.1</ele>
        <time>2018-09-18T15:16:45Z</time>
      </trkpt>
      <trkpt lat="47.1729" lon="4.97967">
        <ele>227.3</ele>
        <time>2018-09-18T15:16:49Z</time>
      </trkpt>
      <trkpt lat="47.17285" lon="4.97966">
        <ele>227.4</ele>
        <time>2018-09-18T15:16:55Z</time>
      </trkpt>
      <trkpt lat="47.17281" lon="4.97963">
        <ele>227.5</ele>
        <time>2018-09-18T15:17:03Z</time>
      </trkpt>
      <trkpt lat="47.17276" lon="4.97962">
        <ele>227.7</ele>
        <time>2018-09-18T15:17:10Z</time>
      </trkpt>
      <trkpt lat="47.17271" lon="4.9796">
        <ele>227.8</ele>
        <time>2018-09-18T15:17:16Z</time>
      </trkpt>
      <trkpt lat="47.17267" lon="4.97957">
        <ele>228</ele>
        <time>2018-09-18T15:17:22Z</time>
      </trkpt>
      <trkpt lat="47.17263" lon="4.97959">
        <ele>228.1</ele>
        <time>2018-09-18T15:17:26Z</time>
      </trkpt>
      <trkpt lat="47.17258" lon="4.97957">
        <ele>228.3</ele>
        <time>2018-09-18T15:17:33Z</time>
      </trkpt>
      <trkpt lat="47.17254" lon="4.97963">
        <ele>228.3</ele>
        <time>2018-09-18T15:17:43Z</time>
      </trkpt>
      <trkpt lat="47.17252" lon="4.97969">
        <ele>228.3</ele>
        <time>2018-09-18T15:17:47Z</time>
      </trkpt>
      <trkpt lat="47.1725" lon="4.97976">
        <ele>228.3</ele>
        <time>2018-09-18T15:17:51Z</time>
      </trkpt>
      <trkpt lat="47.17248" lon="4.97983">
        <ele>228.2</ele>
        <time>2018-09-18T15:17:55Z</time>
      </trkpt>
      <trkpt lat="47.17247" lon="4.97989">
        <ele>228.1</ele>
        <time>2018-09-18T15:17:59Z</time>
      </trkpt>
      <trkpt lat="47.17245" lon="4.97997">
        <ele>227.9</ele>
        <time>2018-09-18T15:18:04Z</time>
      </trkpt>
      <trkpt lat="47.17242" lon="4.98002">
        <ele>227.8</ele>
        <time>2018-09-18T15:18:08Z</time>
      </trkpt>
      <trkpt lat="47.1724" lon="4.98009">
        <ele>227.6</ele>
        <time>2018-09-18T15:18:12Z</time>
      </trkpt>
      <trkpt lat="47.17237" lon="4.98015">
        <ele>227.4</ele>
        <time>2018-09-18T15:18:16Z</time>
      </trkpt>
      <trkpt lat="47.17236" lon="4.98021">
        <ele>227.2</ele>
        <time>2018-09-18T15:18:20Z</time>
      </trkpt>
      <trkpt lat="47.17234" lon="4.98027">
        <ele>227</ele>
        <time>2018-09-18T15:18:24Z</time>
      </trkpt>
      <trkpt lat="47.17234" lon="4.98034">
        <ele>226.9</ele>
        <time>2018-09-18T15:18:28Z</time>
      </trkpt>
      <trkpt lat="47.17234" lon="4.98042">
        <ele>226.7</ele>
        <time>2018-09-18T15:18:33Z</time>
      </trkpt>
      <trkpt lat="47.17234" lon="4.98049">
        <ele>226.6</ele>
        <time>2018-09-18T15:18:37Z</time>
      </trkpt>
      <trkpt lat="47.17234" lon="4.98057">
        <ele>226.4</ele>
        <time>2018-09-18T15:18:42Z</time>
      </trkpt>
      <trkpt lat="47.17233" lon="4.98065">
        <ele>226.2</ele>
        <time>2018-09-18T15:18:47Z</time>
      </trkpt>
      <trkpt lat="47.17235" lon="4.98073">
        <ele>226.1</ele>
        <time>2018-09-18T15:18:52Z</time>
      </trkpt>
      <trkpt lat="47.17238" lon="4.9808">
        <ele>225.9</ele>
        <time>2018-09-18T15:18:57Z</time>
      </trkpt>
      <trkpt lat="47.17239" lon="4.98087">
        <ele>225.8</ele>
        <time>2018-09-18T15:19:02Z</time>
      </trkpt>
      <trkpt lat="47.1724" lon="4.98095">
        <ele>225.6</ele>
        <time>2018-09-18T15:19:07Z</time>
      </trkpt>
      <trkpt lat="47.17243" lon="4.98102">
        <ele>225.5</ele>
        <time>2018-09-18T15:19:12Z</time>
      </trkpt>
      <trkpt lat="47.17244" lon="4.9811">
        <ele>225.3</ele>
        <time>2018-09-18T15:19:17Z</time>
      </trkpt>
      <trkpt lat="47.17244" lon="4.98117">
        <ele>225.1</ele>
        <time>2018-09-18T15:19:22Z</time>
      </trkpt>
      <trkpt lat="47.17243" lon="4.98124">
        <ele>225</ele>
        <time>2018-09-18T15:19:26Z</time>
      </trkpt>
      <trkpt lat="47.17245" lon="4.98132">
        <ele>224.8</ele>
        <time>2018-09-18T15:19:30Z</time>
      </trkpt>
      <trkpt lat="47.17248" lon="4.98138">
        <ele>224.7</ele>
        <time>2018-09-18T15:19:34Z</time>
      </trkpt>
      <trkpt lat="47.17252" lon="4.98143">
        <ele>224.6</ele>
        <time>2018-09-18T15:19:38Z</time>
      </trkpt>
      <trkpt lat="47.17256" lon="4.98147">
        <ele>224.5</ele>
        <time>2018-09-18T15:19:43Z</time>
      </trkpt>
      <trkpt lat="47.17262" lon="4.9815">
        <ele>224.5</ele>
        <time>2018-09-18T15:19:48Z</time>
      </trkpt>
      <trkpt lat="47.17265" lon="4.98154">
        <ele>224.4</ele>
        <time>2018-09-18T15:19:52Z</time>
      </trkpt>
      <trkpt lat="47.17268" lon="4.98161">
        <ele>224.3</ele>
        <time>2018-09-18T15:19:57Z</time>
      </trkpt>
      <trkpt lat="47.17267" lon="4.98166">
        <ele>224.2</ele>
        <time>2018-09-18T15:20:21Z</time>
      </trkpt>
    </trkseg>
  </trk>
</gpx>